[[{"header":{"parameterUnit":"m.s-1","parameterCategory":1,"la1":30.6,"la2":29.2853,"lo1":-89.7004,"lo2":-87.6739,"dx":0.0162,"dy":0.0183,"nx":112,"ny":82,"refTime":"2022-12-08T18:00:00:Z","depth":0,"parameterNumber":2,"parameterNumberName":"U-component_of_WINDS"},"data":[0.0,0.0,0.0,0.0,0.0,0.0,0.0,0.0,0.0,0.0,0.0,0.0,0.0,0.0,0.0,0.0,0.0,0.0,0.0,0.0,0.0,0.0,0.0,0.0,0.0,0.0,0.0,0.0,0.0,0.0,0.0,0.0,0.0,0.0,0.0,0.0,0.0,0.0,0.0,0.0,0.0,0.0,0.0,0.0,0.0,0.0,0.0,0.0,0.0,0.0,0.0,0.0,0.0,0.0,0.0,0.0,0.0,0.0,0.0,0.0,0.0,0.0,0.0,0.0,0.0,0.0,0.0,0.0,0.0,0.0,0.0,0.0,0.0,0.0,0.0,0.0,0.0,0.0,0.0,0.0,0.0,0.0,0.0,0.0,0.0,0.0,0.0,0.0,0.0,0.0,-2.0033,-2.1742,-2.3913,-2.5259,-2.5259,-2.5274,-2.3069,-1.7835,0.0,0.0,0.0,0.0,0.0,0.0,0.0,0.0,0.0,0.0,0.0,0.0,0.0,0.0,0.0,0.0,0.0,0.0,0.0,0.0,0.0,0.0,0.0,0.0,0.0,0.0,0.0,0.0,0.0,0.0,0.0,0.0,0.0,0.0,0.0,0.0,0.0,0.0,0.0,0.0,0.0,0.0,0.0,0.0,0.0,0.0,0.0,0.0,0.0,0.0,0.0,0.0,0.0,0.0,0.0,0.0,0.0,0.0,0.0,0.0,0.0,0.0,0.0,0.0,0.0,0.0,0.0,0.0,0.0,0.0,0.0,0.0,0.0,0.0,0.0,0.0,0.0,0.0,0.0,0.0,0.0,0.0,0.0,0.0,0.0,0.0,0.0,0.0,0.0,0.0,0.0,0.0,0.0,0.0,0.0,0.0,0.0,0.0,0.0,0.0,0.0,0.0,0.0,0.0,-1.7918,-2.3669,-2.474,-2.504,-2.504,-2.5208,-2.3069,-1.7835,0.0,0.0,0.0,0.0,0.0,0.0,0.0,0.0,0.0,0.0,0.0,0.0,0.0,0.0,0.0,0.0,0.0,0.0,0.0,0.0,0.0,0.0,0.0,0.0,0.0,0.0,0.0,0.0,0.0,0.0,0.0,0.0,0.0,0.0,0.0,0.0,0.0,0.0,0.0,0.0,0.0,0.0,0.0,0.0,0.0,0.0,0.0,0.0,0.0,0.0,0.0,0.0,0.0,0.0,0.0,0.0,0.0,0.0,0.0,0.0,0.0,0.0,0.0,0.0,0.0,0.0,0.0,0.0,0.0,0.0,0.0,0.0,0.0,0.0,0.0,0.0,0.0,0.0,0.0,0.0,0.0,0.0,0.0,0.0,0.0,0.0,0.0,0.0,0.0,0.0,0.0,0.0,0.0,0.0,0.0,0.0,0.0,0.0,0.0,0.0,0.0,0.0,0.0,-1.7663,-1.9974,-2.4436,-2.4897,-2.493,-2.4979,-2.5031,-2.2879,-1.7822,-1.6225,0.0,0.0,0.0,0.0,0.0,0.0,0.0,0.0,0.0,0.0,0.0,0.0,0.0,0.0,0.0,0.0,0.0,0.0,0.0,0.0,0.0,0.0,0.0,0.0,0.0,0.0,0.0,0.0,0.0,0.0,0.0,0.0,0.0,0.0,0.0,0.0,0.0,0.0,0.0,0.0,0.0,0.0,0.0,0.0,0.0,0.0,0.0,0.0,0.0,0.0,0.0,0.0,0.0,0.0,0.0,0.0,0.0,0.0,0.0,0.0,0.0,0.0,0.0,0.0,0.0,0.0,0.0,0.0,0.0,0.0,0.0,0.0,0.0,0.0,0.0,0.0,0.0,0.0,0.0,0.0,0.0,0.0,0.0,0.0,0.0,0.0,0.0,0.0,0.0,0.0,0.0,0.0,0.0,0.0,0.0,0.0,0.0,0.0,0.0,0.0,0.0,0.0,-2.1263,-2.271,-2.4676,-2.478,-2.4792,-2.4937,-2.4862,-2.2716,-1.7813,-1.5799,0.0,0.0,0.0,0.0,0.0,0.0,0.0,0.0,0.0,0.0,0.0,0.0,0.0,0.0,0.0,0.0,0.0,0.0,0.0,0.0,0.0,0.0,0.0,0.0,0.0,0.0,0.0,0.0,0.0,0.0,0.0,0.0,0.0,0.0,0.0,0.0,0.0,0.0,0.0,0.0,0.0,0.0,0.0,0.0,0.0,0.0,0.0,0.0,0.0,0.0,0.0,0.0,0.0,0.0,0.0,0.0,0.0,0.0,0.0,0.0,0.0,0.0,0.0,0.0,0.0,0.0,0.0,0.0,0.0,0.0,0.0,0.0,0.0,0.0,0.0,0.0,0.0,0.0,0.0,0.0,0.0,0.0,0.0,0.0,0.0,0.0,0.0,0.0,0.0,0.0,0.0,0.0,0.0,0.0,0.0,0.0,0.0,0.0,0.0,0.0,0.0,0.0,-2.1241,-2.4531,-2.4532,-2.4537,-2.4599,-2.4804,-2.4811,-2.2716,-1.7813,-1.5799,0.0,0.0,0.0,0.0,0.0,0.0,0.0,0.0,0.0,0.0,0.0,0.0,0.0,0.0,0.0,0.0,0.0,0.0,0.0,0.0,0.0,0.0,0.0,0.0,0.0,0.0,0.0,0.0,0.0,0.0,0.0,0.0,0.0,0.0,0.0,0.0,0.0,0.0,0.0,0.0,0.0,0.0,0.0,0.0,0.0,0.0,0.0,0.0,0.0,0.0,0.0,0.0,0.0,0.0,0.0,0.0,0.0,0.0,0.0,0.0,0.0,0.0,0.0,0.0,0.0,0.0,0.0,0.0,0.0,0.0,0.0,0.0,0.0,0.0,0.0,0.0,0.0,0.0,0.0,0.0,0.0,0.0,0.0,0.0,0.0,0.0,0.0,0.0,0.0,0.0,0.0,0.0,0.0,0.0,0.0,0.0,0.0,0.0,0.0,0.0,0.0,0.0,-2.0275,-2.3101,-2.4659,-2.4628,-2.4575,-2.4782,-2.4685,-2.2309,-1.6914,0.0,0.0,0.0,0.0,0.0,0.0,0.0,0.0,0.0,0.0,0.0,0.0,0.0,0.0,0.0,0.0,0.0,0.0,0.0,0.0,0.0,0.0,0.0,0.0,0.0,0.0,0.0,0.0,0.0,0.0,0.0,0.0,0.0,0.0,0.0,0.0,0.0,0.0,0.0,0.0,0.0,0.0,0.0,0.0,0.0,0.0,0.0,0.0,0.0,0.0,0.0,0.0,0.0,0.0,0.0,0.0,0.0,0.0,0.0,0.0,0.0,0.0,0.0,0.0,0.0,0.0,0.0,0.0,0.0,0.0,0.0,0.0,0.0,0.0,0.0,0.0,0.0,0.0,0.0,0.0,0.0,0.0,0.0,0.0,0.0,0.0,0.0,0.0,0.0,0.0,0.0,0.0,0.0,0.0,0.0,0.0,0.0,0.0,0.0,0.0,0.0,0.0,-1.7253,-2.0403,-2.3029,-2.4808,-2.4759,-2.4678,-2.4855,-2.4689,-2.2157,-1.647,0.0,0.0,0.0,0.0,0.0,0.0,0.0,0.0,0.0,0.0,0.0,0.0,0.0,0.0,0.0,0.0,0.0,0.0,0.0,0.0,0.0,0.0,0.0,0.0,0.0,0.0,0.0,0.0,0.0,0.0,0.0,0.0,0.0,0.0,0.0,0.0,0.0,0.0,0.0,0.0,0.0,0.0,0.0,0.0,0.0,0.0,0.0,0.0,0.0,0.0,0.0,0.0,0.0,0.0,0.0,0.0,0.0,0.0,0.0,0.0,0.0,0.0,0.0,0.0,0.0,0.0,0.0,0.0,0.0,0.0,0.0,0.0,0.0,0.0,0.0,0.0,0.0,0.0,0.0,0.0,0.0,0.0,0.0,0.0,0.0,0.0,0.0,0.0,0.0,0.0,0.0,0.0,0.0,0.0,0.0,0.0,0.0,0.0,0.0,0.0,0.0,0.0,-1.7487,-2.1967,-2.4991,-2.4991,-2.4877,-2.4862,-2.4992,-2.4871,-2.2363,0.0,0.0,0.0,0.0,0.0,0.0,0.0,0.0,0.0,0.0,0.0,0.0,0.0,0.0,0.0,0.0,0.0,0.0,0.0,0.0,0.0,0.0,0.0,0.0,0.0,0.0,0.0,0.0,0.0,0.0,0.0,0.0,0.0,0.0,0.0,0.0,0.0,0.0,0.0,0.0,0.0,0.0,0.0,0.0,0.0,0.0,0.0,0.0,0.0,0.0,0.0,0.0,0.0,0.0,0.0,0.0,0.0,0.0,0.0,0.0,0.0,0.0,0.0,0.0,0.0,0.0,0.0,0.0,0.0,0.0,0.0,0.0,0.0,0.0,0.0,0.0,0.0,0.0,0.0,0.0,0.0,0.0,0.0,0.0,0.0,0.0,0.0,0.0,0.0,0.0,0.0,0.0,0.0,0.0,0.0,0.0,0.0,0.0,0.0,0.0,0.0,0.0,0.0,-1.7372,-2.2104,-2.5214,-2.5214,-2.5047,-2.4955,-2.5004,-2.4962,-2.2169,-1.5643,0.0,0.0,0.0,0.0,0.0,0.0,0.0,0.0,0.0,0.0,0.0,0.0,0.0,0.0,0.0,0.0,0.0,0.0,0.0,0.0,0.0,0.0,0.0,0.0,0.0,0.0,0.0,0.0,0.0,0.0,0.0,0.0,0.0,0.0,0.0,0.0,0.0,0.0,0.0,0.0,0.0,0.0,0.0,0.0,0.0,0.0,0.0,0.0,0.0,0.0,0.0,0.0,0.0,0.0,0.0,0.0,0.0,0.0,0.0,0.0,0.0,0.0,0.0,0.0,0.0,0.0,0.0,0.0,0.0,0.0,0.0,0.0,0.0,0.0,0.0,0.0,0.0,0.0,0.0,0.0,0.0,0.0,0.0,0.0,0.0,0.0,0.0,0.0,0.0,0.0,0.0,0.0,0.0,0.0,0.0,0.0,0.0,0.0,0.0,0.0,0.0,0.0,-1.7334,-2.2154,-2.5308,-2.5308,-2.5198,-2.5111,-2.5111,-2.5111,-2.2783,-1.7296,0.0,0.0,0.0,0.0,0.0,0.0,0.0,0.0,0.0,0.0,0.0,0.0,0.0,0.0,0.0,0.0,0.0,0.0,0.0,0.0,0.0,0.0,0.0,0.0,0.0,0.0,0.0,0.0,0.0,0.0,0.0,0.0,0.0,0.0,0.0,0.0,0.0,0.0,0.0,0.0,0.0,0.0,0.0,0.0,0.0,0.0,0.0,0.0,0.0,0.0,0.0,0.0,0.0,0.0,0.0,0.0,0.0,0.0,0.0,0.0,0.0,0.0,0.0,0.0,0.0,0.0,0.0,0.0,0.0,0.0,0.0,0.0,0.0,0.0,0.0,0.0,0.0,0.0,0.0,0.0,0.0,0.0,0.0,0.0,0.0,0.0,0.0,0.0,0.0,0.0,0.0,0.0,0.0,0.0,0.0,0.0,0.0,0.0,0.0,0.0,0.0,0.0,-1.7372,-2.2154,-2.5308,-2.5308,-2.5308,-2.5308,-2.5308,-2.5308,-2.3832,-2.0425,0.0,0.0,0.0,0.0,0.0,0.0,0.0,0.0,0.0,0.0,0.0,0.0,0.0,0.0,0.0,0.0,0.0,0.0,0.0,0.0,0.0,0.0,0.0,0.0,0.0,0.0,0.0,0.0,0.0,0.0,0.0,0.0,0.0,0.0,0.0,0.0,0.0,0.0,0.0,0.0,0.0,0.0,0.0,0.0,0.0,0.0,0.0,0.0,0.0,0.0,0.0,0.0,0.0,0.0,0.0,0.0,0.0,0.0,0.0,0.0,-1.692,-1.4432,0.0,0.0,0.0,0.0,0.0,0.0,0.0,0.0,0.0,0.0,0.0,0.0,0.0,0.0,0.0,0.0,0.0,0.0,0.0,0.0,0.0,0.0,0.0,0.0,0.0,0.0,0.0,0.0,0.0,0.0,0.0,0.0,0.0,0.0,0.0,0.0,0.0,0.0,0.0,0.0,-1.768,-2.2154,-2.5308,-2.5308,-2.5308,-2.5308,-2.5308,-2.5308,-2.3832,-2.0425,-2.2032,0.0,0.0,0.0,0.0,0.0,0.0,0.0,0.0,0.0,0.0,0.0,0.0,0.0,0.0,0.0,0.0,0.0,0.0,0.0,0.0,0.0,0.0,0.0,0.0,0.0,0.0,0.0,0.0,0.0,0.0,0.0,0.0,0.0,0.0,0.0,0.0,0.0,0.0,0.0,0.0,0.0,0.0,0.0,0.0,0.0,0.0,0.0,0.0,0.0,0.0,0.0,0.0,0.0,0.0,0.0,0.0,0.0,0.0,0.0,-1.8638,-1.7096,0.0,0.0,0.0,0.0,0.0,0.0,0.0,0.0,0.0,0.0,0.0,0.0,0.0,0.0,0.0,0.0,0.0,0.0,0.0,0.0,0.0,0.0,0.0,0.0,0.0,0.0,0.0,0.0,0.0,0.0,0.0,0.0,0.0,0.0,0.0,0.0,0.0,0.0,0.0,0.0,-1.7776,-2.2154,-2.5308,-2.5308,-2.5308,-2.5308,-2.5308,-2.5308,-2.4534,-2.2771,-2.4317,0.0,0.0,0.0,0.0,0.0,0.0,0.0,0.0,0.0,0.0,0.0,0.0,0.0,0.0,0.0,0.0,0.0,0.0,0.0,0.0,0.0,0.0,0.0,0.0,0.0,0.0,0.0,0.0,0.0,0.0,0.0,0.0,0.0,0.0,0.0,0.0,0.0,0.0,0.0,0.0,0.0,0.0,0.0,0.0,0.0,0.0,0.0,0.0,0.0,0.0,0.0,0.0,0.0,-1.9954,-2.0489,-2.1173,-2.1173,-2.1927,-2.3081,-2.0254,-2.0042,-2.1393,-1.7086,0.0,0.0,0.0,0.0,0.0,0.0,0.0,0.0,0.0,0.0,0.0,0.0,0.0,0.0,0.0,0.0,0.0,0.0,0.0,0.0,0.0,0.0,-1.8359,-1.9004,-2.0769,-2.1319,-1.7757,0.0,0.0,0.0,0.0,0.0,0.0,0.0,0.0,0.0,0.0,0.0,-1.8334,-2.2423,-2.5308,-2.5308,-2.5308,-2.5308,-2.5308,-2.5308,-2.5308,-2.5308,-2.5308,-2.5034,0.0,0.0,0.0,0.0,0.0,0.0,0.0,0.0,0.0,0.0,0.0,0.0,0.0,0.0,0.0,0.0,0.0,0.0,0.0,0.0,0.0,0.0,0.0,0.0,0.0,0.0,0.0,0.0,0.0,0.0,0.0,0.0,-1.7237,-1.7353,0.0,0.0,0.0,0.0,0.0,0.0,0.0,0.0,0.0,0.0,0.0,0.0,0.0,-1.8615,-1.8838,-2.1027,-2.2182,-2.2316,-2.3774,-2.4538,-2.4635,-2.4635,-2.4769,-2.4942,-2.45,0.0,-2.2528,-2.1108,0.0,0.0,0.0,0.0,0.0,0.0,0.0,0.0,0.0,0.0,0.0,0.0,0.0,0.0,0.0,0.0,0.0,0.0,0.0,0.0,0.0,0.0,-2.4509,-2.4568,-2.4831,-2.4886,-2.4196,-1.9986,-1.6426,-1.675,-1.35,-0.9887,0.0,0.0,0.0,0.0,0.0,0.0,-2.0542,-2.3519,-2.5308,-2.5308,-2.5308,-2.5308,-2.5308,-2.5308,-2.5308,-2.5308,-2.5308,-2.3971,-2.1005,-2.2917,0.0,0.0,0.0,0.0,0.0,0.0,0.0,0.0,0.0,0.0,0.0,0.0,0.0,0.0,0.0,0.0,0.0,0.0,0.0,0.0,0.0,0.0,0.0,0.0,0.0,0.0,0.0,0.0,0.0,-1.6516,-1.747,-1.8977,-1.6904,-1.4981,0.0,0.0,0.0,0.0,0.0,0.0,0.0,0.0,0.0,-2.0508,-2.0946,-2.1812,-2.3259,-2.437,-2.4947,-2.4947,-2.5678,-2.5769,-2.5308,-2.5308,-2.5308,-2.5308,-2.5308,-2.4885,-2.4058,-2.2254,-2.0639,-1.913,0.0,0.0,0.0,0.0,-1.795,-1.7986,-2.0664,-2.1055,-2.0273,-1.9785,0.0,0.0,0.0,0.0,0.0,0.0,0.0,-1.8027,-2.0644,-2.2441,-2.3905,-2.5276,-2.5602,-2.5567,-2.5488,-2.3392,-2.1158,-1.9818,-1.7558,-1.4382,-0.979,-1.1615,0.0,0.0,0.0,-1.8904,-2.1196,-2.3712,-2.5308,-2.5308,-2.5308,-2.5308,-2.5308,-2.5308,-2.5308,-2.5308,-2.5308,-2.463,-2.3136,-2.2435,-2.0157,0.0,0.0,0.0,0.0,0.0,0.0,0.0,0.0,0.0,0.0,0.0,0.0,0.0,0.0,0.0,0.0,0.0,0.0,0.0,0.0,0.0,0.0,0.0,0.0,0.0,0.0,0.0,0.0,-1.7914,-1.888,-2.0653,-1.9039,-1.7099,0.0,0.0,0.0,0.0,0.0,0.0,-2.0546,-2.0816,-2.1912,-2.4048,-2.4105,-2.5024,-2.6909,-2.6928,-2.6928,-2.6928,-2.6928,-2.6601,-2.5962,-2.5962,-2.5962,-2.5962,-2.5962,-2.5962,-2.5788,-2.3442,-2.2224,-2.1667,-1.9746,-1.8801,-1.8712,-2.0435,-2.071,-2.068,-2.3691,-2.4336,-2.373,-2.3086,-2.1992,-2.0566,-1.8613,0.0,0.0,0.0,0.0,-1.9609,-2.2207,-2.2871,-2.3339,-2.5186,-2.5632,-2.5604,-2.5545,-2.536,-2.4516,-2.2094,-2.1088,-1.9027,-1.3911,-1.4962,0.0,-1.4234,-1.76,-2.0827,-2.2269,-2.4135,-2.5308,-2.5308,-2.5308,-2.5308,-2.5308,-2.5308,-2.5308,-2.5308,-2.5308,-2.5308,-2.5308,-2.2629,-2.1866,-2.3367,0.0,0.0,0.0,0.0,0.0,0.0,0.0,0.0,0.0,0.0,0.0,0.0,0.0,0.0,0.0,0.0,0.0,0.0,0.0,0.0,0.0,0.0,0.0,0.0,0.0,0.0,0.0,0.0,0.0,-2.2471,-2.1713,0.0,0.0,0.0,0.0,-1.9981,-2.16,-2.3254,-2.4904,-2.5769,-2.6659,-2.7607,-2.7645,-2.7703,-2.7838,-2.7838,-2.7838,-2.7838,-2.7838,-2.7818,-2.778,-2.778,-2.778,-2.778,-2.778,-2.778,-2.7621,-2.5846,-2.4199,-2.282,-2.2615,-2.1575,-2.0401,-2.2192,-2.2843,-2.3074,-2.4977,-2.5605,-2.5566,-2.5527,-2.3848,-2.1816,-2.168,-1.9902,0.0,0.0,-2.168,-2.2285,-2.4844,-2.5508,-2.5547,-2.5664,-2.5683,-2.5682,-2.5605,-2.4997,-2.4617,-2.5148,-2.5153,-2.4209,-2.1487,0.0,-2.025,-2.0908,-2.0596,-2.1462,-2.4692,-2.5231,-2.5308,-2.5308,-2.5308,-2.5308,-2.5308,-2.5308,-2.5308,-2.5308,-2.5308,-2.5308,-2.5308,-2.4822,-2.3169,-2.0202,-2.2378,0.0,0.0,0.0,0.0,0.0,0.0,0.0,0.0,0.0,0.0,0.0,0.0,0.0,0.0,0.0,0.0,0.0,0.0,0.0,0.0,0.0,0.0,0.0,0.0,0.0,0.0,0.0,0.0,-2.2719,-2.2982,0.0,-2.0777,-2.2096,-2.3169,-2.35,-2.5101,-2.6332,-2.6948,-2.7274,-2.7582,-2.7895,-2.7895,-2.8145,-2.8665,-2.8665,-2.8665,-2.8665,-2.8665,-2.8396,-2.7895,-2.7895,-2.7895,-2.7895,-2.7895,-2.7895,-2.7857,-2.7236,-2.6289,-2.5216,-2.4649,-2.4071,-2.366,-2.4319,-2.4608,-2.4771,-2.5415,-2.5661,-2.5703,-2.5703,-2.5098,-2.4355,-2.4355,-2.3691,-2.3144,-2.4082,-2.4355,-2.4551,-2.5469,-2.5703,-2.5703,-2.5703,-2.5703,-2.5683,-2.5662,-2.5447,-2.5309,-2.5576,-2.5118,-2.3875,-2.1272,-2.2369,-2.2933,-2.1012,-2.2327,-2.3942,-2.5154,-2.5308,-2.5308,-2.5308,-2.5308,-2.5308,-2.5308,-2.5308,-2.5308,-2.5308,-2.5308,-2.5308,-2.5308,-2.4987,-2.4245,-2.3081,-2.3798,-2.3437,0.0,0.0,0.0,0.0,0.0,0.0,0.0,0.0,0.0,0.0,0.0,0.0,0.0,0.0,0.0,0.0,0.0,0.0,0.0,0.0,0.0,0.0,0.0,0.0,0.0,-2.1776,-2.3364,-2.3165,-2.4466,-2.4702,-2.2942,-2.5096,-2.6577,-2.6577,-2.7928,-2.8736,-2.8736,-2.8736,-2.8736,-2.8736,-2.8736,-2.9006,-2.9525,-2.9544,-2.9544,-2.9544,-2.9544,-2.9256,-2.8736,-2.8736,-2.8736,-2.8736,-2.8736,-2.8736,-2.8717,-2.8434,-2.7967,-2.7351,-2.6505,-2.6015,-2.5804,-2.5832,-2.5709,-2.5541,-2.5573,-2.5633,-2.5662,-2.5683,-2.5703,-2.5703,-2.5703,-2.5703,-2.5703,-2.5703,-2.5703,-2.5703,-2.5703,-2.5703,-2.5703,-2.5703,-2.5703,-2.5703,-2.5703,-2.5703,-2.5703,-2.5703,-2.5179,-2.4193,-2.2451,-2.3983,-2.4552,-2.2006,-2.3739,-2.5225,-2.4933,-2.5135,-2.5308,-2.5308,-2.5308,-2.5308,-2.5308,-2.4519,-2.4385,-2.525,-2.45,-2.4404,-2.5269,-2.4169,-2.3541,-2.3541,-2.3157,-2.2464,-2.1473,0.0,0.0,0.0,0.0,0.0,0.0,0.0,0.0,0.0,0.0,0.0,0.0,0.0,0.0,0.0,0.0,0.0,0.0,0.0,0.0,0.0,0.0,0.0,-2.1301,-2.3494,-2.4874,-2.4032,-2.6296,-2.7274,-2.5577,-2.7678,-2.9146,-2.9146,-2.9929,-3.0404,-3.0404,-3.0404,-3.0404,-3.0404,-3.0404,-3.0404,-3.0404,-3.0404,-3.0404,-3.0404,-3.0404,-3.0404,-3.0404,-3.0404,-3.0404,-3.0404,-3.0404,-3.0404,-3.0327,-2.9486,-2.9146,-2.9069,-2.8222,-2.7371,-2.6655,-2.6709,-2.6208,-2.5505,-2.5609,-2.5638,-2.5644,-2.5682,-2.5703,-2.5703,-2.5703,-2.5703,-2.5703,-2.5703,-2.5703,-2.5703,-2.5703,-2.5703,-2.5703,-2.5703,-2.5703,-2.5703,-2.5703,-2.5703,-2.5703,-2.5703,-2.5657,-2.5603,-2.5602,-2.5549,-2.5221,-2.4364,-2.489,0.0,-2.4239,-2.4812,-2.5288,-2.5269,-2.5269,-2.5269,-2.5269,-2.3,-2.2654,-2.5135,-2.2981,-2.2731,-2.5192,-2.2667,-2.1208,-2.1196,-2.0808,-1.9201,-1.6358,0.0,0.0,0.0,0.0,0.0,0.0,0.0,0.0,0.0,0.0,0.0,0.0,0.0,0.0,0.0,0.0,0.0,0.0,0.0,0.0,0.0,-2.199,-2.3745,-2.3195,-2.545,-2.7039,-2.6804,-2.7951,-2.8588,-2.8102,-2.9256,-3.0038,-3.0038,-3.0269,-3.0404,-3.0404,-3.0404,-3.0404,-3.0404,-3.0404,-3.0404,-3.0404,-3.0404,-3.0404,-3.0404,-3.0404,-3.0404,-3.0404,-3.0404,-3.0404,-3.0404,-3.0404,-3.0404,-3.0385,-3.0135,-3.0038,-2.9904,-2.8467,-2.7761,-2.753,-2.7566,-2.7455,-2.721,-2.6662,-2.6478,-2.6373,-2.5816,-2.5632,-2.5635,-2.5683,-2.5703,-2.5703,-2.5703,-2.5703,-2.5703,-2.5703,-2.5703,-2.5703,-2.5703,-2.5703,-2.5703,-2.5703,-2.5703,-2.5703,-2.5703,-2.5683,-2.566,-2.5605,-2.5575,-2.5463,-2.5127,-2.5258,-2.5294,-2.5,-2.5154,-2.5077,-2.449,-2.4432,-2.4432,-2.4432,-2.3798,-2.3928,-2.5231,-2.4635,-2.4577,-2.5269,-2.4321,-2.3645,-2.3356,-2.3235,-2.2776,0.0,0.0,0.0,0.0,0.0,0.0,0.0,0.0,0.0,0.0,0.0,0.0,0.0,0.0,0.0,0.0,0.0,0.0,0.0,0.0,0.0,0.0,-2.44,-2.5964,-2.5815,-2.723,-2.8316,-2.8385,-2.914,-2.964,-2.964,-3.0096,-3.0404,-3.0404,-3.0404,-3.0404,-3.0404,-3.0404,-3.0404,-3.0404,-3.0404,-3.0404,-3.0404,-3.0404,-3.0404,-3.0404,-3.0404,-3.0404,-3.0404,-3.0404,-3.0404,-3.0404,-3.0404,-3.0404,-3.0404,-3.0404,-3.0404,-3.0308,0.0,0.0,0.0,0.0,-2.7918,-2.7898,-2.7454,-2.7291,-2.723,-2.6797,-2.6408,-2.6126,-2.618,-2.5952,-2.5661,-2.5683,-2.5703,-2.5703,-2.5703,-2.5703,-2.5703,-2.5703,-2.5703,-2.5703,-2.5703,-2.5703,-2.5703,-2.5703,-2.5703,0.0,-2.5658,-2.5636,-2.5483,-2.5007,-2.5237,-2.5284,-2.4855,-2.5096,-2.5115,-2.4639,-2.4601,-2.4601,-2.4601,-2.3624,0.0,0.0,0.0,-2.366,-2.3555,-2.3353,0.0,0.0,0.0,-2.3162,-2.419,-2.419,0.0,0.0,-2.0816,-1.8476,0.0,0.0,0.0,0.0,0.0,0.0,0.0,0.0,0.0,0.0,0.0,0.0,0.0,0.0,0.0,0.0,-2.6693,-2.8268,-2.8469,-2.8714,-2.896,-2.9171,-2.988,-3.0367,-3.0404,-3.0404,-3.0404,-3.0404,-3.0404,-3.0404,-3.0404,-3.0404,0.0,0.0,0.0,-3.0558,-3.0558,-3.0635,-3.0673,-3.0673,-3.0596,-3.0558,-3.0538,-3.0442,-3.0404,-3.0404,-3.0404,-3.0404,-3.0404,-3.0404,-3.0404,-3.0404,-3.0404,-2.9929,-2.9165,-2.8453,-2.8179,-2.8175,-2.8149,0.0,0.0,-2.8094,-2.7578,-2.6954,-2.7016,-2.6433,-2.5762,-2.5818,-2.5762,-2.5703,-2.5703,-2.5703,-2.5703,-2.5703,-2.5703,-2.5703,-2.5703,-2.5703,-2.5703,-2.5703,-2.5703,-2.5703,-2.5703,-2.5683,-2.5404,-2.4561,-2.5041,-2.5198,-2.4349,-2.487,-2.5269,-2.5173,-2.5154,0.0,-2.5154,-2.3101,-2.2793,-2.5154,-2.3173,-2.1804,-2.1552,-2.154,-2.1354,-2.0964,-2.0956,-2.2032,-2.419,-2.419,-2.419,-2.4116,-2.0169,-1.8713,0.0,0.0,0.0,0.0,0.0,0.0,0.0,0.0,0.0,0.0,0.0,0.0,0.0,0.0,0.0,-2.6031,-2.7679,-2.892,-2.9172,-2.926,-2.9417,-2.9773,-2.9961,-3.0157,-3.0373,-3.0404,-3.0404,-3.0404,-3.0404,-3.0404,-3.0404,-3.0404,-3.0404,-3.0404,-3.1077,-3.1448,-3.1448,-3.2083,-3.2429,-3.241,-3.1756,0.0,-3.1423,-3.0712,-3.0404,-3.0404,-3.0404,-3.0404,-3.0404,-3.0404,-3.0404,-3.0404,-3.0404,-3.0308,-3.0135,-2.9962,-2.9923,-2.9813,-2.9135,-2.8895,-2.8795,-2.8212,-2.7916,-2.778,-2.7843,-2.7299,0.0,-2.6658,-2.6205,-2.5703,-2.5703,-2.5703,-2.5703,-2.5703,-2.5703,-2.5703,-2.5703,-2.5703,-2.5703,-2.5703,-2.5703,-2.5703,-2.5703,-2.5659,-2.554,-2.5308,-2.5346,-2.5337,-2.5101,-2.5192,-2.5058,-2.4394,-2.4336,-2.4336,-2.4336,-2.3875,-2.4086,-2.5231,-2.4846,-2.4474,-2.4243,-2.4256,-2.4092,-2.3727,-2.3737,-2.3876,-2.419,-2.419,-2.419,-2.4171,-2.3318,-2.2856,0.0,0.0,0.0,0.0,0.0,0.0,0.0,0.0,0.0,0.0,0.0,-2.2841,-2.4492,0.0,-2.6851,-2.7666,-2.8473,-2.9089,-2.9361,-2.9402,-2.9542,-2.9954,-3.0006,-3.0115,-3.0367,-3.0404,-3.0404,-3.0404,-3.0404,-3.0596,-3.1019,-3.1058,-3.1231,-3.1635,-3.2064,-3.2295,-3.2295,-3.2699,-3.2891,-3.2891,-3.2083,-3.1698,-3.1679,-3.0808,-3.0404,-3.0404,-3.0404,-3.0404,-3.0404,-3.0404,-3.0404,-3.0404,-3.0404,-3.0404,-3.0404,-3.0404,-3.0404,-3.0346,-2.991,-2.9756,-2.969,-2.9326,-2.8903,-2.8565,-2.8625,-2.7777,-2.6809,-2.684,-2.6278,-2.5658,-2.5658,-2.5662,-2.5703,-2.5703,-2.5703,-2.5703,-2.5703,-2.5703,-2.5703,-2.5703,-2.5703,-2.5703,-2.5703,-2.5637,-2.5595,-2.5556,-2.5484,-2.5425,-2.5363,-2.5331,-2.5154,-2.4736,-2.4697,-2.4697,-2.4697,-2.4697,-2.487,-2.5269,-2.5308,-2.5208,-2.5016,-2.5004,-2.4885,-2.4654,-2.4543,-2.4444,-2.4348,-2.4256,-2.419,-2.419,-2.419,-2.4103,0.0,0.0,0.0,0.0,0.0,0.0,0.0,-2.0821,-2.1188,-2.3666,-2.4675,-2.5529,-2.6822,-2.7603,-2.8246,-2.8895,-2.9005,-2.9078,-2.9289,-2.932,-2.9465,-2.9837,-2.9954,-3.0115,-3.0367,-3.0404,-3.0462,-3.0635,-3.0654,-3.1019,-3.1891,-3.1929,-3.2237,-3.2872,-3.3064,-3.3141,-3.3141,-3.3314,-3.341,-3.341,-3.2583,-3.2199,-3.216,-3.1115,-3.0654,-3.0635,-3.0462,-3.0404,-3.0404,-3.0404,-3.0404,-3.0404,-3.0404,-3.0404,-3.0404,-3.0404,-3.0404,-3.0404,-3.0404,-3.0404,-3.0404,-3.0404,-2.9929,-2.9355,-2.941,-2.8373,-2.7152,-2.7068,-2.6442,-2.5806,-2.5638,-2.5636,-2.5683,-2.5703,-2.5703,-2.5703,-2.5703,-2.5703,-2.5703,-2.5703,-2.5703,-2.5703,-2.5703,-2.5659,-2.5628,-2.5602,-2.5547,-2.5471,-2.5428,-2.5363,-2.5327,-2.5327,-2.5303,-2.5308,-2.5308,-2.5308,-2.5308,-2.5308,-2.5308,-2.5224,-2.5057,-2.5071,-2.4993,-2.4842,-2.4682,-2.4567,-2.4503,-2.4348,-2.4237,-2.419,-2.419,-2.419,-2.2419,-2.1355,-2.0694,-2.2107,-2.1914,-2.2528,0.0,-2.6264,-2.5411,-2.7831,-2.84,-2.8528,-2.8712,-2.8803,-2.8895,-2.8987,-2.9005,-2.9017,-2.9051,-2.9033,-2.9149,-2.9434,-2.978,-3.0115,-3.0367,-3.0404,-3.0712,-3.1506,-3.1545,-3.191,-3.2718,-3.2776,-3.2814,-3.2891,-3.3641,-3.4052,-3.4052,-3.4814,-3.5212,-3.5192,-3.4334,-3.3917,-3.3878,-3.2275,-3.1545,-3.1506,-3.0731,-3.0404,-3.0404,-3.0404,-3.0404,-3.0404,-3.0404,-3.0404,-3.0404,-3.0404,-3.0404,-3.0404,-3.0404,-3.0404,-3.0404,-3.0404,-3.0327,-3.0256,-3.0267,-2.9641,-2.8778,-2.8055,-2.7294,-2.6495,-2.5786,-2.5604,-2.5632,-2.5683,-2.5703,-2.5703,-2.5703,-2.5703,-2.5703,-2.5703,-2.5703,-2.5703,-2.5703,-2.5683,-2.5662,-2.5605,-2.5547,-2.5508,-2.5481,-2.5431,-2.5395,-2.5395,-2.5339,-2.5308,-2.5308,-2.5308,-2.5308,-2.5308,-2.5308,-2.5279,-2.5269,-2.5269,-2.5187,-2.498,-2.4962,-2.4797,-2.4503,-2.4478,-2.4375,-2.419,-2.419,-2.419,-2.5676,-2.4942,-2.4327,-2.5493,-2.5529,-2.5815,-2.7842,-2.7512,-2.7229,-2.8693,-2.9005,-2.9005,-2.9005,-2.9005,-2.9005,-2.9005,-2.9005,-2.9044,-2.9203,-2.9632,-3.0018,-3.0245,-3.0827,-3.1146,-3.0934,-3.1207,-3.1676,-3.2353,-3.2248,-3.2605,-3.3603,-3.3667,-3.3891,-3.4404,-3.4776,-3.4968,-3.4968,-3.5327,-3.55,-3.5481,-3.4622,-3.4205,-3.4167,-3.2949,-3.2141,-3.1679,-3.1308,-3.0865,-3.0404,-3.0404,-3.0404,-3.0404,-3.0404,-3.0404,-3.0404,-3.0404,-3.0404,-3.0404,-3.0404,-3.0404,-3.0404,-3.0404,-3.0404,-3.0404,-3.0404,-2.9809,-2.9066,-2.8719,-2.772,-2.6663,-2.6332,-2.5887,-2.5558,-2.5632,-2.5636,-2.5658,-2.5683,-2.5703,-2.5703,-2.5703,-2.5703,-2.5703,-2.5703,-2.5703,-2.5683,-2.5661,-2.5602,-2.5558,-2.5558,-2.5491,-2.545,-2.5397,-2.5372,-2.5333,-2.5293,-2.5308,-2.5308,-2.5308,-2.5308,-2.5308,-2.5308,-2.5308,-2.5264,-2.5187,-2.5052,-2.4937,-2.479,-2.4712,-2.4631,-2.4553,-2.4436,-2.4375,-2.6833,-2.6704,-2.6741,-2.7328,-2.7805,-2.8136,-2.8136,-2.8136,-2.8301,-2.8877,-2.9005,-2.9005,-2.9005,-2.9005,-2.9005,-2.9005,-2.9005,-2.9159,-2.9553,-3.0123,-3.0626,-3.1,-3.1759,-3.2115,-3.181,-3.1977,-3.2352,-3.2993,-3.285,-3.3247,-3.4386,-3.445,-3.4738,-3.5364,-3.5453,-3.5453,-3.5383,-3.5453,-3.55,-3.5481,-3.4853,-3.4564,-3.4526,-3.341,-3.2468,-3.1698,-3.1448,-3.0981,-3.0404,-3.0404,-3.0404,-3.0404,-3.0404,-3.0404,-3.0404,-3.0404,-3.0404,-3.0404,-3.0404,-3.0404,-3.0404,-3.0404,-3.0404,-3.0404,-3.0404,-2.9967,-2.941,-2.9165,-2.8092,-2.6983,-2.6761,-2.6091,-2.5498,-2.5556,-2.5594,-2.5607,-2.5661,-2.5683,-2.5683,-2.5682,-2.5662,-2.5662,-2.5662,-2.5662,-2.5683,-2.5703,-2.566,-2.5633,-2.5633,-2.5564,-2.5493,-2.5438,-2.5428,-2.5409,-2.533,-2.5336,-2.5322,-2.5308,-2.5308,-2.5308,-2.5308,-2.5308,-2.5308,-2.5308,-2.5157,-2.5065,-2.5004,-2.4904,-2.4835,-2.4797,-2.4647,-2.4543,-2.4942,-2.5438,-2.6602,-2.662,-2.7813,-2.8968,-2.8968,-2.8968,-2.8968,-2.8987,-2.9005,-2.9005,-2.9005,-2.9005,-2.9005,-2.9005,-2.9005,-2.928,-3.0056,-3.0203,-3.0497,-3.1293,-3.2107,-3.2674,-3.2914,-3.2441,-3.2467,-3.3316,-3.3373,-3.3866,-3.5001,-3.5075,-3.5075,-3.5113,-3.5369,-3.5376,-3.5113,-3.5369,-3.55,-3.55,-3.5462,-3.5462,-3.5404,-3.368,-3.2468,-3.166,-3.0808,-3.0423,-3.0404,-3.0404,-3.0404,-3.0404,-3.0404,-3.0404,-3.0404,-3.0404,-3.0404,-3.0404,-3.0404,-3.0404,-3.0404,-3.0404,-3.0404,-3.0404,-3.0404,-3.0385,-3.0173,-2.9338,-2.8492,-2.7676,-2.6899,-2.6057,-2.5431,-2.5495,-2.5554,-2.5602,-2.5603,-2.5659,-2.5683,-2.5628,-2.5603,-2.5603,-2.5603,-2.5603,-2.5632,-2.5683,-2.5703,-2.5703,-2.5703,-2.5636,-2.5566,-2.5496,-2.5508,-2.5477,-2.5402,-2.5395,-2.5371,-2.5293,-2.5308,-2.5308,-2.5308,-2.5308,-2.5308,-2.5308,-2.5284,-2.5184,-2.5004,-2.5004,-2.4936,-2.4804,-2.4797,-2.4685,-2.6007,-2.6576,-2.753,-2.8051,-2.8601,-2.9005,-2.9005,-2.9005,-2.9005,-2.9005,-2.9005,-2.9005,-2.9005,-2.9445,-2.9794,-2.9794,-3.0246,-3.0687,-3.0962,-3.1458,-3.1885,-3.2173,-3.2908,-3.3424,-3.3522,-3.3346,-3.3517,-3.4201,-3.4054,-3.4207,-3.4794,-3.4822,-3.4822,-3.4822,-3.4926,-3.4926,-3.4841,-3.4926,-3.5062,-3.5231,-3.5405,-3.5417,-3.5211,-3.481,-3.3853,-3.2487,-3.2199,-3.1423,-3.0404,-3.0404,-3.0404,-3.0404,-3.0404,-3.0404,-3.0404,-3.0404,-3.0404,-3.0404,-3.0404,-3.0404,-3.0404,-3.0404,-3.0404,-3.0404,-3.0404,-3.0404,-3.0346,-3.0038,-2.8967,-2.7843,-2.7576,-2.641,-2.5342,-2.5415,-2.5453,-2.5485,-2.5511,-2.5552,-2.5559,-2.5543,-2.552,-2.552,-2.552,-2.552,-2.5556,-2.5611,-2.5662,-2.5703,-2.5703,-2.5683,-2.5636,-2.5567,-2.5563,-2.5543,-2.5479,-2.5474,-2.5462,-2.5434,-2.5395,-2.5371,-2.5367,-2.5312,-2.5308,-2.5308,-2.5308,-2.5269,-2.5203,-2.5203,-2.5182,-2.5126,-2.4993,-2.4891,-2.6961,-2.7402,-2.7989,-2.8803,-2.9005,-2.9005,-2.9005,-2.9005,-2.9005,-2.9005,-2.8767,-2.8565,-2.8565,-2.9225,-2.9879,-3.0155,-3.1127,-3.1935,-3.221,-3.2706,-3.3036,-3.3036,-3.3495,-3.3807,-3.3807,-3.3807,-3.3954,-3.436,-3.4177,-3.4183,-3.4508,-3.4529,-3.4529,-3.4529,-3.4643,-3.4643,-3.4529,-3.4643,-3.4803,-3.4963,-3.513,-3.5122,-3.4963,-3.4905,-3.4268,-3.3182,-3.2692,-3.1872,-3.0846,-3.0538,-3.0329,-3.0254,-3.0254,-3.0221,-3.0142,-3.0142,-3.0202,-3.0267,-3.0367,-3.0404,-3.0404,-3.0404,-3.0404,-3.0404,-3.0404,-3.0404,-3.0404,-3.0404,-2.9198,-2.7895,-2.7895,-2.6621,-2.5308,-2.5354,-2.5379,-2.5401,-2.5459,-2.5473,-2.5484,-2.5477,-2.5451,-2.5454,-2.5454,-2.5476,-2.5505,-2.5558,-2.5602,-2.5657,-2.5683,-2.5703,-2.5683,-2.5636,-2.5635,-2.5605,-2.5545,-2.5541,-2.5533,-2.5493,-2.5468,-2.5438,-2.5431,-2.5395,-2.5359,-2.5335,-2.5335,-2.5312,-2.5308,-2.5308,-2.5308,-2.5303,-2.5163,-2.5077,-2.7585,-2.7835,-2.8044,-2.8803,-2.9023,-2.906,-2.9005,-2.9023,-2.9042,-2.8968,-2.8338,-2.778,-2.7688,-2.8448,-2.9299,-3.0026,-3.1555,-3.2931,-3.3697,-3.3807,-3.3807,-3.3807,-3.3807,-3.3807,-3.3807,-3.3807,-3.3807,-3.3807,-3.3807,-3.3915,-3.4171,-3.4183,-3.4183,-3.4183,-3.4486,-3.4508,-3.4176,-3.4508,-3.4663,-3.4653,-3.4684,-3.4684,-3.4665,-3.4099,-3.383,-3.3704,-3.2363,-3.1751,-3.1603,-3.0764,-3.0266,-2.9999,-2.9991,-2.9869,-2.9705,-2.9705,-2.9821,-3.0013,-3.0286,-3.0392,-3.0404,-3.0404,-3.0404,-3.0404,-3.0404,-3.0404,-3.0404,-3.0404,-2.9217,-2.7953,-2.7915,-2.664,-2.5365,-2.5308,-2.5342,-2.5383,-2.5391,-2.5444,-2.5479,-2.5409,-2.5398,-2.5383,-2.5383,-2.5453,-2.5481,-2.5486,-2.5486,-2.5547,-2.5682,-2.5683,-2.5703,-2.5703,-2.5703,-2.5662,-2.5606,-2.5604,-2.557,-2.5505,-2.5517,-2.5515,-2.5515,-2.5493,-2.5477,-2.5409,-2.5406,-2.5375,-2.5317,-2.5317,-2.5293,-2.5308,-2.5308,-2.5203,-2.7732,-2.8246,-2.873,-2.895,-2.9445,-2.9739,-2.9133,-2.9464,-2.9549,-2.8356,-2.7934,-2.7431,-2.6237,-2.8136,-2.9769,-2.9372,-3.1659,-3.3568,-3.377,-3.3807,-3.3807,-3.3807,-3.3807,-3.3807,-3.3807,-3.3807,-3.3807,-3.3807,-3.3807,-3.3829,-3.3902,-3.3902,-3.3902,-3.3902,-3.3992,-3.3992,-3.3902,-3.4183,-3.4237,-3.4024,-3.4494,-3.4561,-3.4327,-3.4429,-3.4122,-3.3488,-3.3127,-3.2368,-3.1367,-3.0945,-3.047,-2.9991,-2.9837,-2.9756,-2.9705,-2.9705,-2.972,-2.9799,-2.9856,-3.0107,-3.0404,-3.0404,-3.0404,-3.0404,-3.0404,-3.0404,-3.0404,-3.0404,-2.9621,-2.8665,-2.8068,-2.7082,-2.6096,-2.5442,-2.5313,-2.5336,-2.5336,-2.5339,-2.5352,-2.5321,-2.5336,-2.534,-2.534,-2.5344,-2.5375,-2.5415,-2.5428,-2.5465,-2.5605,-2.5632,-2.5637,-2.5683,-2.5703,-2.5683,-2.5682,-2.5662,-2.5661,-2.5658,-2.5602,-2.5569,-2.5569,-2.5535,-2.5484,-2.5463,-2.5463,-2.5441,-2.5379,-2.5368,-2.5346,-2.5308,-2.5308,-2.5269,-2.8227,-2.8656,-2.9005,-2.9005,-2.9335,-2.9464,-2.8656,-2.8815,-2.8686,-2.7082,-2.6751,-2.6256,-2.463,-2.7273,-2.9537,-2.9078,-3.1995,-3.4325,-3.4325,-3.4325,-3.4211,-3.3844,-3.3807,-3.3807,-3.3807,-3.3807,-3.3807,-3.3807,-3.3807,-3.3807,-3.3807,-3.3807,-3.3807,-3.3807,-3.3807,-3.3807,-3.3807,-3.3948,-3.3948,-3.3788,-3.4136,-3.4201,-3.4031,-3.4334,-3.4213,-3.3733,-3.3491,-3.276,-3.1655,-3.1118,-3.044,-2.9731,-2.9616,-2.9494,-2.9397,-2.9397,-2.9465,-2.9561,-2.9561,-2.9809,-3.0114,-3.0189,-3.0305,-3.0404,-3.0404,-3.0404,-3.0404,-3.0404,-2.9775,-2.8992,-2.8549,-2.7525,-2.6486,-2.5981,-2.5577,-2.5308,-2.5308,-2.5308,-2.5308,-2.5308,-2.5308,-2.5308,-2.5308,-2.5308,-2.5313,-2.5346,-2.5359,-2.5398,-2.5508,-2.5543,-2.5566,-2.5605,-2.5636,-2.566,-2.566,-2.5683,-2.5703,-2.5703,-2.5661,-2.5637,-2.5637,-2.5605,-2.5567,-2.5549,-2.5547,-2.552,-2.5444,-2.5447,-2.5401,-2.5348,-2.5333,-2.5326,-2.8803,-2.9005,-2.9005,-2.9005,-2.9078,-2.8913,-2.8007,-2.7798,-2.7321,-2.5595,-2.5154,-2.4622,-2.3125,-2.5941,-2.8583,-2.8803,-3.2032,-3.4601,-3.4821,-3.4839,-3.4582,-3.388,-3.3807,-3.3807,-3.3807,-3.3807,-3.3807,-3.3807,-3.3807,-3.3807,-3.3807,-3.3807,-3.3807,-3.3807,-3.3807,-3.3807,-3.3807,-3.3807,-3.3807,-3.3807,-3.3807,-3.3807,-3.382,-3.4043,-3.4147,-3.4134,-3.354,-3.285,-3.2081,-3.1177,-3.0244,-2.9402,-2.9361,-2.9192,-2.9005,-2.9005,-2.9156,-2.9351,-2.9351,-2.9484,-2.9696,-2.9901,-3.0115,-3.0305,-3.0343,-3.0355,-3.0355,-3.0398,-2.9852,-2.9242,-2.9127,-2.7928,-2.6736,-2.664,-2.5923,-2.5308,-2.5308,-2.5308,-2.5308,-2.5308,-2.5308,-2.5308,-2.5308,-2.5308,-2.5308,-2.5308,-2.5308,-2.5331,-2.5379,-2.545,-2.5481,-2.5491,-2.5554,-2.5594,-2.5594,-2.5658,-2.5683,-2.5683,-2.5703,-2.5703,-2.5703,-2.5703,-2.5662,-2.5607,-2.5607,-2.5572,-2.5503,-2.5503,-2.5488,-2.542,-2.5408,-2.5376,-2.8968,-2.9005,-2.9005,-2.9005,-2.95,-2.9604,-2.8136,-2.7798,-2.7145,-2.4879,-2.3878,-2.3125,-2.218,-2.4218,-2.6458,-2.7787,-3.0265,-3.2485,-3.3825,-3.4009,-3.3972,-3.3825,-3.3807,-3.3807,-3.3807,-3.3807,-3.3807,-3.3807,-3.3807,-3.3807,-3.3807,-3.3807,-3.3807,-3.3807,-3.3807,-3.3807,-3.3807,-3.3807,-3.3807,-3.3807,-3.3807,-3.3807,-3.3788,-3.3855,-3.3863,-3.3826,-3.3067,-3.2407,-3.1784,-3.0742,-2.9957,-2.9382,-2.9167,-2.9051,-2.9005,-2.9005,-2.904,-2.9067,-2.9067,-2.9235,-2.9493,-2.9687,-2.979,-2.9856,-3.0025,-3.0075,-3.0122,-3.0349,-3.0288,-3.0,-2.93,-2.8396,-2.7486,-2.6774,-2.5923,-2.5308,-2.5308,-2.5308,-2.5308,-2.5308,-2.5308,-2.5308,-2.5308,-2.5308,-2.5308,-2.5308,-2.5308,-2.5293,-2.5317,-2.5372,-2.5444,-2.5486,-2.55,-2.5526,-2.5526,-2.557,-2.5628,-2.5628,-2.5662,-2.5703,-2.5703,-2.5703,-2.5683,-2.5683,-2.5683,-2.5658,-2.5573,-2.5573,-2.5551,-2.5473,-2.5473,-2.5453,-2.9005,-2.9005,-2.9005,-2.9005,-2.9299,-2.9042,-2.7008,-2.6549,-2.5742,-2.2868,-2.2336,-2.1987,-2.0729,-2.3171,-2.5521,-2.587,-2.901,-3.1672,-3.243,-3.3275,-3.3807,-3.3807,-3.3807,-3.3807,-3.3807,-3.3807,-3.3807,-3.3807,-3.3807,-3.3807,-3.3807,-3.3807,-3.3807,-3.3807,-3.3807,-3.3807,-3.3807,-3.3807,-3.3807,-3.3807,-3.3807,-3.3807,-3.3807,-3.3807,-3.3568,-3.3146,-3.2766,-3.1973,-3.0937,-3.0416,-2.9796,-2.9189,-2.9044,-2.9005,-2.9005,-2.9005,-2.9005,-2.9005,-2.9005,-2.9078,-2.9203,-2.9304,-2.9495,-2.9722,-2.9813,-2.9845,-2.9869,-3.0007,-3.003,-2.9934,-2.9515,-2.8474,-2.7426,-2.7,-2.6001,-2.5168,-2.5274,-2.5308,-2.5308,-2.5308,-2.5308,-2.5308,-2.5308,-2.5308,-2.5308,-2.5308,-2.5308,-2.5308,-2.5308,-2.5326,-2.5363,-2.5395,-2.5428,-2.5456,-2.5456,-2.552,-2.5551,-2.5551,-2.557,-2.5606,-2.5657,-2.5658,-2.5661,-2.5703,-2.5703,-2.5683,-2.5658,-2.5658,-2.5629,-2.5554,-2.5554,-2.5524,-2.9005,-2.9005,-2.9005,-2.9005,-2.9005,-2.8363,-2.5944,-2.5264,-2.4254,-2.1135,-2.0904,-2.0913,-1.9774,-2.218,-2.4365,-2.4456,-2.7769,-3.0607,-3.1305,-3.2632,-3.3605,-3.377,-3.3807,-3.3807,-3.3807,-3.3807,-3.3807,-3.3807,-3.3807,-3.3807,-3.3807,-3.3807,-3.3807,-3.3807,-3.3807,-3.3807,-3.3807,-3.3807,-3.3807,-3.3807,-3.3807,-3.3715,-3.3532,-3.3532,-3.3109,-3.2326,-3.2161,-3.1372,-3.0191,-3.0008,-2.9574,-2.9005,-2.9005,-2.9005,-2.9005,-2.9005,-2.9005,-2.9005,-2.9005,-2.9005,-2.9005,-2.9005,-2.9241,-2.9561,-2.9616,-2.9644,-2.9634,-2.9687,-2.9705,-2.9667,-2.9487,-2.8336,-2.711,-2.677,-2.5792,-2.5005,-2.516,-2.5182,-2.5192,-2.5224,-2.5248,-2.5253,-2.5284,-2.5308,-2.5308,-2.5308,-2.5308,-2.5308,-2.5308,-2.5308,-2.5308,-2.5308,-2.5342,-2.5376,-2.5376,-2.5444,-2.5488,-2.5488,-2.5484,-2.5511,-2.5588,-2.5598,-2.5611,-2.5682,-2.5683,-2.5703,-2.5703,-2.5703,-2.5662,-2.561,-2.561,-2.5594,-2.9005,-2.9005,-2.9005,-2.9005,-2.9005,-2.8363,-2.5944,-2.4824,-2.3584,-2.1025,-1.9987,-1.9719,-2.0272,-2.0694,-2.1905,-2.4824,-2.6282,-2.8062,-3.0993,-3.2155,-3.2968,-3.3715,-3.3807,-3.3807,-3.3807,-3.3807,-3.3807,-3.3807,-3.3807,-3.3807,-3.3807,-3.3807,-3.3807,-3.3807,-3.3807,-3.3807,-3.3807,-3.3807,-3.3807,-3.3807,-3.3807,-3.3421,-3.2711,-3.2711,-3.2284,-3.147,-3.0742,-3.0338,-3.0136,-2.9409,-2.9078,-2.9005,-2.9005,-2.9005,-2.9005,-2.9005,-2.9005,-2.9005,-2.9005,-2.9005,-2.9005,-2.9005,-2.9021,-2.9104,-2.9343,-2.9424,-2.9474,-2.9643,-2.9705,-2.9535,-2.8795,-2.7919,-2.6827,-2.5363,-2.4924,-2.4814,-2.4847,-2.4854,-2.4883,-2.4998,-2.5028,-2.5088,-2.5269,-2.5308,-2.5308,-2.5308,-2.5308,-2.5308,-2.5308,-2.5308,-2.5308,-2.5308,-2.5317,-2.5308,-2.5308,-2.5375,-2.5413,-2.5413,-2.5474,-2.5493,-2.552,-2.5564,-2.5603,-2.5605,-2.5662,-2.5703,-2.5703,-2.5703,-2.5703,-2.5683,-2.5683,-2.5659,-2.8877,-2.9005,-2.9005,-2.9005,-2.8638,-2.764,-2.5227,-2.3685,-2.2051,-1.9575,-1.8794,-1.8684,-1.9006,-1.985,-2.1098,-2.2932,-2.4713,-2.6484,-2.8264,-2.961,-3.0913,-3.2192,-3.2357,-3.2742,-3.3715,-3.3807,-3.3807,-3.3807,-3.3807,-3.3807,-3.3807,-3.3807,-3.3807,-3.3807,-3.3807,-3.3807,-3.3807,-3.3807,-3.3807,-3.3788,-3.3311,-3.2913,-3.2583,-3.21,-3.1439,-3.065,-3.0338,-2.9934,-2.9445,-2.9133,-2.9005,-2.9005,-2.9005,-2.9005,-2.9005,-2.9005,-2.9005,-2.9005,-2.9005,-2.9005,-2.9005,-2.9005,-2.9005,-2.9028,-2.9134,-2.9167,-2.9171,-2.927,-2.9283,-2.9097,-2.8282,-2.7102,-2.5865,-2.4864,-2.4615,-2.4654,-2.4775,-2.4804,-2.4825,-2.4876,-2.4871,-2.493,-2.5088,-2.5111,-2.5157,-2.5274,-2.5308,-2.5308,-2.5308,-2.5308,-2.5308,-2.5308,-2.5308,-2.5308,-2.5308,-2.5312,-2.5339,-2.5339,-2.5367,-2.5402,-2.5434,-2.5474,-2.551,-2.5545,-2.5563,-2.5601,-2.5636,-2.5636,-2.566,-2.5703,-2.5703,-2.5683,-2.8785,-2.9005,-2.9005,-2.9005,-2.8411,-2.7174,-2.474,-2.2969,-2.1096,-1.861,-1.7851,-1.7746,-1.8045,-1.8922,-2.005,-2.1433,-2.3202,-2.4905,-2.6264,-2.7627,-2.9033,-3.0509,-3.0687,-3.1311,-3.2926,-3.3513,-3.3807,-3.3807,-3.3807,-3.3807,-3.3807,-3.3807,-3.3807,-3.3807,-3.3807,-3.3807,-3.3807,-3.3807,-3.3678,-3.344,-3.2858,-3.2344,-3.1867,-3.1292,-3.0613,-2.9861,-2.9861,-2.9519,-2.9005,-2.9005,-2.9005,-2.9005,-2.9005,-2.9005,-2.9005,-2.9005,-2.9005,-2.9005,-2.9005,-2.9005,-2.9005,-2.9005,-2.9005,-2.9005,-2.9005,-2.9005,-2.9005,-2.9005,-2.8656,-2.8161,-2.7585,-2.6256,-2.4946,-2.4504,-2.4419,-2.4444,-2.4583,-2.4615,-2.4639,-2.47,-2.4716,-2.4756,-2.4904,-2.4937,-2.4993,-2.5132,-2.5149,-2.5149,-2.5149,-2.5187,-2.5214,-2.5214,-2.5264,-2.5308,-2.5308,-2.5308,-2.5308,-2.5308,-2.5308,-2.5327,-2.5371,-2.5391,-2.5421,-2.5479,-2.5481,-2.5511,-2.5566,-2.5566,-2.5604,-2.5662,-2.5662,-2.5683,-2.8785,-2.9005,-2.9005,-2.9005,-2.8411,-2.7174,-2.474,-2.2969,-2.1096,-1.861,-1.73,-1.6925,-1.7914,-1.7792,-1.8351,-2.0884,-2.1782,-2.3059,-2.5743,-2.6802,-2.7737,-2.8879,-2.9023,-2.9647,-3.1268,-3.2871,-3.3807,-3.3807,-3.3807,-3.3807,-3.3807,-3.3807,-3.3807,-3.3807,-3.3807,-3.3807,-3.3807,-3.3807,-3.3403,-3.2601,-3.2601,-3.1757,-3.0228,-3.0228,-2.9757,-2.9005,-2.9005,-2.9005,-2.9005,-2.9005,-2.9005,-2.9005,-2.9005,-2.9005,-2.9005,-2.9005,-2.9005,-2.9005,-2.9005,-2.9005,-2.9005,-2.9005,-2.9005,-2.9005,-2.9005,-2.9005,-2.9005,-2.9005,-2.7849,-2.662,-2.6602,-2.5419,-2.4208,-2.4199,-2.4199,-2.4199,-2.4218,-2.4199,-2.4275,-2.4461,-2.4503,-2.4578,-2.4768,-2.4804,-2.4804,-2.4804,-2.4804,-2.4804,-2.4804,-2.4923,-2.501,-2.501,-2.5173,-2.5308,-2.5308,-2.5308,-2.5308,-2.5308,-2.5308,-2.5308,-2.5308,-2.5352,-2.5394,-2.5394,-2.5477,-2.5491,-2.5491,-2.5491,-2.5541,-2.5602,-2.5602,-2.5635,-2.6722,-2.7184,-2.7354,-2.7354,-2.6741,-2.5609,-2.3565,-2.148,-1.938,-1.7295,-1.6184,-1.5675,-1.5994,-1.6429,-1.7692,-2.056,-2.1174,-2.2129,-2.4533,-2.623,-2.7598,-2.8536,-3.0813,-3.2485,-3.2981,-3.3495,-3.3807,-3.3807,-3.3807,-3.3807,-3.3807,-3.3807,-3.3807,-3.3807,-3.3807,-3.3807,-3.3807,-3.3807,-3.3403,-3.2583,-3.2045,-3.1219,-3.0173,-2.9629,-2.9244,-2.9005,-2.9005,-2.9005,-2.9005,-2.9005,-2.9005,-2.9005,-2.9005,-2.9005,-2.9005,-2.9005,-2.9005,-2.9005,-2.9005,-2.9005,-2.9005,-2.9005,-2.9005,-2.9005,-2.9005,-2.9005,-2.9005,-2.9005,-2.8235,-2.7291,-2.6741,-2.5805,-2.4879,-2.4318,-2.419,-2.419,-2.419,-2.419,-2.4218,-2.4275,-2.4294,-2.4357,-2.4551,-2.4591,-2.4639,-2.4782,-2.4804,-2.4804,-2.4804,-2.4835,-2.485,-2.485,-2.4916,-2.4993,-2.5088,-2.5094,-2.5094,-2.5094,-2.5094,-2.5157,-2.5284,-2.5327,-2.533,-2.533,-2.5346,-2.5383,-2.5434,-2.5434,-2.5477,-2.5539,-2.557,-2.5294,-2.482,-2.5851,-2.617,-2.5891,-2.5201,-2.4091,-2.2048,-1.9984,-1.798,-1.6209,-1.5157,-1.4639,-1.5031,-1.5417,-1.6606,-1.9418,-2.0018,-2.1074,-2.3771,-2.557,-2.7113,-2.853,-3.1174,-3.2837,-3.2671,-3.3218,-3.3508,-3.3314,-3.3314,-3.339,-3.3564,-3.3564,-3.3634,-3.3807,-3.3513,-3.3348,-3.3348,-3.3054,-3.2485,-3.1684,-3.1182,-3.0522,-2.9721,-2.9225,-2.9005,-2.9005,-2.9005,-2.9005,0.0,-2.9005,-2.9005,-2.9005,-2.9005,-2.9005,-2.9005,-2.9005,-2.9005,-2.9005,-2.9005,-2.9005,-2.9005,-2.9005,-2.8905,-2.8773,-2.8773,-2.8875,-2.9005,-2.9005,-2.8198,-2.7236,-2.6741,-2.5786,-2.4824,-2.4318,-2.419,-2.419,-2.419,-2.419,-2.419,-2.419,-2.419,-2.4247,-2.4366,-2.4393,-2.4436,-2.4543,-2.4567,-2.4567,-2.4567,-2.4639,-2.4685,-2.4685,-2.4753,-2.4799,-2.4804,-2.4872,-2.4911,-2.4911,-2.4911,-2.5005,-2.5173,-2.5198,-2.5219,-2.5303,-2.5308,-2.5327,-2.5367,-2.5391,-2.5266,-2.501,-2.5074,-2.4648,0.0,-2.4532,-2.4971,-2.4337,-2.3572,-2.2416,-2.0212,-1.8511,0.0,-1.5373,-1.4278,-1.3906,-1.4937,-1.4744,-1.5282,-1.79,-1.8654,-2.0084,-2.3467,-2.5068,-2.6716,-2.8973,-3.0576,-3.1326,-3.0962,-3.2274,-3.2968,-3.2534,-3.2501,-3.2697,-3.3139,-3.3154,-3.3332,-3.3734,-3.2897,-3.2475,-3.2601,-3.1781,-3.0956,-3.0155,-3.0131,-2.971,-2.897,-2.897,-2.8964,-2.9005,-2.9005,-2.9005,-2.9005,-2.9005,-2.9005,-2.9005,-2.9005,-2.9005,-2.9005,-2.9005,-2.9005,-2.9005,-2.9005,-2.8982,-2.8952,-2.8929,-2.8658,-2.835,-2.835,-2.8645,-2.8952,-2.8897,-2.7857,-2.673,-2.6557,-2.5456,-2.4337,-2.4226,-2.419,-2.419,-2.419,-2.419,-2.419,-2.419,-2.419,-2.419,-2.419,-2.419,-2.419,-2.419,-2.419,-2.419,-2.419,-2.4357,-2.4478,-2.4478,-2.4647,-2.4678,-2.4495,-2.4662,-2.4782,-2.4782,-2.4782,-2.4849,-2.4986,-2.4992,-2.5077,-2.5269,-2.5284,-2.5308,-2.5308,-2.5367,-2.4976,-2.4189,-2.4255,-2.3783,-1.8237,0.0,-2.0491,-2.0891,-2.042,-1.9508,0.0,-1.7107,-1.609,-1.4882,-1.3999,-1.3854,-1.5222,-1.4484,-1.4964,-1.8942,-1.92,-2.0183,-2.3847,-2.6828,-2.9406,-3.1431,-3.2025,-3.2192,-3.2115,-3.2435,-3.2616,-3.2517,-3.2501,-3.255,-3.2665,-3.2665,-3.2872,-3.3332,-3.1667,-3.1365,-3.2601,-3.1541,-3.059,-2.9743,-2.9471,-2.9076,-2.854,-2.854,-2.8707,-2.9005,-2.9005,-2.9005,-2.9005,-2.9005,-2.9005,-2.9005,-2.9005,-2.9005,-2.9005,-2.9005,-2.9005,-2.9005,-2.9005,-2.8797,-2.8502,-2.8242,-2.8088,-2.8024,-2.8024,-2.825,-2.8407,-2.781,-2.8026,-2.8014,-2.6164,-2.586,-2.5731,-2.4483,-2.419,-2.419,-2.419,-2.419,-2.419,-2.419,-2.419,-2.419,-2.419,-2.419,-2.419,-2.419,-2.419,-2.419,-2.419,-2.4247,-2.4266,-2.4266,-2.4312,-2.433,-2.4266,-2.4452,-2.4559,-2.4559,-2.4559,-2.4662,-2.4842,-2.4849,-2.491,-2.5077,-2.5219,-2.5308,-2.5308,-2.5317,-2.4917,-2.4135,-2.4186,-2.3391,-1.5605,-1.7487,-1.9373,-1.9436,-1.915,-1.8526,-1.7265,-1.6132,-1.5105,-1.4185,-1.3676,-1.3743,-1.4885,-1.4996,-1.5808,-1.8544,-2.0099,-2.2326,-2.6285,-2.8712,-3.0696,-3.2309,-3.2501,-3.2417,-3.2196,-3.2179,-3.2109,-3.1932,-3.1896,-3.1986,-3.2179,-3.2179,-3.2241,-3.2368,-3.096,-3.0713,-3.181,-3.0291,-2.9303,-2.8823,-2.8646,-2.8415,-2.817,-2.817,-2.8295,-2.8495,-2.8495,-2.8495,-2.8507,-2.8658,-2.862,-2.852,-2.887,-2.8893,-2.8749,-2.8929,-2.8875,-2.8719,-2.8719,-2.8476,-2.8143,-2.7968,-2.7783,-2.7619,-2.7619,-2.7747,-2.7844,-2.758,-2.7453,-2.7097,-2.5784,-2.5235,-2.4864,-2.4145,-2.3976,-2.4006,-2.417,-2.419,-2.419,-2.419,-2.419,-2.4151,-2.3996,-2.4094,-2.4151,-2.3996,-2.4094,-2.419,-2.419,-2.419,-2.419,-2.419,-2.419,-2.419,-2.419,-2.4303,-2.4357,-2.4357,-2.4357,-2.4444,-2.4654,-2.4662,-2.4741,-2.491,-2.509,-2.5163,-2.5163,-2.4879,-2.4312,-2.3494,-2.3134,-2.2268,-1.4445,-1.7208,-1.9575,-1.8504,-1.8302,-1.8008,-1.6519,-1.5223,-1.4149,-1.3532,-1.3498,-1.3896,-1.496,-1.6011,-1.7128,-1.8442,-2.1617,-2.5224,-2.8971,-3.0249,-3.115,-3.2195,-3.2299,-3.2144,-3.1751,-3.1715,-3.1565,-3.123,-3.119,-3.1351,-3.1696,-3.1715,-3.1585,-3.1303,-3.0464,-3.0178,-3.0517,-2.8724,-2.7811,-2.7811,-2.7754,-2.7754,-2.7811,-2.7811,-2.784,-2.7897,-2.7897,-2.7897,-2.7926,-2.821,-2.8156,-2.7968,-2.8589,-2.862,-2.8368,-2.87,-2.862,-2.8298,-2.8246,-2.8061,-2.7811,-2.7739,-2.7502,-2.721,-2.721,-2.721,-2.7288,-2.7619,-2.6753,-2.5649,-2.5371,-2.4357,-2.3419,-2.3591,-2.361,-2.3703,-2.3986,-2.4084,-2.4113,-2.4113,-2.4113,-2.4026,-2.3753,-2.3896,-2.3947,-2.3671,-2.3876,-2.4054,-2.4054,-2.4094,-2.4103,-2.4046,-2.4094,-2.4103,-2.4054,-2.4094,-2.4113,-2.4113,-2.417,-2.4275,-2.4444,-2.4486,-2.4575,-2.4753,-2.4904,-2.498,-2.501,-2.4368,-2.3616,-2.2751,-2.1882,-2.1037,-1.5054,-1.7202,-1.8437,-1.5822,-1.5646,-1.5723,-1.4243,-1.3735,-1.3549,-1.343,-1.3904,-1.5129,-1.7743,-1.7382,-1.7975,-2.1904,-2.4594,-2.686,-2.883,-3.0257,-3.1193,-3.1389,-3.1389,-3.137,-3.131,-3.1291,-3.1271,-3.121,-3.119,-3.123,-3.1291,-3.1291,-3.1146,-3.082,-2.9746,-2.9076,-2.8876,-2.7892,-2.7378,-2.7378,-2.7035,-2.7067,-2.7378,-2.7378,-2.7574,-2.7897,-2.7897,-2.7897,-2.7911,-2.7968,-2.7954,-2.7911,-2.8024,-2.8037,-2.7978,-2.8051,-2.8037,-2.7922,-2.7589,-2.7439,-2.735,-2.6987,-2.6841,-2.6791,-2.6791,-2.6791,-2.6791,-2.6857,-2.6753,-2.6264,-2.485,-2.4345,-2.4057,-2.3437,-2.3288,-2.33,-2.3346,-2.3577,-2.3785,-2.3785,-2.3785,-2.3764,-2.3703,-2.3511,-2.3335,-2.3271,-2.3323,-2.3357,-2.3357,-2.3599,-2.3671,-2.338,-2.3599,-2.366,-2.338,-2.361,-2.3785,-2.3785,-2.4036,-2.4209,-2.4247,-2.4419,-2.452,-2.4553,-2.4727,-2.4884,-2.501,-2.4221,-2.3436,-2.2611,-2.1741,-2.0876,-1.4116,-1.574,-1.6881,-1.5933,-1.7473,-1.9046,-1.8352,-1.7557,-1.6847,-1.6451,-1.6644,-1.7422,-1.9169,-1.9621,-2.1194,-2.5709,-2.6573,-2.752,-2.9873,-3.0429,-3.0751,-3.114,-3.119,-3.119,-3.119,-3.119,-3.119,-3.119,-3.119,-3.119,-3.119,-3.0818,-3.0357,-2.9812,-2.8847,-2.8082,-2.7518,-2.7159,-2.6988,-2.6971,-2.6791,-2.6808,-2.6988,-2.6988,-2.7067,-2.7257,-2.7257,-2.7257,-2.7272,-2.7502,-2.7439,-2.7286,-2.7739,-2.7768,-2.7592,-2.7592,-2.7592,-2.7515,-2.7115,-2.6988,-2.6955,-2.6758,-2.6691,-2.6691,-2.6691,-2.6691,-2.6691,-2.6691,-2.6441,-2.5977,-2.5192,-2.4427,-2.3817,-2.3624,-2.3255,-2.2984,-2.3153,-2.3323,-2.3426,-2.3426,-2.3426,-2.3369,-2.3189,-2.3177,-2.3141,-2.296,-2.3081,-2.32,-2.32,-2.3335,-2.3369,-2.323,-2.3346,-2.3369,-2.3212,-2.3346,-2.3577,-2.3955,-2.4103,-2.419,-2.419,-2.4284,-2.4348,-2.4348,-2.4545,-2.446,-2.4084,-2.336,-2.2576,-2.1764,-2.0893,-2.0275,-1.3659,-1.486,-1.613,-1.7196,-1.9249,-2.1113,-2.1637,-2.0454,-1.9203,-1.9164,-1.9299,-1.9655,-2.0403,-2.1924,-2.4205,-2.7638,-2.7655,-2.8095,-3.0581,-3.0598,-3.0565,-3.1123,-3.119,-3.119,-3.119,-3.119,-3.119,-3.119,-3.119,-3.1123,-3.0954,-3.0412,-2.9685,-2.8738,-2.8111,-2.7435,-2.6725,-2.6691,-2.6691,-2.6691,-2.6691,-2.6691,-2.6691,-2.6691,-2.6691,-2.6691,-2.6691,-2.6691,-2.6725,-2.7019,-2.6988,-2.6758,-2.7378,-2.7424,-2.7162,-2.7162,-2.7162,-2.7115,-2.6808,-2.6691,-2.6691,-2.6691,-2.6691,-2.6691,-2.6691,-2.6691,-2.6691,-2.6691,-2.6285,-2.5778,-2.5439,-2.4374,-2.3415,-2.3512,-2.3047,-2.2678,-2.2928,-2.3038,-2.3081,-2.3081,-2.3081,-2.3009,-2.2746,-2.2865,-2.289,-2.2634,-2.2815,-2.2989,-2.2989,-2.3033,-2.3057,-2.2989,-2.3051,-2.3081,-2.3081,-2.3081,-2.3335,-2.3927,-2.4036,-2.4054,-2.3976,-2.4036,-2.4084,-2.4084,-2.422,-2.4076,-2.358,-2.2663,-2.1901,-2.1293,-2.0232,-1.9756,-1.5063,-1.6011,-1.7128,-1.9237,-1.842,-1.7636,-1.971,-1.8488,-1.7501,-1.9507,-2.0517,-2.1258,-2.1992,-2.3902,-2.5473,-2.5778,-2.752,-2.9162,-3.0057,-3.0717,-3.114,-3.119,-3.119,-3.119,-3.119,-3.119,-3.119,-3.119,-3.119,-3.0903,-3.0226,-3.0123,-2.9413,-2.7925,-2.7841,-2.7435,-2.6725,-2.6691,-2.6691,-2.6691,-2.6691,-2.6691,-2.6691,-2.6691,-2.6691,-2.6691,-2.6691,-2.6691,-2.6691,-2.6725,-2.6725,-2.6708,-2.6758,-2.6775,-2.6741,-2.6741,-2.6741,-2.6741,-2.6708,-2.6691,-2.6691,-2.6691,-2.6691,-2.6691,-2.6691,-2.6691,-2.6691,-2.6691,-2.6657,-2.6319,-2.4931,-2.4,-2.3238,-2.2575,-2.2372,-2.2352,-2.2363,-2.255,-2.2733,-2.2733,-2.2733,-2.2733,-2.2708,-2.2514,-2.2349,-2.2335,-2.2349,-2.2363,-2.2363,-2.2577,-2.2652,-2.2388,-2.259,-2.2733,-2.2733,-2.2733,-2.2898,-2.3247,-2.3566,-2.3606,-2.3271,-2.3566,-2.3742,-2.3742,-2.3746,-2.3974,-2.441,-2.2803,-2.1988,-2.1909,-2.0331,-1.9609,-1.3261,-1.4759,-1.6451,-1.8189,-1.8696,-1.9456,-2.2175,-2.2513,-2.2479,-2.331,-2.3731,-2.3883,-2.3697,-2.5101,-2.6285,-2.6285,-2.7385,-2.8535,-2.9314,-3.0057,-3.0531,-3.0531,-3.092,-3.119,-3.119,-3.0784,-3.0531,-3.0531,-3.0091,-2.9721,-2.9433,-2.8939,-2.8398,-2.7824,-2.735,-2.6979,-2.6691,-2.6691,-2.6691,-2.6691,-2.6691,-2.6691,-2.6691,-2.6691,-2.6691,-2.6691,-2.6691,-2.6691,-2.6691,-2.6691,-2.6691,-2.6691,-2.6691,-2.6691,-2.6691,-2.6691,-2.6691,-2.6691,-2.6691,-2.6691,-2.6691,-2.6691,-2.6691,-2.6691,-2.6691,-2.6691,-2.6691,-2.6691,-2.6691,-2.6471,-2.5456,-2.4628,-2.3898,-2.3156,-2.2632,-2.2296,-2.2296,-2.2374,-2.245,-2.245,-2.245,-2.245,-2.245,-2.2377,-2.2296,-2.2296,-2.2296,-2.2296,-2.2296,-2.2388,-2.2412,-2.231,-2.2402,-2.245,-2.245,-2.245,-2.2504,-2.262,-2.3117,-2.3335,-2.32,-2.3323,-2.3392,-2.3392,-2.3392,-2.3347,-2.3251,-2.2109,-2.1384,-2.1042,-1.9926,-1.9402,-1.3261,-1.4783,-1.6712,-1.8437,-1.9625,-2.1096,-2.3864,-2.4526,-2.4815,-2.5761,-2.5575,-2.5169,-2.4897,-2.5489,-2.6065,-2.6302,-2.7164,-2.7993,-2.8535,-2.9262,-2.9837,-3.0074,-3.0548,-3.0937,-3.1173,-3.0531,-3.0108,-3.0108,-2.9414,-2.8891,-2.8619,-2.8094,-2.7689,-2.7452,-2.6962,-2.6691,-2.6691,-2.6691,-2.6691,-2.6691,-2.6691,-2.6691,-2.6691,-2.6691,-2.6691,-2.6691,-2.6691,-2.6691,-2.6691,-2.6691,-2.6691,-2.6691,-2.6691,-2.6691,-2.6691,-2.6691,-2.6691,-2.6691,-2.6691,-2.6691,-2.6691,-2.6691,-2.6691,-2.6691,-2.6691,-2.6691,-2.6691,-2.6691,-2.6691,-2.6471,-2.5507,-2.488,-2.4254,-2.3274,-2.2682,-2.2296,-2.2296,-2.2296,-2.2296,-2.2296,-2.2296,-2.2296,-2.2296,-2.2296,-2.2296,-2.2296,-2.2296,-2.2296,-2.2296,-2.2296,-2.2296,-2.2296,-2.2296,-2.2296,-2.2296,-2.2296,-2.2296,-2.2296,-2.2686,-2.292,-2.292,-2.3002,-2.3045,-2.3045,-2.3045,-2.2941,-2.2722,-2.1675,-2.103,-2.0722,-1.9699,-1.9227,-1.5757,-1.6661,-1.8352,-2.0598,-2.1207,-2.1817,-2.4,-2.3376,-2.3158,-2.6099,-2.554,-2.4745,-2.5473,-2.5015,-2.4762,-2.5474,-2.6826,-2.779,-2.779,-2.8484,-2.9264,-2.9989,-3.0072,-3.0378,-3.1106,-3.0514,-3.0072,-3.0072,-2.9381,-2.8619,-2.7824,-2.779,-2.7452,-2.6708,-2.6691,-2.6691,-2.6691,-2.6691,-2.6691,-2.6691,-2.6691,-2.6691,-2.6691,-2.6691,-2.6691,-2.6691,-2.6691,-2.6691,-2.6691,-2.6691,-2.6691,-2.6691,-2.6691,-2.6691,-2.6691,-2.6691,-2.6691,-2.6691,-2.6691,-2.6691,-2.6691,-2.6691,-2.6691,-2.6691,-2.6691,-2.6691,-2.6691,-2.6691,-2.6691,-2.6353,-2.488,-2.4508,-2.4135,-2.2649,-2.2296,-2.2296,-2.2296,-2.2296,-2.2296,-2.2296,-2.2296,-2.2296,-2.2296,-2.2296,-2.2296,-2.2296,-2.2296,-2.2296,-2.2296,-2.2296,-2.2296,-2.2296,-2.2296,-2.2296,-2.2296,-2.2296,-2.2296,-2.2296,-2.2296,-2.2296,-2.2296,-2.2563,-2.2695,-2.2695,-2.2695,-2.286,-2.3189,-2.166,-2.1041,-2.1264,-1.9723,-1.9111,-1.2795,-1.5071,-1.7952,-1.864,-2.1566,-2.4475,-2.5118,-2.4949,-2.5033,-2.6404,-2.6352,-2.5947,-2.5659,-2.5845,-2.5947,-2.5659,-2.6404,-2.7029,-2.7029,-2.7689,-2.8229,-2.8466,-2.8991,-2.9416,-2.9636,-2.8941,-2.8483,-2.8483,-2.7807,-2.7283,-2.7046,-2.7029,-2.6928,-2.6725,-2.6691,-2.6691,-2.6691,-2.6691,-2.6691,-2.6691,-2.6691,-2.6691,-2.6691,-2.6691,-2.6691,-2.6691,-2.6691,-2.6691,-2.6691,-2.6691,-2.6691,-2.6691,-2.6691,-2.6691,-2.6691,-2.6691,-2.6691,-2.6691,-2.6691,-2.6691,-2.6691,-2.6691,-2.6691,-2.6691,-2.6691,-2.6691,-2.6691,-2.6691,-2.6691,-2.6471,-2.5524,-2.4897,-2.4135,-2.2649,-2.2296,-2.2296,-2.2296,-2.2296,-2.2296,-2.2296,-2.2296,-2.2296,-2.2296,-2.2296,-2.2194,-2.1869,-2.1809,-2.1809,-2.1809,-2.1809,-2.1928,-2.2268,-2.2296,-2.2296,-2.2296,-2.2296,-2.2296,-2.2296,-2.2296,-2.2296,-2.2296,-2.2374,-2.2426,-2.2426,-2.2426,-2.2567,-2.286,-2.1817,-2.1218,-2.0995,-1.9969,-1.9353,-1.5561,-1.7946,-2.0602,-2.1194,-2.3257,-2.5321,-2.5896,-2.6048,-2.6167,-2.6607,-2.6471,-2.6218,-2.6065,-2.6167,-2.6201,-2.6065,-2.6404,-2.6691,-2.6691,-2.708,-2.7469,-2.7773,-2.8052,-2.8364,-2.8649,-2.7794,-2.7199,-2.7199,-2.6519,-2.6105,-2.6105,-2.6105,-2.6105,-2.6105,-2.6105,-2.621,-2.6419,-2.6419,-2.6419,-2.6419,-2.6419,-2.6298,-2.6123,-2.6522,-2.6607,-2.6419,-2.6419,-2.6298,-2.6123,-2.6315,-2.6298,-2.6105,-2.6105,-2.6105,-2.6105,-2.6105,-2.6105,-2.6105,-2.6105,-2.6105,-2.6105,-2.6105,-2.6105,-2.6105,-2.6105,-2.6105,-2.6105,-2.6105,-2.6105,-2.5873,-2.4879,-2.4282,-2.3749,-2.2931,-2.2499,-2.2296,-2.2296,-2.2149,-2.2017,-2.2017,-2.1884,-2.1825,-2.1988,-2.2017,-2.1928,-2.1643,-2.146,-2.1353,-2.1353,-2.1353,-2.1538,-2.1957,-2.1886,-2.1857,-2.2003,-2.1886,-2.184,-2.2017,-2.1869,-2.1871,-2.2017,-2.2194,-2.2296,-2.2296,-2.2296,-2.2374,-2.2537,-2.1773,-2.1305,-2.1113,-2.0033,-1.9457,-2.1062,-2.2919,-2.4643,-2.6065,-2.554,-2.5049,-2.6387,-2.6691,-2.6691,-2.6691,-2.6167,-2.5913,-2.6573,-2.615,-2.593,-2.659,-2.6657,-2.6641,-2.6641,-2.659,-2.6808,-2.7481,-2.7188,-2.7194,-2.7855,-2.6886,-2.6198,-2.6198,-2.5589,-2.5202,-2.5202,-2.5202,-2.5202,-2.5202,-2.5202,-2.543,-2.5924,-2.5924,-2.5924,-2.5924,-2.5924,-2.567,-2.524,-2.6141,-2.6332,-2.5924,-2.5924,-2.5652,-2.524,-2.5742,-2.5633,-2.5202,-2.5202,-2.5202,-2.5202,-2.5202,-2.5202,-2.5202,-2.5202,-2.5202,-2.5202,-2.5202,-2.5202,-2.5202,-2.5202,-2.5202,-2.5202,-2.5202,-2.5202,-2.4913,-2.3631,-2.3215,-2.315,-2.3326,-2.2752,-2.218,-2.218,-2.1855,-2.1536,-2.1536,-2.1244,-2.1134,-2.1476,-2.1536,-2.1521,-2.1491,-2.1134,-2.0894,-2.0926,-2.0943,-2.1086,-2.1491,-2.1213,-2.115,-2.1506,-2.1213,-2.115,-2.1521,-2.1197,-2.1166,-2.1521,-2.1959,-2.2194,-2.2237,-2.2237,-2.2268,-2.2296,-2.163,-2.1356,-2.1428,-2.0102,-1.9578,-1.6363,-1.9418,-2.2987,-2.3883,-2.5169,-2.6319,-2.6623,-2.6691,-2.6691,-2.6691,-2.6573,-2.6505,-2.6657,-2.6573,-2.6522,-2.6674,-2.6384,-2.6156,-2.6156,-2.5799,-2.5572,-2.5735,-2.5656,-2.5663,-2.5828,-2.5599,-2.5445,-2.5445,-2.5282,-2.5202,-2.5202,-2.5202,-2.5202,-2.5202,-2.5202,-2.5259,-2.5373,-2.5373,-2.5373,-2.5373,-2.5373,-2.5316,-2.5221,-2.5414,-2.5468,-2.5373,-2.5373,-2.5316,-2.5221,-2.5316,-2.5297,-2.5202,-2.5202,-2.5202,-2.5202,-2.5202,-2.5202,-2.5202,-2.5202,-2.5202,-2.5202,-2.5202,-2.5202,-2.5202,-2.5202,-2.5202,-2.5202,-2.5202,-2.5202,-2.5122,-2.4833,-2.3935,-2.3106,-2.3136,-2.2199,-2.1276,-2.1276,-2.1197,-2.1118,-2.1118,-2.1055,-2.1039,-2.1102,-2.1118,-2.1007,-2.0649,-2.0227,-2.0087,-2.0399,-2.0449,-2.0616,-2.1086,-2.1039,-2.1039,-2.1118,-2.1039,-2.1039,-2.1118,-2.1039,-2.1039,-2.1118,-2.1229,-2.1431,-2.1733,-2.1749,-2.1928,-2.2296,-2.2127,-2.1793,-2.1249,-2.0943,-2.06,-1.7278,-1.9937,-2.258,-2.3935,-2.5121,-2.5982,-2.5982,-2.5982,-2.5982,-2.5982,-2.6192,-2.6367,-2.6367,-2.6157,-2.5982,-2.5982,-2.5781,-2.5615,-2.5615,-2.5373,-2.5202,-2.5202,-2.4973,-2.4831,-2.4831,-2.4592,-2.443,-2.443,-2.443,-2.443,-2.443,-2.443,-2.443,-2.443,-2.443,-2.4572,-2.4796,-2.4831,-2.4831,-2.4831,-2.4831,-2.4677,-2.445,-2.4712,-2.4831,-2.4831,-2.4831,-2.4672,-2.445,-2.4697,-2.4672,-2.443,-2.443,-2.443,-2.443,-2.443,-2.443,-2.443,-2.443,-2.443,-2.443,-2.443,-2.443,-2.443,-2.443,-2.443,-2.443,-2.443,-2.443,-2.4373,-2.4078,-2.3452,-2.275,-2.2102,-2.147,-2.0991,-2.0991,-2.0829,-2.0666,-2.0666,-2.0515,-2.0431,-2.0616,-2.0666,-2.0583,-2.0348,-1.9947,-1.9782,-1.9982,-2.0017,-2.0176,-2.0632,-2.0482,-2.0448,-2.0649,-2.0482,-2.0448,-2.0649,-2.0482,-2.0465,-2.0649,-2.0482,-2.0665,-2.1291,-2.1306,-2.1538,-2.1957,-2.1957,-2.1891,-2.1718,-2.136,-2.1049,-1.8651,-2.0873,-2.2535,-2.4679,-2.5202,-2.5202,-2.5202,-2.5202,-2.5202,-2.5202,-2.5542,-2.587,-2.587,-2.5503,-2.5202,-2.5202,-2.5125,-2.5067,-2.5067,-2.4973,-2.4914,-2.4914,-2.4532,-2.4266,-2.4266,-2.3858,-2.3595,-2.3595,-2.3595,-2.3595,-2.3595,-2.3595,-2.3595,-2.3595,-2.3595,-2.3815,-2.4261,-2.4266,-2.4266,-2.4266,-2.4266,-2.4032,-2.3616,-2.4053,-2.4266,-2.4266,-2.4266,-2.4012,-2.3638,-2.4074,-2.3991,-2.3595,-2.3595,-2.3595,-2.3595,-2.3595,-2.3595,-2.3595,-2.3595,-2.3595,-2.3595,-2.3595,-2.3595,-2.3595,-2.3595,-2.3595,-2.3595,-2.3595,-2.3595,-2.346,-2.2868,-2.2613,-2.2224,-2.0991,-2.0749,-2.078,-2.078,-2.0482,-2.021,-2.021,-1.9927,-1.9818,-2.0141,-2.021,-2.021,-2.021,-1.9909,-1.9708,-1.9708,-1.9708,-1.9836,-2.0158,-1.9909,-1.9821,-2.0176,-1.9892,-1.9839,-2.0176,-1.9892,-1.9839,-2.0193,-1.9874,-2.0032,-2.0764,-2.0845,-2.1086,-2.1491,-2.1567,-2.1764,-2.2061,-2.1527,-2.1224,-1.3827,-1.7591,-2.1973,-2.4551,-2.5202,-2.5202,-2.5202,-2.5202,-2.5202,-2.5202,-2.5259,-2.5316,-2.5316,-2.5259,-2.5202,-2.5202,-2.4812,-2.4511,-2.4511,-2.4116,-2.3815,-2.3815,-2.3752,-2.3724,-2.3724,-2.3638,-2.3595,-2.3595,-2.3595,-2.3595,-2.3595,-2.3595,-2.3595,-2.3595,-2.3595,-2.3638,-2.3724,-2.3724,-2.3724,-2.3724,-2.3724,-2.3681,-2.3595,-2.3681,-2.3724,-2.3724,-2.3724,-2.3659,-2.3595,-2.3681,-2.3659,-2.3595,-2.3595,-2.3595,-2.3595,-2.3595,-2.3595,-2.3595,-2.3595,-2.3595,-2.3595,-2.3595,-2.3595,-2.3595,-2.3595,-2.3595,-2.3595,-2.3595,-2.3595,-2.346,-2.2868,-2.2283,-2.1635,-2.0868,-2.0275,-1.9871,-1.9871,-1.9836,-1.9782,-1.9782,-1.9729,-1.9711,-1.9764,-1.9782,-1.9782,-1.9782,-1.9729,-1.9708,-1.9708,-1.9708,-1.9711,-1.9764,-1.9729,-1.9711,-1.9782,-1.9729,-1.9711,-1.9782,-1.9744,-1.9711,-1.9782,-1.9744,-1.9747,-1.9871,-2.021,-2.0616,-2.1071,-2.143,-2.1445,-2.1182,-2.1439,-2.136,-1.4228,-1.7649,-2.0982,-2.3648,-2.4307,-2.4307,-2.4307,-2.4307,-2.4307,-2.4307,-2.4307,-2.4389,-2.4712,-2.4511,-2.4307,-2.4307,-2.4116,-2.3948,-2.3948,-2.3745,-2.3595,-2.3595,-2.3595,-2.3595,-2.3595,-2.3595,-2.3595,-2.3595,-2.3595,-2.3595,-2.3595,-2.3595,-2.3595,-2.3595,-2.3595,-2.3595,-2.3595,-2.3595,-2.3595,-2.3595,-2.3595,-2.3595,-2.3595,-2.3595,-2.3595,-2.3595,-2.3595,-2.3595,-2.3595,-2.3595,-2.3595,-2.3595,-2.3595,-2.3595,-2.3595,-2.3595,-2.3595,-2.3595,-2.3595,-2.3595,-2.3595,-2.3595,-2.3595,-2.3595,-2.3595,-2.3595,-2.3595,-2.3595,-2.3595,-2.3535,-2.3266,-2.2981,-2.2517,-2.15,-2.1036,-2.0602,-1.9872,-1.9708,-1.9708,-1.9708,-1.9708,-1.9708,-1.9708,-1.9708,-1.9708,-1.9708,-1.9708,-1.9708,-1.9708,-1.9708,-1.9708,-1.9708,-1.9708,-1.9708,-1.9708,-1.9708,-1.9708,-1.9708,-1.9708,-1.9708,-1.9708,-1.9708,-1.9708,-1.9708,-1.9874,-2.0191,-2.06,-2.0797,-2.091,-2.0991,-2.1181,-2.1166,-1.3964,-1.6533,-1.8704,-2.1814,-2.2742,-2.2996,-2.349,-2.3595,-2.3595,-2.3595,-2.3595,-2.3709,-2.4116,-2.3879,-2.3595,-2.3595,-2.3595,-2.3595,-2.3595,-2.3595,-2.3595,-2.3595,-2.3595,-2.3595,-2.3595,-2.3595,-2.3595,-2.3595,-2.3595,-2.3595,-2.3595,-2.3595,-2.3595,-2.3595,-2.3595,-2.3595,-2.3595,-2.3595,-2.3595,-2.3595,-2.3595,-2.3595,-2.3595,-2.3595,-2.3595,-2.3595,-2.3595,-2.3595,-2.3595,-2.3595,-2.3595,-2.3595,-2.3595,-2.3595,-2.3595,-2.3595,-2.3595,-2.3595,-2.3595,-2.3595,-2.3595,-2.3595,-2.3595,-2.3595,-2.3595,-2.3595,-2.3595,-2.3595,-2.3595,-2.3565,-2.34,-2.337,-2.3041,-2.1754,-2.1455,-2.1126,-1.9962,-1.9708,-1.9708,-1.9708,-1.9708,-1.9708,-1.9708,-1.9708,-1.9708,-1.9708,-1.9708,-1.9708,-1.9708,-1.9708,-1.9708,-1.9708,-1.9708,-1.9708,-1.9708,-1.9708,-1.9708,-1.9708,-1.9708,-1.9708,-1.9708,-1.9708,-1.9708,-1.9708,-1.9708,-1.9839,-2.0158,-2.0246,-2.0416,-2.0665,-2.078,-2.0764,-1.0364,-1.2104,0.0,-1.8779,-2.0378,-2.1316,-2.3176,-2.3595,-2.3595,-2.3595,-2.3595,-2.3595,-2.3638,-2.3616,-2.3595,-2.3595,-2.3595,-2.3595,-2.3595,-2.3595,-2.3595,-2.3595,-2.3595,-2.3595,-2.3595,-2.3595,-2.3595,-2.3595,-2.3595,-2.3595,-2.3595,-2.3595,-2.3595,-2.3595,-2.3595,-2.3595,-2.3595,-2.3595,-2.3595,-2.3595,-2.3595,-2.3595,-2.3595,-2.3595,-2.3595,-2.3595,-2.3595,-2.3595,-2.3595,-2.3595,-2.3595,-2.3595,-2.3595,-2.3595,-2.3595,-2.3595,-2.3595,-2.3595,-2.3595,-2.3595,-2.3595,-2.3595,-2.3595,-2.3595,-2.3595,-2.3595,-2.3595,-2.3595,-2.3595,-2.346,-2.2897,-2.2748,-2.2418,-2.1062,-2.0748,-2.0572,-1.9839,-1.9708,-1.9708,-1.9708,-1.9708,-1.9708,-1.9708,-1.9708,-1.9708,-1.9708,-1.9708,-1.9708,-1.9708,-1.9708,-1.9708,-1.9708,-1.9708,-1.9708,-1.9708,-1.9708,-1.9708,-1.9708,-1.9708,-1.9708,-1.9708,-1.9708,-1.9708,-1.9708,-1.9708,-1.9711,-1.9729,-2.0106,-2.0106,-1.9782,-2.0158,-2.0124,-0.9612,0.0,0.0,-1.5829,-1.8313,-2.0228,-2.0951,-2.2398,-2.3595,-2.3595,-2.3595,-2.3595,-2.3595,-2.3595,-2.3595,-2.3595,-2.3595,-2.3595,-2.3595,-2.3595,-2.3595,-2.3595,-2.3595,-2.3595,-2.3595,-2.3595,-2.3595,-2.3595,-2.3595,-2.3595,-2.3595,-2.3595,-2.3595,-2.3595,-2.3595,-2.3595,-2.3595,-2.3595,-2.3595,-2.3595,-2.3595,-2.3595,-2.3595,-2.3595,-2.3595,-2.3595,-2.3595,-2.3595,-2.3595,-2.3595,-2.3595,-2.3595,-2.3595,-2.3595,-2.3595,-2.3595,-2.3595,-2.3595,-2.3595,-2.3595,-2.3595,-2.3595,-2.3595,-2.3595,-2.3595,-2.3595,-2.3595,-2.3595,-2.3595,-2.355,-2.3325,-2.3002,-2.2358,-2.1017,-2.0378,-1.9989,-1.9753,-1.9708,-1.9708,-1.9708,-1.9708,-1.9708,-1.9708,-1.9708,-1.9708,-1.9708,-1.9708,-1.9708,-1.9708,-1.9708,-1.9708,-1.9708,-1.9708,-1.9708,-1.9708,-1.9708,-1.9708,-1.9708,-1.9708,-1.9708,-1.9708,-1.9708,-1.9708,-1.9708,-1.9708,-1.9708,-1.9708,-1.9839,-1.9839,-1.9693,-1.9839,-1.9839,-0.7915,-0.933,0.0,-1.3523,-1.5604,-1.7641,-1.9872,-2.1385,-2.2532,-2.3415,-2.3595,-2.3595,-2.3595,-2.3595,-2.3595,-2.3595,-2.3595,-2.3595,-2.3595,-2.3595,-2.3595,-2.3595,-2.3595,-2.3595,-2.3595,-2.3595,-2.3595,-2.3595,-2.3595,-2.3595,-2.3595,-2.3595,-2.3595,-2.3595,-2.3595,-2.3595,-2.3595,-2.3595,-2.3595,-2.3595,-2.3595,-2.3595,-2.3595,-2.3595,-2.3595,-2.3595,-2.3595,-2.3595,-2.3595,-2.3595,-2.3595,-2.3595,-2.3595,-2.3595,-2.3595,-2.3595,-2.3595,-2.3595,-2.3595,-2.3595,-2.3595,-2.3595,-2.3595,-2.3595,-2.3595,-2.3595,-2.3595,-2.3595,-2.3595,-2.3595,-2.3595,-2.2981,-2.2149,-2.1261,-2.0348,-1.9708,-1.9708,-1.9708,-1.9708,-1.9708,-1.9708,-1.9708,-1.9708,-1.9708,-1.9708,-1.9708,-1.9708,-1.9708,-1.9708,-1.9708,-1.9708,-1.9708,-1.9708,-1.9708,-1.9708,-1.9708,-1.9708,-1.9708,-1.9708,-1.9708,-1.9708,-1.9708,-1.9708,-1.9708,-1.9708,-1.9708,-1.9708,-1.9708,-1.9708,-1.9708,-1.9708,-1.9708,0.0,0.0,0.0,-1.1801,-1.2175,-1.3436,-1.9914,-2.0427,-2.0292,-2.2936,-2.3475,-2.349,-2.358,-2.3595,-2.3595,-2.3595,-2.3595,-2.3595,-2.3595,-2.3595,-2.3595,-2.3595,-2.3595,-2.3595,-2.3595,-2.3595,-2.3595,-2.3595,-2.3595,-2.3595,-2.3595,-2.3595,-2.3595,-2.3595,-2.3595,-2.3595,-2.3595,-2.3595,-2.3595,-2.3595,-2.3595,-2.3595,-2.3595,-2.3595,-2.3595,-2.3595,-2.3595,-2.3595,-2.3595,-2.3595,-2.3595,-2.3595,-2.3595,-2.3595,-2.3595,-2.3595,-2.3595,-2.3595,-2.3595,-2.3595,-2.3595,-2.3595,-2.3595,-2.3595,-2.3595,-2.3595,-2.3595,-2.3595,-2.3595,-2.3595,-2.358,-2.2637,-2.1695,-2.168,-2.0647,-1.9708,-1.9708,-1.9708,-1.9708,-1.9708,-1.9708,-1.9708,-1.9708,-1.9708,-1.9708,-1.9708,-1.9708,-1.9708,-1.9708,-1.9708,-1.9708,-1.9708,-1.9708,-1.969,-1.969,-1.969,-1.969,-1.969,-1.969,-1.9708,-1.9708,-1.9708,-1.9708,-1.9708,-1.9708,-1.9708,-1.9708,-1.9708,-1.9708,-1.9708,-1.9708,-1.9708,-0.5087,0.0,0.0,0.0,0.0,0.0,-1.3289,-1.4649,-1.6443,-2.0034,-2.0378,-2.0782,-2.3161,-2.3595,-2.3595,-2.3595,-2.3595,-2.3595,-2.3595,-2.3595,-2.3595,-2.3595,-2.3595,-2.3595,-2.3595,-2.3595,-2.3595,-2.3595,-2.3595,-2.3595,-2.3595,-2.3595,-2.3595,-2.3595,-2.3595,-2.3595,-2.3595,-2.3595,-2.3595,-2.3595,-2.3595,-2.3595,-2.3595,-2.3595,-2.3595,-2.3595,-2.3595,-2.3595,-2.3595,-2.3595,-2.3595,-2.3595,-2.3595,-2.3595,-2.3595,-2.3595,-2.3595,-2.3595,-2.3595,-2.3595,-2.3595,-2.3595,-2.3595,-2.3595,-2.3595,-2.3595,-2.3595,-2.3595,-2.3595,-2.349,-2.3062,-2.2343,-2.1575,-2.1096,-2.0318,-1.9708,-1.9708,-1.9708,-1.9708,-1.9708,-1.9708,-1.9708,-1.9708,-1.9708,-1.9708,-1.9708,-1.9708,-1.9708,-1.9708,-1.9708,-1.9708,-1.9708,-1.9708,-1.9548,-1.9151,-1.9479,-1.953,-1.9151,-1.9479,-1.9708,-1.9708,-1.9708,-1.9708,-1.9708,-1.9708,-1.9708,-1.9708,-1.9708,-1.9708,-1.9708,-1.9708,-1.9708,-0.5576,-0.6099,-0.6936,-0.7107,0.0,0.0,-1.2844,-1.3961,-1.556,-2.0333,-2.1021,-2.1335,-2.3251,-2.3595,-2.3595,-2.3595,-2.3595,-2.3595,-2.3595,-2.3595,-2.3595,-2.3595,-2.3595,-2.3595,-2.3595,-2.3595,-2.3595,-2.3595,-2.3595,-2.3595,-2.3595,-2.3595,-2.3595,-2.3595,-2.3595,-2.3595,-2.3595,-2.3595,-2.3595,-2.3595,-2.3595,-2.3595,-2.3595,-2.3595,-2.3595,-2.3595,-2.3595,-2.3595,-2.3595,-2.3595,-2.3595,-2.3595,-2.3595,-2.3595,-2.3595,-2.3595,-2.3595,-2.3595,-2.3595,-2.3595,-2.3595,-2.3595,-2.3595,-2.3595,-2.3595,-2.3595,-2.3595,-2.3595,-2.3595,-2.352,-2.3182,-2.2613,-2.1934,-2.1276,-2.0602,-2.0034,-1.9768,-1.9708,-1.9708,-1.9708,-1.9708,-1.9708,-1.9708,-1.9708,-1.9708,-1.9708,-1.9708,-1.9708,-1.9708,-1.9708,-1.9708,-1.9708,-1.9708,-1.9479,-1.8949,-1.9387,-1.946,-1.893,-1.9406,-1.9708,-1.9708,-1.9479,-1.9369,-1.9369,-1.9369,-1.9479,-1.9708,-1.9708,-1.9708,-1.9708,-1.9708,-1.9708,-0.6526,-0.6616,-0.7398,-0.8507,-0.7503,0.0,-1.483,-1.5111,-1.547,-2.0946,-2.2084,-2.2188,-2.2562,-2.2682,-2.2727,-2.2727,-2.2966,-2.3266,-2.3565,-2.3595,-2.3595,-2.3595,-2.3595,-2.3595,-2.3595,-2.3595,-2.3595,-2.3595,-2.3595,-2.3595,-2.3595,-2.3595,-2.3595,-2.3595,-2.3595,-2.3595,-2.3595,-2.3595,-2.3595,-2.3595,-2.3595,-2.3595,-2.3595,-2.3595,-2.3595,-2.3595,-2.3595,-2.3595,-2.3595,-2.3595,-2.3595,-2.3595,-2.3595,-2.3595,-2.3595,-2.3595,-2.3595,-2.3595,-2.3595,-2.3595,-2.3595,-2.3595,-2.3595,-2.3595,-2.3595,-2.3595,-2.3595,-2.3595,-2.3595,-2.3595,-2.3595,-2.3152,-2.2553,-2.1934,-2.1246,-2.0543,-1.9929,-1.9753,-1.9708,-1.9708,-1.9708,-1.9708,-1.9708,-1.9708,-1.9708,-1.9708,-1.9708,-1.9708,-1.9708,-1.9708,-1.9708,-1.9708,-1.9708,-1.9479,-1.8949,-1.935,-1.9387,-1.8855,-1.9314,-1.9603,-1.9603,-1.9151,-1.8893,-1.8893,-1.8893,-1.9132,-1.9603,-1.9672,-1.9708,-1.9708,-1.9708,-1.9708,0.0,0.0,0.0,0.0,-0.8207,0.0,-0.8229,-0.8318,-0.9231,-1.1999,-1.2568,-1.3376,-1.6024,-1.6967,-1.7312,-1.7312,-1.9094,-2.1186,-2.3295,-2.3595,-2.3595,-2.3595,-2.3595,-2.3595,-2.3595,-2.3595,-2.3595,-2.3595,-2.3595,-2.3595,-2.3595,-2.3595,-2.3595,-2.3595,-2.3595,-2.3595,-2.3595,-2.3595,-2.3595,-2.3595,-2.3595,-2.3595,-2.3595,-2.3595,-2.3595,-2.3595,-2.3595,-2.3595,-2.3595,-2.3595,-2.3595,-2.3595,-2.3595,-2.3595,-2.3595,-2.3595,-2.3595,-2.3595,-2.3595,-2.3595,-2.3595,-2.3595,-2.3595,-2.3595,-2.3595,-2.3595,-2.3595,-2.3595,-2.3595,-2.3595,-2.3595,-2.3152,-2.2658,-2.2538,-2.1575,-2.0658,-2.0524,-2.0079,-1.9708,-1.9708,-1.9708,-1.9708,-1.9708,-1.9708,-1.9708,-1.9708,-1.9708,-1.9708,-1.9708,-1.9708,-1.9708,-1.9708,-1.9708,-1.9479,-1.8949,-1.9006,-1.8836,-1.8302,-1.8746,-1.9062,-1.9062,-1.8968,-1.8893,-1.8893,-1.8893,-1.8949,-1.9062,-1.9479,-1.9708,-1.9708,-1.9708,-1.9708,0.0,0.0,0.0,-0.8402,0.0,0.0,0.0,-0.8746,-0.9074,-1.2198,-1.2261,-1.235,-1.4344,-1.4884,-1.5049,-1.5049,-1.758,-1.9545,-1.9515,-2.1874,-2.3595,-2.3595,-2.3595,-2.3595,-2.3595,-2.3595,-2.3595,-2.3595,-2.3595,-2.3595,-2.3595,-2.3595,-2.3595,-2.3595,-2.3595,-2.3595,-2.3595,-2.3595,-2.3595,-2.3595,-2.3595,-2.3595,-2.3595,-2.3595,-2.3595,-2.3595,-2.3595,-2.3595,-2.3595,-2.3595,-2.3595,-2.3595,-2.3595,-2.3595,-2.3595,-2.3595,-2.3595,-2.3595,-2.3595,-2.3595,-2.3595,-2.3595,-2.3595,-2.3595,-2.3595,-2.3595,-2.3595,-2.3595,-2.3595,-2.3595,-2.3595,-2.337,-2.3077,-2.2763,-2.1939,-2.1111,-2.0763,-2.0168,-1.9708,-1.9708,-1.9708,-1.9708,-1.9708,-1.9708,-1.9708,-1.9708,-1.946,-1.9299,-1.9299,-1.9062,-1.9006,-1.9262,-1.9299,-1.908,-1.8554,-1.8746,-1.8554,-1.7747,-1.8204,-1.8612,-1.8893,-1.8631,-1.8496,-1.8496,-1.8243,-1.8243,-1.8496,-1.9043,-1.9299,-1.9314,-1.9584,-1.9566,0.0,0.0,0.0,0.0,0.0,-0.8566,0.0,0.0,0.0,-1.3134,-1.2843,-1.2226,-1.2878,-1.2883,-1.2782,-1.2782,-1.5534,-1.6872,-1.4568,-1.8619,-2.1889,-2.2069,-2.2981,-2.34,-2.2892,-2.2727,-2.2921,-2.355,-2.3011,-2.2936,-2.3565,-2.3595,-2.3595,-2.3595,-2.3595,-2.3595,-2.3595,-2.3595,-2.3595,-2.3595,-2.3595,-2.3595,-2.3595,-2.3595,-2.3595,-2.3595,-2.3595,-2.3595,-2.3595,-2.3595,-2.3595,-2.3595,-2.3595,-2.3595,-2.3595,-2.3595,-2.3595,-2.3573,-2.3465,-2.3421,-2.3421,-2.3421,-2.3508,-2.3573,-2.3465,-2.3508,-2.3595,-2.3595,-2.3595,-2.3595,-2.3595,-2.3595,-2.3475,-2.3002,-2.2263,-2.1545,-2.1002,-2.0258,-1.9672,-1.9566,-1.9548,-1.9584,-1.969,-1.9708,-1.9657,-1.9566,-1.9188,-1.8855,-1.8746,-1.838,-1.8283,-1.8688,-1.8746,-1.8574,-1.8145,-1.84,-1.8224,-1.7353,-1.7706,-1.8145,-1.8574,-1.8185,-1.7947,-1.7947,-1.7524,-1.7504,-1.7947,-1.8593,-1.8855,-1.8746,-1.9299,-1.9262,0.0,0.0,0.0,0.0,-1.153,-1.1719,-0.7909,0.0,-0.7413,-0.6651,0.0,-0.6519,-0.7134,0.0,0.0,-0.7292,-0.9623,-1.1136,-1.0281,-1.316,-1.5683,-1.6577,-2.0786,-2.2682,-2.0382,-1.96,-2.0468,-2.3385,-2.0902,-2.0528,-2.3445,-2.3595,-2.3595,-2.3595,-2.3595,-2.3595,-2.3595,-2.3595,-2.3595,-2.3595,-2.3595,-2.3595,-2.3595,-2.3595,-2.3595,-2.3595,-2.3595,-2.3595,-2.3595,-2.3595,-2.3595,-2.3595,-2.3595,-2.3595,-2.3595,-2.3595,-2.3595,-2.353,-2.2987,-2.2785,-2.2785,-2.2785,-2.3165,-2.3508,-2.2965,-2.3179,-2.3595,-2.3595,-2.3595,-2.3595,-2.3595,-2.3595,-2.358,-2.3505,-2.2577,-2.168,-2.1605,-2.0587,-1.9566,-1.908,-1.8987,-1.9151,-1.9621,-1.9708,-1.9548,-1.9062,-1.8949,-1.8727,-1.8263,-1.8145,-1.8125,-1.8185,-1.8204,-1.8185,-1.8125,-1.7727,-1.7422,-1.7312,-1.7374,-1.7435,-1.7483,-1.7435,-1.7394,-1.7394,-1.7333,-1.7333,-1.7394,-1.8419,-1.865,-1.8204,-1.8727,-1.8688,0.0,0.0,0.0,-1.0244,-1.0533,-1.0692,-0.7255,-0.6256,-0.6037,-0.5962,0.0,0.0,0.0,0.0,0.0,0.0,-0.7892,-0.9086,-0.7312,-1.0966,-1.4102,-1.4845,-1.6586,-1.8089,-1.8974,-1.881,-2.0023,-2.3355,-2.0516,-2.0098,-2.343,-2.3595,-2.3595,-2.3595,-2.3595,-2.3595,-2.3595,-2.3595,-2.3595,-2.3595,-2.3595,-2.3595,-2.3595,-2.3595,-2.3595,-2.3595,-2.3595,-2.3595,-2.3573,-2.3209,-2.3076,-2.3031,-2.2651,-2.2733,-2.3031,-2.2628,-2.2733,-2.2987,-2.2331,-2.2597,-2.3209,-2.3209,-2.2891,-2.2583,-2.3061,-2.3143,-2.3143,-2.3508,-2.3595,-2.3595,-2.3595,-2.3595,-2.3595,-2.3595,-2.2622,-2.1695,-2.1695,-2.0408,-1.9169,-1.8949,-1.865,-1.8516,-1.8727,-1.9024,-1.9169,-1.893,-1.8631,-1.8243,-1.7706,-1.7374,-1.7291,-1.7605,-1.7646,-1.7767,-1.8066,-1.7605,-1.7312,-1.7312,-1.7312,-1.7312,-1.7312,-1.7312,-1.7312,-1.7312,-1.6993,-1.6837,-1.6837,-1.7605,-1.7706,-1.7188,-1.8361,-1.8458,-1.3304,-1.3431,-1.3796,-0.9756,-0.9516,-0.958,-0.6971,-0.604,-0.5874,-0.6358,-0.6204,0.0,0.0,0.0,0.0,0.0,0.0,-0.7277,0.0,-0.8313,0.0,0.0,0.0,-1.391,-1.71,-1.6467,-1.7627,-2.1924,-1.912,-1.909,-2.337,-2.3595,-2.3595,-2.3595,-2.3595,-2.3595,-2.3595,-2.3595,-2.3595,-2.3595,-2.3595,-2.3595,-2.3595,-2.3595,-2.3508,-2.3377,-2.353,-2.3508,-2.3334,-2.2875,-2.2694,-2.2626,-2.1771,-2.1748,-2.2151,-2.1805,-2.1993,-2.2323,-2.1677,-2.2077,-2.2801,-2.2628,-2.2179,-2.1838,-2.2606,-2.2643,-2.2566,-2.3187,-2.3341,-2.3399,-2.3551,-2.3595,-2.3551,-2.3399,-2.2518,-2.1615,-2.1289,-1.9992,-1.8817,-1.8516,-1.8165,-1.7887,-1.7887,-1.8341,-1.8631,-1.8477,-1.8145,-1.7686,-1.7146,-1.6731,-1.6659,-1.7034,-1.7076,-1.7229,-1.7626,-1.7312,-1.7076,-1.7076,-1.7076,-1.7146,-1.7291,-1.7146,-1.7146,-1.7312,-1.6774,-1.65,-1.65,-1.7034,-1.7013,-1.6543,-1.7847,-1.7967,-1.8187,-1.7271,-1.6092,-1.0326,-0.9653,-0.958,-0.6524,-0.6604,-0.7191,-0.6692,0.0,0.0,0.0,0.0,0.0,0.0,0.0,0.0,0.0,0.0,0.0,0.0,0.0,0.0,0.0,-1.1093,-1.1666,-1.825,-1.5654,-1.6634,-2.3251,-2.3595,-2.3595,-2.3595,-2.3595,-2.3595,-2.3595,-2.3595,-2.3595,-2.3595,-2.3595,-2.3595,-2.3595,-2.3595,-2.3275,-2.2762,-2.3355,-2.3268,-2.2717,-2.2694,-2.2694,-2.2581,-2.1321,-2.0845,-2.0944,-2.1496,-2.1697,-2.1639,-2.1028,-2.087,-2.0795,-2.0118,-2.0731,-2.1615,-2.1053,-2.1269,-2.1875,-2.2543,-2.2717,-2.2852,-2.3443,-2.3595,-2.3465,-2.2875,-2.2188,-2.1385,-2.0217,-1.9412,-1.8593,-1.7544,-1.7353,-1.7333,-1.7333,-1.7767,-1.7947,-1.7422,-1.7353,-1.7126,-1.6595,-1.6522,-1.6522,-1.6522,-1.6543,-1.6543,-1.6552,-1.6531,-1.6543,-1.6543,-1.6543,-1.6752,-1.7271,-1.6795,-1.6774,-1.7291,-1.6774,-1.65,-1.65,-1.7034,-1.7013,-1.6522,-1.7097,-1.7055,-1.8337,-1.8807,-1.8578,-1.2474,-1.1911,-1.1601,-0.6871,-0.6934,-0.7636,-0.634,-0.7542,0.0,0.0,0.0,0.0,0.0,0.0,0.0,0.0,0.0,0.0,0.0,0.0,0.0,0.0,0.0,-1.3407,-1.7196,-1.7123,-1.8867,-2.337,-2.3595,-2.3421,-2.3024,-2.3399,-2.3421,-2.3009,-2.3399,-2.3595,-2.3595,-2.3595,-2.3595,-2.3588,-2.3201,-2.3098,-2.3253,-2.2628,-2.2483,-2.2626,-2.1799,-2.1441,-2.1369,-2.0497,-2.0131,-2.0144,-2.0383,-2.072,-2.1137,-2.1342,-2.0843,-2.0245,-2.0855,-2.0781,-2.0557,-2.1197,-2.1245,-2.1234,-2.1866,-2.2346,-2.2754,-2.2942,-2.3312,-2.3551,-2.3341,-2.2209,-2.1064,-2.0647,-1.9141,-1.7727,-1.7374,-1.7013,-1.6774,-1.6774,-1.6909,-1.7097,-1.7271,-1.7312,-1.7118,-1.6573,-1.65,-1.65,-1.65,-1.65,-1.6637,-1.6993,-1.7034,-1.6879,-1.6522,-1.65,-1.6573,-1.6752,-1.6595,-1.6595,-1.6774,-1.6595,-1.65,-1.65,-1.668,-1.668,-1.65,-1.6701,-1.668,-1.979,-2.0118,-1.9673,-1.4364,-1.3796,-1.3281,-0.8369,-0.8562,-0.9328,-0.7859,-0.8372,0.0,0.0,0.0,0.0,0.0,0.0,0.0,0.0,0.0,0.0,0.0,0.0,0.0,0.0,0.0,0.0,0.0,0.0,0.0,0.0,-2.2913,-2.286,-2.2694,-2.286,-2.2846,-2.2694,-2.2846,-2.2913,-2.2913,-2.2913,-2.2913,-2.2913,-2.2529,-2.2438,-2.2575,-2.1969,-2.1805,-2.1964,-2.1126,-2.0795,-2.0721,-2.0055,-1.9798,-1.9798,-1.9798,-2.0067,-2.0497,-2.0879,-2.0496,-1.994,-2.0756,-2.0471,-1.994,-2.0781,-2.0744,-2.0533,-2.0965,-2.1535,-2.2025,-2.2045,-2.2656,-2.3209,-2.298,-2.2031,-2.1009,-2.0394,-1.8838,-1.7463,-1.7097,-1.6731,-1.65,-1.65,-1.65,-1.6616,-1.6951,-1.7013,-1.69,-1.6531,-1.65,-1.65,-1.65,-1.65,-1.6637,-1.6993,-1.7013,-1.6879,-1.6522,-1.65,-1.65,-1.65,-1.65,-1.65,-1.65,-1.65,-1.65,-1.65,-1.65,-1.65,-1.65,-1.65,-1.65]},{"header":{"parameterUnit":"m.s-1","parameterCategory":1,"la1":30.6,"la2":29.2853,"lo1":-89.7004,"lo2":-87.6739,"dx":0.0162,"dy":0.0183,"nx":112,"ny":82,"refTime":"2022-12-08T18:00:00:Z","depth":0,"parameterNumber":3,"parameterNumberName":"V-component_of_WINDS"},"data":[0.0,0.0,0.0,0.0,0.0,0.0,0.0,0.0,0.0,0.0,0.0,0.0,0.0,0.0,0.0,0.0,0.0,0.0,0.0,0.0,0.0,0.0,0.0,0.0,0.0,0.0,0.0,0.0,0.0,0.0,0.0,0.0,0.0,0.0,0.0,0.0,0.0,0.0,0.0,0.0,0.0,0.0,0.0,0.0,0.0,0.0,0.0,0.0,0.0,0.0,0.0,0.0,0.0,0.0,0.0,0.0,0.0,0.0,0.0,0.0,0.0,0.0,0.0,0.0,0.0,0.0,0.0,0.0,0.0,0.0,0.0,0.0,0.0,0.0,0.0,0.0,0.0,0.0,0.0,0.0,0.0,0.0,0.0,0.0,0.0,0.0,0.0,0.0,0.0,0.0,-0.4007,-0.4522,-0.4621,-0.4653,-0.4653,-0.457,-0.4354,-0.4015,0.0,0.0,0.0,0.0,0.0,0.0,0.0,0.0,0.0,0.0,0.0,0.0,0.0,0.0,0.0,0.0,0.0,0.0,0.0,0.0,0.0,0.0,0.0,0.0,0.0,0.0,0.0,0.0,0.0,0.0,0.0,0.0,0.0,0.0,0.0,0.0,0.0,0.0,0.0,0.0,0.0,0.0,0.0,0.0,0.0,0.0,0.0,0.0,0.0,0.0,0.0,0.0,0.0,0.0,0.0,0.0,0.0,0.0,0.0,0.0,0.0,0.0,0.0,0.0,0.0,0.0,0.0,0.0,0.0,0.0,0.0,0.0,0.0,0.0,0.0,0.0,0.0,0.0,0.0,0.0,0.0,0.0,0.0,0.0,0.0,0.0,0.0,0.0,0.0,0.0,0.0,0.0,0.0,0.0,0.0,0.0,0.0,0.0,0.0,0.0,0.0,0.0,0.0,0.0,-0.4426,-0.6066,-0.5712,-0.5351,-0.5351,-0.4814,-0.4354,-0.4015,0.0,0.0,0.0,0.0,0.0,0.0,0.0,0.0,0.0,0.0,0.0,0.0,0.0,0.0,0.0,0.0,0.0,0.0,0.0,0.0,0.0,0.0,0.0,0.0,0.0,0.0,0.0,0.0,0.0,0.0,0.0,0.0,0.0,0.0,0.0,0.0,0.0,0.0,0.0,0.0,0.0,0.0,0.0,0.0,0.0,0.0,0.0,0.0,0.0,0.0,0.0,0.0,0.0,0.0,0.0,0.0,0.0,0.0,0.0,0.0,0.0,0.0,0.0,0.0,0.0,0.0,0.0,0.0,0.0,0.0,0.0,0.0,0.0,0.0,0.0,0.0,0.0,0.0,0.0,0.0,0.0,0.0,0.0,0.0,0.0,0.0,0.0,0.0,0.0,0.0,0.0,0.0,0.0,0.0,0.0,0.0,0.0,0.0,0.0,0.0,0.0,0.0,0.0,-0.3977,-0.498,-0.5895,-0.6064,-0.5928,-0.5538,-0.5578,-0.5177,-0.4074,-0.3951,0.0,0.0,0.0,0.0,0.0,0.0,0.0,0.0,0.0,0.0,0.0,0.0,0.0,0.0,0.0,0.0,0.0,0.0,0.0,0.0,0.0,0.0,0.0,0.0,0.0,0.0,0.0,0.0,0.0,0.0,0.0,0.0,0.0,0.0,0.0,0.0,0.0,0.0,0.0,0.0,0.0,0.0,0.0,0.0,0.0,0.0,0.0,0.0,0.0,0.0,0.0,0.0,0.0,0.0,0.0,0.0,0.0,0.0,0.0,0.0,0.0,0.0,0.0,0.0,0.0,0.0,0.0,0.0,0.0,0.0,0.0,0.0,0.0,0.0,0.0,0.0,0.0,0.0,0.0,0.0,0.0,0.0,0.0,0.0,0.0,0.0,0.0,0.0,0.0,0.0,0.0,0.0,0.0,0.0,0.0,0.0,0.0,0.0,0.0,0.0,0.0,0.0,-0.4884,-0.5715,-0.5981,-0.6524,-0.6556,-0.5814,-0.6285,-0.5848,-0.4112,-0.4123,0.0,0.0,0.0,0.0,0.0,0.0,0.0,0.0,0.0,0.0,0.0,0.0,0.0,0.0,0.0,0.0,0.0,0.0,0.0,0.0,0.0,0.0,0.0,0.0,0.0,0.0,0.0,0.0,0.0,0.0,0.0,0.0,0.0,0.0,0.0,0.0,0.0,0.0,0.0,0.0,0.0,0.0,0.0,0.0,0.0,0.0,0.0,0.0,0.0,0.0,0.0,0.0,0.0,0.0,0.0,0.0,0.0,0.0,0.0,0.0,0.0,0.0,0.0,0.0,0.0,0.0,0.0,0.0,0.0,0.0,0.0,0.0,0.0,0.0,0.0,0.0,0.0,0.0,0.0,0.0,0.0,0.0,0.0,0.0,0.0,0.0,0.0,0.0,0.0,0.0,0.0,0.0,0.0,0.0,0.0,0.0,0.0,0.0,0.0,0.0,0.0,0.0,-0.5469,-0.6774,-0.7471,-0.7589,-0.7316,-0.6588,-0.6561,-0.5848,-0.4112,-0.4123,0.0,0.0,0.0,0.0,0.0,0.0,0.0,0.0,0.0,0.0,0.0,0.0,0.0,0.0,0.0,0.0,0.0,0.0,0.0,0.0,0.0,0.0,0.0,0.0,0.0,0.0,0.0,0.0,0.0,0.0,0.0,0.0,0.0,0.0,0.0,0.0,0.0,0.0,0.0,0.0,0.0,0.0,0.0,0.0,0.0,0.0,0.0,0.0,0.0,0.0,0.0,0.0,0.0,0.0,0.0,0.0,0.0,0.0,0.0,0.0,0.0,0.0,0.0,0.0,0.0,0.0,0.0,0.0,0.0,0.0,0.0,0.0,0.0,0.0,0.0,0.0,0.0,0.0,0.0,0.0,0.0,0.0,0.0,0.0,0.0,0.0,0.0,0.0,0.0,0.0,0.0,0.0,0.0,0.0,0.0,0.0,0.0,0.0,0.0,0.0,0.0,0.0,-0.4821,-0.5921,-0.6291,-0.7149,-0.7396,-0.6669,-0.702,-0.645,-0.4492,0.0,0.0,0.0,0.0,0.0,0.0,0.0,0.0,0.0,0.0,0.0,0.0,0.0,0.0,0.0,0.0,0.0,0.0,0.0,0.0,0.0,0.0,0.0,0.0,0.0,0.0,0.0,0.0,0.0,0.0,0.0,0.0,0.0,0.0,0.0,0.0,0.0,0.0,0.0,0.0,0.0,0.0,0.0,0.0,0.0,0.0,0.0,0.0,0.0,0.0,0.0,0.0,0.0,0.0,0.0,0.0,0.0,0.0,0.0,0.0,0.0,0.0,0.0,0.0,0.0,0.0,0.0,0.0,0.0,0.0,0.0,0.0,0.0,0.0,0.0,0.0,0.0,0.0,0.0,0.0,0.0,0.0,0.0,0.0,0.0,0.0,0.0,0.0,0.0,0.0,0.0,0.0,0.0,0.0,0.0,0.0,0.0,0.0,0.0,0.0,0.0,0.0,-0.3042,-0.443,-0.5396,-0.55,-0.6605,-0.7047,-0.6312,-0.6934,-0.6484,-0.4413,0.0,0.0,0.0,0.0,0.0,0.0,0.0,0.0,0.0,0.0,0.0,0.0,0.0,0.0,0.0,0.0,0.0,0.0,0.0,0.0,0.0,0.0,0.0,0.0,0.0,0.0,0.0,0.0,0.0,0.0,0.0,0.0,0.0,0.0,0.0,0.0,0.0,0.0,0.0,0.0,0.0,0.0,0.0,0.0,0.0,0.0,0.0,0.0,0.0,0.0,0.0,0.0,0.0,0.0,0.0,0.0,0.0,0.0,0.0,0.0,0.0,0.0,0.0,0.0,0.0,0.0,0.0,0.0,0.0,0.0,0.0,0.0,0.0,0.0,0.0,0.0,0.0,0.0,0.0,0.0,0.0,0.0,0.0,0.0,0.0,0.0,0.0,0.0,0.0,0.0,0.0,0.0,0.0,0.0,0.0,0.0,0.0,0.0,0.0,0.0,0.0,0.0,-0.3064,-0.4494,-0.5483,-0.5483,-0.6145,-0.6285,-0.5569,-0.6172,-0.5731,0.0,0.0,0.0,0.0,0.0,0.0,0.0,0.0,0.0,0.0,0.0,0.0,0.0,0.0,0.0,0.0,0.0,0.0,0.0,0.0,0.0,0.0,0.0,0.0,0.0,0.0,0.0,0.0,0.0,0.0,0.0,0.0,0.0,0.0,0.0,0.0,0.0,0.0,0.0,0.0,0.0,0.0,0.0,0.0,0.0,0.0,0.0,0.0,0.0,0.0,0.0,0.0,0.0,0.0,0.0,0.0,0.0,0.0,0.0,0.0,0.0,0.0,0.0,0.0,0.0,0.0,0.0,0.0,0.0,0.0,0.0,0.0,0.0,0.0,0.0,0.0,0.0,0.0,0.0,0.0,0.0,0.0,0.0,0.0,0.0,0.0,0.0,0.0,0.0,0.0,0.0,0.0,0.0,0.0,0.0,0.0,0.0,0.0,0.0,0.0,0.0,0.0,0.0,-0.3044,-0.4097,-0.4787,-0.4787,-0.541,-0.5733,-0.5515,-0.5706,-0.5297,-0.41,0.0,0.0,0.0,0.0,0.0,0.0,0.0,0.0,0.0,0.0,0.0,0.0,0.0,0.0,0.0,0.0,0.0,0.0,0.0,0.0,0.0,0.0,0.0,0.0,0.0,0.0,0.0,0.0,0.0,0.0,0.0,0.0,0.0,0.0,0.0,0.0,0.0,0.0,0.0,0.0,0.0,0.0,0.0,0.0,0.0,0.0,0.0,0.0,0.0,0.0,0.0,0.0,0.0,0.0,0.0,0.0,0.0,0.0,0.0,0.0,0.0,0.0,0.0,0.0,0.0,0.0,0.0,0.0,0.0,0.0,0.0,0.0,0.0,0.0,0.0,0.0,0.0,0.0,0.0,0.0,0.0,0.0,0.0,0.0,0.0,0.0,0.0,0.0,0.0,0.0,0.0,0.0,0.0,0.0,0.0,0.0,0.0,0.0,0.0,0.0,0.0,0.0,-0.3037,-0.3931,-0.4491,-0.4491,-0.4869,-0.5109,-0.5109,-0.5109,-0.4791,-0.4093,0.0,0.0,0.0,0.0,0.0,0.0,0.0,0.0,0.0,0.0,0.0,0.0,0.0,0.0,0.0,0.0,0.0,0.0,0.0,0.0,0.0,0.0,0.0,0.0,0.0,0.0,0.0,0.0,0.0,0.0,0.0,0.0,0.0,0.0,0.0,0.0,0.0,0.0,0.0,0.0,0.0,0.0,0.0,0.0,0.0,0.0,0.0,0.0,0.0,0.0,0.0,0.0,0.0,0.0,0.0,0.0,0.0,0.0,0.0,0.0,0.0,0.0,0.0,0.0,0.0,0.0,0.0,0.0,0.0,0.0,0.0,0.0,0.0,0.0,0.0,0.0,0.0,0.0,0.0,0.0,0.0,0.0,0.0,0.0,0.0,0.0,0.0,0.0,0.0,0.0,0.0,0.0,0.0,0.0,0.0,0.0,0.0,0.0,0.0,0.0,0.0,0.0,-0.3044,-0.3931,-0.4491,-0.4491,-0.4491,-0.4491,-0.4491,-0.4491,-0.431,-0.3832,0.0,0.0,0.0,0.0,0.0,0.0,0.0,0.0,0.0,0.0,0.0,0.0,0.0,0.0,0.0,0.0,0.0,0.0,0.0,0.0,0.0,0.0,0.0,0.0,0.0,0.0,0.0,0.0,0.0,0.0,0.0,0.0,0.0,0.0,0.0,0.0,0.0,0.0,0.0,0.0,0.0,0.0,0.0,0.0,0.0,0.0,0.0,0.0,0.0,0.0,0.0,0.0,0.0,0.0,0.0,0.0,0.0,0.0,0.0,0.0,0.2907,0.227,0.0,0.0,0.0,0.0,0.0,0.0,0.0,0.0,0.0,0.0,0.0,0.0,0.0,0.0,0.0,0.0,0.0,0.0,0.0,0.0,0.0,0.0,0.0,0.0,0.0,0.0,0.0,0.0,0.0,0.0,0.0,0.0,0.0,0.0,0.0,0.0,0.0,0.0,0.0,0.0,-0.3098,-0.3931,-0.4491,-0.4491,-0.4491,-0.4491,-0.4491,-0.4491,-0.431,-0.3832,-0.4058,0.0,0.0,0.0,0.0,0.0,0.0,0.0,0.0,0.0,0.0,0.0,0.0,0.0,0.0,0.0,0.0,0.0,0.0,0.0,0.0,0.0,0.0,0.0,0.0,0.0,0.0,0.0,0.0,0.0,0.0,0.0,0.0,0.0,0.0,0.0,0.0,0.0,0.0,0.0,0.0,0.0,0.0,0.0,0.0,0.0,0.0,0.0,0.0,0.0,0.0,0.0,0.0,0.0,0.0,0.0,0.0,0.0,0.0,0.0,0.3286,0.2919,0.0,0.0,0.0,0.0,0.0,0.0,0.0,0.0,0.0,0.0,0.0,0.0,0.0,0.0,0.0,0.0,0.0,0.0,0.0,0.0,0.0,0.0,0.0,0.0,0.0,0.0,0.0,0.0,0.0,0.0,0.0,0.0,0.0,0.0,0.0,0.0,0.0,0.0,0.0,0.0,-0.3114,-0.3931,-0.4491,-0.4491,-0.4491,-0.4491,-0.4491,-0.4491,-0.4381,-0.4143,-0.437,0.0,0.0,0.0,0.0,0.0,0.0,0.0,0.0,0.0,0.0,0.0,0.0,0.0,0.0,0.0,0.0,0.0,0.0,0.0,0.0,0.0,0.0,0.0,0.0,0.0,0.0,0.0,0.0,0.0,0.0,0.0,0.0,0.0,0.0,0.0,0.0,0.0,0.0,0.0,0.0,0.0,0.0,0.0,0.0,0.0,0.0,0.0,0.0,0.0,0.0,0.0,0.0,0.0,0.3474,0.359,0.3757,0.3757,0.3866,0.407,0.3571,0.3534,0.3748,0.2744,0.0,0.0,0.0,0.0,0.0,0.0,0.0,0.0,0.0,0.0,0.0,0.0,0.0,0.0,0.0,0.0,0.0,0.0,0.0,0.0,0.0,0.0,-0.1203,-0.1725,-0.2137,-0.25,-0.2753,0.0,0.0,0.0,0.0,0.0,0.0,0.0,0.0,0.0,0.0,0.0,-0.3212,-0.3979,-0.4491,-0.4491,-0.4491,-0.4491,-0.4491,-0.4491,-0.4491,-0.4491,-0.4491,-0.447,0.0,0.0,0.0,0.0,0.0,0.0,0.0,0.0,0.0,0.0,0.0,0.0,0.0,0.0,0.0,0.0,0.0,0.0,0.0,0.0,0.0,0.0,0.0,0.0,0.0,0.0,0.0,0.0,0.0,0.0,0.0,0.0,0.302,0.304,0.0,0.0,0.0,0.0,0.0,0.0,0.0,0.0,0.0,0.0,0.0,0.0,0.0,0.3303,0.3279,0.3684,0.3886,0.391,0.4192,0.4354,0.4371,0.4371,0.4395,0.4426,0.4348,0.0,0.3947,0.3674,0.0,0.0,0.0,0.0,0.0,0.0,0.0,0.0,0.0,0.0,0.0,0.0,0.0,0.0,0.0,0.0,0.0,0.0,0.0,0.0,0.0,0.0,-0.0348,-0.1046,-0.1274,-0.1658,-0.2944,-0.3032,-0.2896,-0.2972,-0.2396,-0.1743,0.0,0.0,0.0,0.0,0.0,0.0,-0.3622,-0.4174,-0.4491,-0.4491,-0.4491,-0.4491,-0.4491,-0.4491,-0.4491,-0.4491,-0.4491,-0.4308,-0.3917,-0.5002,0.0,0.0,0.0,0.0,0.0,0.0,0.0,0.0,0.0,0.0,0.0,0.0,0.0,0.0,0.0,0.0,0.0,0.0,0.0,0.0,0.0,0.0,0.0,0.0,0.0,0.0,0.0,0.0,0.0,0.3267,0.3376,0.3389,0.3,0.2658,0.0,0.0,0.0,0.0,0.0,0.0,0.0,0.0,0.0,0.3593,0.3693,0.3846,0.4075,0.4297,0.4399,0.4399,0.4528,0.4573,0.4491,0.4491,0.4491,0.4491,0.4491,0.4416,0.4269,0.3924,0.3523,0.3073,0.0,0.0,0.0,0.0,0.0823,0.0275,0.0068,0.0,0.0,0.0,0.0,0.0,0.0,0.0,0.0,0.0,0.0,0.0,0.0,0.0,-0.0183,-0.0938,-0.109,-0.1396,-0.2454,-0.2588,-0.2692,-0.3339,-0.3116,-0.2568,-0.1726,-0.2061,0.0,0.0,0.0,-0.3355,-0.3737,-0.4208,-0.4491,-0.4491,-0.4491,-0.4491,-0.4491,-0.4491,-0.4491,-0.4491,-0.4491,-0.4398,-0.421,-0.4922,-0.5213,0.0,0.0,0.0,0.0,0.0,0.0,0.0,0.0,0.0,0.0,0.0,0.0,0.0,0.0,0.0,0.0,0.0,0.0,0.0,0.0,0.0,0.0,0.0,0.0,0.0,0.0,0.0,0.0,0.393,0.3991,0.3991,0.3486,0.3015,0.0,0.0,0.0,0.0,0.0,0.0,0.36,0.3647,0.3839,0.4213,0.4223,0.4412,0.4745,0.4748,0.4748,0.4748,0.4748,0.4691,0.4607,0.4607,0.4607,0.4607,0.4607,0.4607,0.4576,0.416,0.3869,0.365,0.3415,0.2768,0.1905,0.1721,0.1153,0.0406,0.0103,0.0,0.0,0.0,0.0,0.0,0.0,0.0,0.0,0.0,0.0,0.0,0.0,0.0,-0.0127,-0.0687,-0.0811,-0.1034,-0.1758,-0.1885,-0.2145,-0.3056,-0.3316,-0.3099,-0.2188,-0.2537,0.0,-0.251,-0.3103,-0.3696,-0.3952,-0.4283,-0.4491,-0.4491,-0.4491,-0.4491,-0.4491,-0.4491,-0.4491,-0.4491,-0.4491,-0.4491,-0.4491,-0.5043,-0.5782,-0.6728,0.0,0.0,0.0,0.0,0.0,0.0,0.0,0.0,0.0,0.0,0.0,0.0,0.0,0.0,0.0,0.0,0.0,0.0,0.0,0.0,0.0,0.0,0.0,0.0,0.0,0.0,0.0,0.0,0.0,0.5033,0.427,0.0,0.0,0.0,0.0,0.3546,0.3809,0.41,0.4419,0.4573,0.4701,0.4837,0.4844,0.4854,0.4877,0.4877,0.4877,0.4877,0.4877,0.4874,0.4867,0.4867,0.4867,0.4867,0.4867,0.4867,0.487,0.4586,0.4022,0.336,0.3784,0.349,0.2754,0.2039,0.1748,0.1538,0.0409,0.0,0.0,0.0,0.0,0.0,0.0,0.0,0.0,0.0,0.0,0.0,0.0,0.0,0.0,-0.0056,-0.0056,-0.0252,-0.1006,-0.1064,-0.1236,-0.209,-0.2838,-0.316,-0.2733,0.0,-0.3593,-0.3687,-0.3655,-0.3808,-0.4382,-0.4477,-0.4491,-0.4491,-0.4491,-0.4491,-0.4491,-0.4491,-0.4491,-0.4491,-0.4491,-0.4491,-0.4491,-0.5788,-0.6046,-0.5037,-0.7352,0.0,0.0,0.0,0.0,0.0,0.0,0.0,0.0,0.0,0.0,0.0,0.0,0.0,0.0,0.0,0.0,0.0,0.0,0.0,0.0,0.0,0.0,0.0,0.0,0.0,0.0,0.0,0.0,0.4416,0.4182,0.0,0.364,0.3921,0.4137,0.417,0.4426,0.4643,0.4752,0.4809,0.4863,0.4887,0.4887,0.4931,0.5022,0.5022,0.5022,0.5022,0.5022,0.4975,0.4887,0.4887,0.4887,0.4887,0.4887,0.4887,0.4881,0.4802,0.4547,0.422,0.4291,0.3839,0.3141,0.2905,0.2207,0.1298,0.086,0.0392,0.0,0.0,0.0,0.0,0.0,0.0,0.0,0.0,0.0,0.0,0.0,0.0,0.0,0.0,0.0,-0.0084,-0.0336,-0.0361,-0.0414,-0.0726,-0.1701,-0.2483,-0.2565,-0.3069,-0.353,-0.3658,-0.3962,-0.4249,-0.4464,-0.4491,-0.4491,-0.4491,-0.4491,-0.4491,-0.4491,-0.4491,-0.4491,-0.4491,-0.4491,-0.4491,-0.4491,-0.5855,-0.6411,-0.5996,-0.7847,-0.853,0.0,0.0,0.0,0.0,0.0,0.0,0.0,0.0,0.0,0.0,0.0,0.0,0.0,0.0,0.0,0.0,0.0,0.0,0.0,0.0,0.0,0.0,0.0,0.0,0.0,0.4828,0.478,0.4477,0.4424,0.4328,0.4071,0.4453,0.4716,0.4716,0.4925,0.5067,0.5067,0.5067,0.5067,0.5067,0.5067,0.5114,0.5206,0.5209,0.5209,0.5209,0.5209,0.5159,0.5067,0.5067,0.5067,0.5067,0.5067,0.5067,0.5064,0.4982,0.4931,0.4823,0.4674,0.4295,0.3741,0.3544,0.2787,0.1814,0.1284,0.0783,0.0336,0.0084,0.0,0.0,0.0,0.0,0.0,0.0,0.0,0.0,0.0,0.0,0.0,0.0,0.0,0.0,0.0,0.0,0.0,0.0,-0.0907,-0.1771,-0.1989,-0.2574,-0.3096,-0.3387,-0.3813,-0.4165,-0.4368,-0.446,-0.4491,-0.4491,-0.4491,-0.4491,-0.4491,-0.4351,-0.4327,-0.4481,-0.4348,-0.4331,-0.4484,-0.558,-0.617,-0.617,-0.7608,-0.8176,-0.7816,0.0,0.0,0.0,0.0,0.0,0.0,0.0,0.0,0.0,0.0,0.0,0.0,0.0,0.0,0.0,0.0,0.0,0.0,0.0,0.0,0.0,0.0,0.0,0.5311,0.5289,0.5287,0.53,0.5052,0.4809,0.4539,0.488,0.5106,0.5106,0.5277,0.5395,0.5395,0.5395,0.5395,0.5395,0.5395,0.5395,0.5395,0.5395,0.5395,0.5395,0.5395,0.5395,0.5395,0.5395,0.5395,0.5395,0.5395,0.5395,0.5382,0.5199,0.5106,0.5093,0.4945,0.4826,0.461,0.3902,0.3538,0.3188,0.1679,0.1147,0.1008,0.028,0.0028,0.0028,0.0,0.0,0.0,0.0,0.0,0.0,0.0,0.0,0.0,0.0,0.0,0.0,0.0,0.0,0.0,0.0,-0.0588,-0.1062,-0.109,-0.1703,-0.2373,-0.3019,-0.3222,0.0,-0.4138,-0.4375,-0.4487,-0.4484,-0.4484,-0.4484,-0.4484,-0.4081,-0.402,-0.446,-0.4078,-0.4034,-0.447,-0.5051,-0.5361,-0.5408,-0.6811,-0.7036,-0.5994,0.0,0.0,0.0,0.0,0.0,0.0,0.0,0.0,0.0,0.0,0.0,0.0,0.0,0.0,0.0,0.0,0.0,0.0,0.0,0.0,0.0,0.6566,0.6613,0.5195,0.5005,0.5011,0.4998,0.5023,0.5009,0.4955,0.5159,0.533,0.533,0.5371,0.5395,0.5395,0.5395,0.5395,0.5395,0.5395,0.5395,0.5395,0.5395,0.5395,0.5395,0.5395,0.5395,0.5395,0.5395,0.5395,0.5395,0.5395,0.5395,0.5392,0.5347,0.533,0.5306,0.502,0.4864,0.4823,0.4613,0.4195,0.3552,0.2479,0.2113,0.196,0.1099,0.0811,0.0699,0.0168,0.0,0.0,0.0,0.0,0.0,0.0,0.0,0.0,0.0,0.0,0.0,0.0,0.0,0.0,0.0,-0.0168,-0.0476,-0.1006,-0.1256,-0.1808,-0.3057,-0.3269,-0.3583,-0.4324,-0.4464,-0.445,-0.4291,-0.4281,-0.4281,-0.4281,-0.4169,-0.4219,-0.4477,-0.4371,-0.4361,-0.4484,-0.5615,-0.6752,-0.7815,-0.8228,-0.829,0.0,0.0,0.0,0.0,0.0,0.0,0.0,0.0,0.0,0.0,0.0,0.0,0.0,0.0,0.0,0.0,0.0,0.0,0.0,0.0,0.0,0.0,0.7635,0.766,0.6257,0.5757,0.5408,0.5037,0.5138,0.5226,0.5226,0.5341,0.5395,0.5395,0.5395,0.5395,0.5395,0.5395,0.5395,0.5395,0.5395,0.5395,0.5395,0.5395,0.5395,0.5395,0.5395,0.5395,0.5395,0.5395,0.5395,0.5395,0.5395,0.5395,0.5395,0.5395,0.5395,0.5378,0.0,0.0,0.0,0.0,0.4641,0.4138,0.334,0.3049,0.2892,0.205,0.1731,0.1541,0.0771,0.051,0.0392,0.0084,0.0,0.0,0.0,0.0,0.0,0.0,0.0,0.0,0.0,0.0,0.0,0.0,0.0,0.0,-0.056,-0.0643,-0.1113,-0.2546,-0.2792,-0.3217,-0.4243,-0.4453,-0.4457,-0.4345,-0.4338,-0.4338,-0.4338,-0.4139,0.0,0.0,0.0,-0.4385,-0.4819,-0.5634,0.0,0.0,0.0,-0.843,-0.8804,-0.8804,0.0,0.0,-0.8384,-0.8106,0.0,0.0,0.0,0.0,0.0,0.0,0.0,0.0,0.0,0.0,0.0,0.0,0.0,0.0,0.0,0.0,0.8545,0.8744,0.7996,0.7226,0.6354,0.5407,0.5437,0.5491,0.5395,0.5395,0.5395,0.5395,0.5395,0.5395,0.5395,0.5395,0.0,0.0,0.0,0.5423,0.5423,0.5436,0.5443,0.5443,0.5429,0.5423,0.5419,0.5402,0.5395,0.5395,0.5395,0.5395,0.5395,0.5395,0.5395,0.5395,0.5395,0.5277,0.511,0.4985,0.4969,0.4873,0.4176,0.0,0.0,0.3077,0.2747,0.2506,0.1712,0.1299,0.0984,0.0338,0.0084,0.0,0.0,0.0,0.0,0.0,0.0,0.0,0.0,0.0,0.0,0.0,0.0,0.0,0.0,-0.0056,-0.0554,-0.1825,-0.2191,-0.2787,-0.4075,-0.4385,-0.4484,-0.4467,-0.4464,0.0,-0.4464,-0.4073,-0.4019,-0.4464,-0.4112,-0.4312,-0.5274,-0.5321,-0.6023,-0.7501,-0.7524,-0.7937,-0.8804,-0.8804,-0.8804,-0.8778,-0.7516,-0.7489,0.0,0.0,0.0,0.0,0.0,0.0,0.0,0.0,0.0,0.0,0.0,0.0,0.0,0.0,0.0,0.9282,0.9836,0.9958,0.9128,0.8841,0.8158,0.6566,0.6437,0.617,0.5458,0.5395,0.5395,0.5395,0.5395,0.5395,0.5395,0.5395,0.5395,0.5395,0.5515,0.5545,0.5545,0.5657,0.5718,0.5715,0.5599,0.0,0.5576,0.545,0.5395,0.5395,0.5395,0.5395,0.5395,0.5395,0.5395,0.5395,0.5395,0.5378,0.5347,0.5317,0.531,0.5257,0.4941,0.4835,0.4722,0.3871,0.3582,0.3411,0.265,0.1879,0.0,0.1077,0.0543,0.0,0.0,0.0,0.0,0.0,0.0,0.0,0.0,0.0,0.0,0.0,0.0,0.0,0.0,-0.0504,-0.1171,-0.2047,-0.2692,-0.342,-0.4313,-0.447,-0.4447,-0.4274,-0.4264,-0.4264,-0.4264,-0.4183,-0.422,-0.4477,-0.4409,-0.4702,-0.543,-0.5461,-0.6146,-0.7624,-0.7656,-0.8047,-0.8804,-0.8804,-0.8804,-0.8798,-0.8516,-0.8802,0.0,0.0,0.0,0.0,0.0,0.0,0.0,0.0,0.0,0.0,0.0,0.8342,0.8945,0.0,0.9773,1.0104,1.0399,1.0301,0.9434,0.9306,0.8646,0.6915,0.6687,0.6367,0.5491,0.5395,0.5395,0.5395,0.5395,0.5429,0.5504,0.5511,0.5542,0.5614,0.5654,0.5694,0.5694,0.5766,0.58,0.58,0.5657,0.5589,0.5586,0.5467,0.5395,0.5395,0.5395,0.5395,0.5395,0.5395,0.5395,0.5395,0.5395,0.5395,0.5395,0.5395,0.5395,0.5385,0.5274,0.5247,0.5168,0.4743,0.4545,0.4301,0.3578,0.2919,0.2375,0.1995,0.1262,0.056,0.056,0.028,0.0,0.0,0.0,0.0,0.0,0.0,0.0,0.0,0.0,0.0,0.0,-0.0615,-0.1229,-0.1591,-0.2286,-0.3037,-0.379,-0.4239,-0.4464,-0.4362,-0.4355,-0.4355,-0.4355,-0.4355,-0.4385,-0.4484,-0.4491,-0.4814,-0.546,-0.5515,-0.6032,-0.7128,-0.7503,-0.7883,-0.8235,-0.8619,-0.8804,-0.8804,-0.8804,-0.8982,0.0,0.0,0.0,0.0,0.0,0.0,0.0,0.7552,0.7686,0.8643,0.9012,0.9292,0.9796,1.0047,1.0281,1.0553,1.0593,1.0333,0.9658,0.9562,0.8973,0.7405,0.6915,0.6367,0.5491,0.5395,0.5405,0.5436,0.544,0.5504,0.5623,0.563,0.5684,0.5796,0.583,0.5844,0.5844,0.5874,0.5891,0.5891,0.5745,0.5677,0.5671,0.5521,0.544,0.5436,0.5405,0.5395,0.5395,0.5395,0.5395,0.5395,0.5395,0.5395,0.5395,0.5395,0.5395,0.5395,0.5395,0.5395,0.5395,0.5395,0.5277,0.5044,0.4461,0.3988,0.3545,0.2935,0.2081,0.1324,0.1147,0.0671,0.0168,0.0028,0.0,0.0,0.0,0.0,0.0,0.0,0.0,0.0,0.0,-0.0504,-0.0923,-0.109,-0.173,-0.2425,-0.301,-0.379,-0.4267,-0.4267,-0.4405,-0.4491,-0.4491,-0.4491,-0.4491,-0.4491,-0.4491,-0.4732,-0.5269,-0.53,-0.5655,-0.6367,-0.6961,-0.7423,-0.7696,-0.8295,-0.8672,-0.8804,-0.8804,-0.8804,0.8188,0.7799,0.7558,0.8074,0.7976,0.8172,0.0,0.9559,0.9217,1.0164,1.0372,1.0419,1.0486,1.0519,1.0553,1.0586,1.0593,1.0561,1.0466,1.046,1.0072,0.9139,0.7632,0.6367,0.5491,0.5395,0.545,0.5555,0.5562,0.5627,0.5769,0.5779,0.5786,0.58,0.5932,0.5966,0.5966,0.6139,0.6248,0.6245,0.6054,0.5942,0.5936,0.5691,0.5562,0.5555,0.5453,0.5395,0.5395,0.5395,0.5395,0.5395,0.5395,0.5395,0.5395,0.5395,0.5395,0.5395,0.5395,0.5395,0.5395,0.5395,0.5382,0.5335,0.5269,0.4628,0.3916,0.3725,0.3019,0.2143,0.1323,0.1034,0.0811,0.0168,0.0,0.0,0.0,0.0,0.0,0.0,0.0,0.0,0.0,-0.0056,-0.0336,-0.1006,-0.173,-0.2232,-0.2313,-0.2982,-0.3428,-0.3428,-0.407,-0.4491,-0.4491,-0.4491,-0.4491,-0.4491,-0.4491,-0.4543,-0.4598,-0.4598,-0.4924,-0.5624,-0.5706,-0.6384,-0.7696,-0.7777,-0.8156,-0.8804,-0.8804,-0.8804,0.9345,0.9078,0.8884,0.9279,0.9292,0.9364,1.0134,1.0013,0.9877,1.0479,1.0593,1.0593,1.0593,1.0593,1.0593,1.0593,1.0593,1.0428,0.9913,0.9987,0.9753,0.8887,0.826,0.7478,0.6364,0.6954,0.6914,0.5814,0.6268,0.6375,0.5925,0.5899,0.5976,0.6105,0.6132,0.6166,0.6166,0.6269,0.63,0.6296,0.6105,0.5993,0.5986,0.581,0.5667,0.5586,0.5556,0.5477,0.5395,0.5395,0.5395,0.5395,0.5395,0.5395,0.5395,0.5395,0.5395,0.5395,0.5395,0.5395,0.5395,0.5395,0.5395,0.5395,0.5395,0.5055,0.4636,0.4581,0.3865,0.3038,0.2651,0.2151,0.1563,0.0811,0.0643,0.0532,0.0084,0.0,0.0,0.0,0.0,0.0,0.0,0.0,-0.0112,-0.042,-0.109,-0.1563,-0.1563,-0.2202,-0.2815,-0.3259,-0.3594,-0.3984,-0.446,-0.4491,-0.4491,-0.4491,-0.4491,-0.4491,-0.4491,-0.4491,-0.4625,-0.4924,-0.5296,-0.5814,-0.6411,-0.6853,-0.7208,-0.7536,-0.7969,-0.8156,0.9766,0.9719,0.9733,0.9947,1.012,1.0241,1.0241,1.0241,1.0301,1.0546,1.0593,1.0593,1.0593,1.0593,1.0593,1.0593,1.0593,1.0397,0.9853,0.9933,0.984,0.9293,0.9483,0.9171,0.7968,0.8419,0.8216,0.6825,0.7395,0.7409,0.6528,0.6502,0.6556,0.6714,0.6451,0.6451,0.6718,0.6451,0.63,0.6296,0.6146,0.6095,0.6088,0.5891,0.5725,0.5589,0.5545,0.5498,0.5395,0.5395,0.5395,0.5395,0.5395,0.5395,0.5395,0.5395,0.5395,0.5395,0.5395,0.5395,0.5395,0.5395,0.5395,0.5395,0.5395,0.5284,0.5186,0.511,0.4544,0.3912,0.3672,0.3059,0.2343,0.1591,0.1257,0.095,0.042,0.014,0.0056,0.0252,0.0308,0.0308,0.0308,0.0308,0.0224,0.0028,-0.0448,-0.0783,-0.0783,-0.1452,-0.2174,-0.2926,-0.301,-0.3317,-0.4125,-0.4211,-0.4294,-0.4491,-0.4491,-0.4491,-0.4491,-0.4491,-0.4491,-0.4491,-0.4976,-0.5328,-0.5515,-0.6036,-0.6394,-0.6615,-0.7155,-0.7503,0.9078,0.9259,0.9715,0.9722,1.0157,1.0579,1.0579,1.0579,1.0579,1.0586,1.0593,1.0593,1.0593,1.0593,1.0593,1.0593,1.0593,1.0693,1.0902,1.0956,1.1062,1.1274,1.1607,1.141,1.0378,0.9379,0.8852,0.9005,0.902,0.868,0.78,0.7736,0.7736,0.7744,0.6795,0.6756,0.7744,0.6795,0.63,0.63,0.6293,0.6293,0.6282,0.5939,0.5725,0.5583,0.5467,0.5399,0.5395,0.5395,0.5395,0.5395,0.5395,0.5395,0.5395,0.5395,0.5395,0.5395,0.5395,0.5395,0.5395,0.5395,0.5395,0.5395,0.5395,0.5392,0.5354,0.514,0.4992,0.4662,0.381,0.3488,0.3151,0.2371,0.1619,0.109,0.1062,0.0504,0.0224,0.0923,0.1062,0.1062,0.1062,0.1062,0.0811,0.0112,-0.0028,-0.0028,-0.0028,-0.0671,-0.1424,-0.2147,-0.2232,-0.2565,-0.3372,-0.3428,-0.3735,-0.446,-0.4491,-0.4491,-0.4491,-0.4491,-0.4491,-0.4491,-0.4515,-0.4838,-0.5515,-0.5515,-0.59,-0.6588,-0.6615,-0.702,0.9466,0.9673,1.002,1.0244,1.0445,1.0593,1.0593,1.0593,1.0593,1.0593,1.0593,1.0593,1.0593,1.0754,1.0881,1.0881,1.1009,1.1169,1.1269,1.145,1.1645,1.171,1.1977,1.2042,1.1707,1.1319,1.0608,0.9324,0.9845,0.9809,0.8836,0.8803,0.8803,0.8803,0.8466,0.8466,0.8808,0.8466,0.7974,0.7288,0.6602,0.6644,0.7284,0.6491,0.5969,0.5728,0.5677,0.5576,0.5395,0.5395,0.5395,0.5395,0.5395,0.5395,0.5395,0.5395,0.5395,0.5395,0.5395,0.5395,0.5395,0.5395,0.5395,0.5395,0.5395,0.5395,0.5385,0.533,0.5108,0.4847,0.4553,0.4301,0.3929,0.3121,0.2788,0.2482,0.1952,0.1647,0.1535,0.1786,0.184,0.184,0.184,0.184,0.1591,0.0838,0.0308,0.0,0.0,-0.0224,-0.0643,-0.1396,-0.148,-0.1786,-0.2538,-0.2593,-0.2704,-0.2954,-0.3428,-0.3735,-0.3763,-0.4236,-0.4491,-0.4491,-0.4491,-0.4598,-0.4842,-0.4842,-0.4952,-0.5226,-0.5655,-0.6005,0.9813,0.9973,1.0187,1.0519,1.0593,1.0593,1.0593,1.0593,1.0593,1.0593,1.0506,1.0432,1.0432,1.0673,1.0875,1.0975,1.1329,1.1623,1.1724,1.1904,1.2024,1.2024,1.2191,1.2305,1.2305,1.2305,1.1774,1.0464,1.0981,1.0901,0.9895,0.982,0.982,0.982,0.9485,0.9485,0.982,0.9485,0.896,0.8313,0.7668,0.7706,0.8313,0.7221,0.6622,0.6375,0.5912,0.562,0.5474,0.5419,0.5587,0.5881,0.5881,0.6046,0.6338,0.6338,0.6145,0.5815,0.5491,0.5395,0.5395,0.5395,0.5395,0.5395,0.5395,0.5395,0.5395,0.5395,0.5148,0.4887,0.4887,0.4694,0.4377,0.3846,0.3539,0.3231,0.2732,0.2397,0.2286,0.2565,0.2619,0.2591,0.2591,0.2369,0.2035,0.1563,0.109,0.0588,0.0056,0.0,-0.0168,-0.0643,-0.0699,-0.1006,-0.1758,-0.1814,-0.1925,-0.2174,-0.2649,-0.2926,-0.2982,-0.3428,-0.3818,-0.4098,-0.4098,-0.4236,-0.4491,-0.4491,-0.4491,-0.4519,-0.4948,-0.5273,1.004,1.0097,1.0207,1.0519,1.06,1.0613,1.0593,1.06,1.0606,1.0579,1.0314,1.0077,1.0043,1.0354,1.07,1.0929,1.1524,1.2027,1.2265,1.2305,1.2305,1.2305,1.2305,1.2305,1.2305,1.2305,1.2305,1.2305,1.2305,1.1885,1.0938,1.0901,1.0901,1.0901,0.997,0.9895,1.0858,0.9895,0.941,0.9448,0.9334,0.9334,0.9329,0.8147,0.7577,0.7511,0.6291,0.5741,0.5679,0.5598,0.602,0.6719,0.6752,0.7274,0.7994,0.7994,0.747,0.6654,0.5818,0.5462,0.5395,0.5395,0.5395,0.5395,0.5395,0.5395,0.5395,0.5395,0.5152,0.4897,0.4891,0.4697,0.4501,0.4491,0.3929,0.337,0.3456,0.2871,0.2538,0.3317,0.34,0.337,0.337,0.2788,0.2313,0.2258,0.2258,0.173,0.0252,0.0056,0.0028,0.0,0.0,-0.028,-0.0978,-0.1034,-0.134,-0.2035,-0.212,-0.2148,-0.2148,-0.2174,-0.2565,-0.3317,-0.3345,-0.3707,-0.4436,-0.4436,-0.446,-0.4491,-0.4491,-0.4842,1.0094,1.0281,1.0492,1.0573,1.0754,1.0861,1.064,1.076,1.0755,1.0321,1.0167,0.995,0.9517,1.0241,1.0835,1.0727,1.1523,1.2218,1.2291,1.2305,1.2305,1.2305,1.2305,1.2305,1.2305,1.2305,1.2305,1.2305,1.2305,1.2187,1.1922,1.1922,1.1922,1.1922,1.1663,1.1663,1.1922,1.0901,1.0795,1.1508,1.0013,0.9707,1.0372,0.9306,0.8785,0.8661,0.8336,0.7659,0.6775,0.7394,0.728,0.6752,0.7405,0.78,0.7994,0.7994,0.7859,0.7637,0.7409,0.6502,0.5395,0.5395,0.5395,0.5395,0.5395,0.5395,0.5395,0.5395,0.5223,0.5022,0.4918,0.4775,0.4631,0.4515,0.4349,0.4211,0.4211,0.407,0.3987,0.4181,0.4211,0.4184,0.4184,0.4042,0.3707,0.3121,0.301,0.248,0.1006,0.0811,0.0615,0.0056,0.0,-0.0084,-0.0252,-0.028,-0.0364,-0.056,-0.109,-0.1368,-0.1368,-0.1898,-0.2286,-0.2508,-0.2508,-0.2899,-0.368,-0.3622,-0.3901,-0.4491,-0.4491,-0.4598,1.0274,1.0466,1.0593,1.0593,1.0713,1.076,1.0466,1.0488,1.0441,0.9824,0.9704,0.9524,0.8965,0.9927,1.0787,1.062,1.1685,1.2536,1.2536,1.2536,1.2452,1.2318,1.2305,1.2305,1.2305,1.2305,1.2305,1.2305,1.2305,1.2305,1.2305,1.2305,1.2305,1.2305,1.2305,1.2305,1.2305,1.1731,1.1731,1.2298,1.1174,1.0907,1.1428,1.0415,0.9932,0.9832,0.9327,0.8587,0.7783,0.8229,0.8192,0.7897,0.8388,0.8807,0.9128,0.9128,0.8903,0.8581,0.8581,0.7674,0.647,0.6108,0.5719,0.5395,0.5395,0.5395,0.5395,0.5395,0.525,0.5079,0.5002,0.4853,0.467,0.461,0.4539,0.4491,0.4491,0.4491,0.4491,0.4491,0.4491,0.4491,0.4491,0.4491,0.4349,0.3901,0.3818,0.34,0.2232,0.1786,0.1424,0.1006,0.0671,0.0476,0.0476,0.0196,0.0,0.0,-0.0392,-0.0615,-0.0615,-0.1006,-0.1396,-0.1703,-0.173,-0.2093,-0.2871,-0.2843,-0.3231,-0.4015,-0.3984,-0.4153,1.0519,1.0593,1.0593,1.0593,1.062,1.0559,1.0194,1.0083,0.991,0.9284,0.9124,0.8931,0.8417,0.9474,1.0439,1.0519,1.1698,1.2636,1.2717,1.2723,1.263,1.2331,1.2305,1.2305,1.2305,1.2305,1.2305,1.2305,1.2305,1.2305,1.2305,1.2305,1.2305,1.2305,1.2305,1.2305,1.2305,1.2305,1.2305,1.2305,1.2305,1.2305,1.2268,1.1391,1.1013,1.0926,0.9935,0.9226,0.8784,0.8756,0.8959,0.9306,0.9434,0.9945,1.0593,1.0593,1.011,0.9466,0.9466,0.8909,0.8027,0.7144,0.6367,0.5719,0.5624,0.5557,0.5557,0.5428,0.5264,0.5123,0.5103,0.4925,0.4714,0.4697,0.46,0.4491,0.4491,0.4491,0.4491,0.4491,0.4491,0.4491,0.4491,0.4491,0.4491,0.4491,0.4491,0.4239,0.3539,0.2815,0.2313,0.2202,0.1619,0.1257,0.1257,0.056,0.014,0.014,0.0056,0.0,0.0,0.0,-0.0308,-0.095,-0.095,-0.1312,-0.2063,-0.2063,-0.2454,-0.3234,-0.3176,-0.3566,1.0579,1.0593,1.0593,1.0593,1.0774,1.0775,1.0241,1.0083,0.988,0.9024,0.8691,0.8417,0.8045,0.8785,0.9597,1.0114,1.1015,1.1824,1.2311,1.2378,1.2365,1.2311,1.2305,1.2305,1.2305,1.2305,1.2305,1.2305,1.2305,1.2305,1.2305,1.2305,1.2305,1.2305,1.2305,1.2305,1.2305,1.2305,1.2305,1.2305,1.2305,1.2305,1.2298,1.2114,1.2033,1.202,1.1588,1.0804,0.9869,1.0361,1.006,0.937,1.0079,1.0466,1.0593,1.0593,1.0498,1.0364,1.0364,0.9817,0.8947,0.8059,0.767,0.7409,0.6691,0.6461,0.6334,0.5591,0.5375,0.5324,0.5133,0.4975,0.4847,0.4721,0.46,0.4491,0.4491,0.4491,0.4491,0.4491,0.4491,0.4491,0.4491,0.4491,0.4491,0.4491,0.4491,0.446,0.4322,0.3594,0.2871,0.2258,0.2091,0.2009,0.2009,0.134,0.0923,0.0923,0.0336,0.0,0.0,0.0,-0.0056,-0.0196,-0.0196,-0.056,-0.1284,-0.1284,-0.1675,-0.2397,-0.2397,-0.2788,1.0593,1.0593,1.0593,1.0593,1.07,1.0606,0.9797,0.963,0.9337,0.8323,0.813,0.8003,0.7519,0.8405,0.9257,0.9384,1.0523,1.1489,1.1804,1.2111,1.2305,1.2305,1.2305,1.2305,1.2305,1.2305,1.2305,1.2305,1.2305,1.2305,1.2305,1.2305,1.2305,1.2305,1.2305,1.2305,1.2305,1.2305,1.2305,1.2305,1.2305,1.2305,1.2305,1.2305,1.2218,1.2064,1.1966,1.1401,1.0577,1.0883,1.0588,1.0015,1.0428,1.0593,1.0593,1.0593,1.0593,1.0593,1.0593,1.0333,0.9913,0.9486,0.8737,0.7929,0.7502,0.7372,0.7274,0.6859,0.6761,0.6739,0.6645,0.6378,0.6143,0.6079,0.5527,0.4921,0.457,0.4491,0.4491,0.4491,0.4491,0.4491,0.4491,0.4491,0.4491,0.4491,0.4491,0.4491,0.4491,0.4153,0.379,0.3428,0.301,0.276,0.276,0.2093,0.1675,0.1675,0.134,0.0978,0.0588,0.056,0.0392,0.0,0.0,-0.0168,-0.0532,-0.0532,-0.0895,-0.1619,-0.1619,-0.2037,1.0593,1.0593,1.0593,1.0593,1.0593,1.0358,0.9411,0.9164,0.8798,0.7718,0.7609,0.7586,0.7173,0.8045,0.8838,0.8871,1.0107,1.1102,1.1355,1.1877,1.2231,1.2291,1.2305,1.2305,1.2305,1.2305,1.2305,1.2305,1.2305,1.2305,1.2305,1.2305,1.2305,1.2305,1.2305,1.2305,1.2305,1.2305,1.2305,1.2305,1.2305,1.2271,1.2204,1.2204,1.2051,1.1806,1.1745,1.1457,1.0989,1.0922,1.0801,1.0593,1.0593,1.0593,1.0593,1.0593,1.0593,1.0593,1.0593,1.0593,1.0593,1.0593,0.9678,0.8511,0.8318,0.8291,0.8253,0.8059,0.7994,0.7984,0.7901,0.7593,0.7264,0.7173,0.6431,0.5601,0.5062,0.4952,0.4897,0.4732,0.4708,0.468,0.4515,0.4491,0.4491,0.4491,0.4491,0.4491,0.4491,0.4491,0.4491,0.4491,0.3929,0.3566,0.3566,0.2871,0.2454,0.2454,0.2286,0.1952,0.1369,0.1174,0.0838,0.0252,0.0084,0.0,0.0,0.0,-0.0308,-0.0866,-0.0866,-0.1257,1.0593,1.0593,1.0593,1.0593,1.0593,1.0358,0.9411,0.9004,0.8584,0.7678,0.7275,0.7153,0.7404,0.7558,0.8,0.9004,0.9566,1.0214,1.1242,1.1703,1.204,1.2271,1.2305,1.2305,1.2305,1.2305,1.2305,1.2305,1.2305,1.2305,1.2305,1.2305,1.2305,1.2305,1.2305,1.2305,1.2305,1.2305,1.2305,1.2305,1.2305,1.2164,1.1946,1.1946,1.175,1.1415,1.1189,1.1042,1.0969,1.074,1.062,1.0593,1.0593,1.0593,1.0593,1.0593,1.0593,1.0593,1.0593,1.0593,1.0593,1.0593,1.0491,1.0199,0.9428,0.9172,0.9011,0.8221,0.7994,0.7948,0.7615,0.7416,0.7188,0.6766,0.6591,0.6475,0.6426,0.6399,0.6204,0.5542,0.5406,0.5218,0.4598,0.4491,0.4491,0.4491,0.4491,0.4491,0.4491,0.4491,0.4491,0.4491,0.4436,0.4377,0.4377,0.3707,0.3289,0.3289,0.2593,0.2174,0.2093,0.1452,0.1062,0.1006,0.0336,0.0,0.0,0.0,-0.0028,-0.0112,-0.0112,-0.0504,1.0546,1.0593,1.0593,1.0593,1.0459,1.006,0.9151,0.8591,0.7999,0.7149,0.684,0.68,0.6941,0.7249,0.7705,0.8318,0.8964,0.9639,1.0287,1.0814,1.129,1.1717,1.1777,1.1917,1.2271,1.2305,1.2305,1.2305,1.2305,1.2305,1.2305,1.2305,1.2305,1.2305,1.2305,1.2305,1.2305,1.2305,1.2305,1.2298,1.2124,1.202,1.1899,1.1683,1.1443,1.1156,1.1042,1.0895,1.0754,1.064,1.0593,1.0593,1.0593,1.0593,1.0593,1.0593,1.0593,1.0593,1.0593,1.0593,1.0593,1.0593,1.0593,1.053,1.0174,1.0079,1.0009,0.9652,0.955,0.9489,0.9155,0.8741,0.8248,0.7454,0.7262,0.7128,0.6696,0.6588,0.6507,0.6231,0.6172,0.5928,0.5218,0.5109,0.4976,0.457,0.4491,0.4491,0.4491,0.4491,0.4491,0.4491,0.4491,0.4491,0.4491,0.4236,0.407,0.407,0.3763,0.3372,0.2954,0.2593,0.2204,0.1758,0.148,0.1118,0.0671,0.0671,0.0448,0.0,0.0,-0.0168,1.0512,1.0593,1.0593,1.0593,1.0341,0.9857,0.9005,0.8332,0.7652,0.6774,0.663,0.6635,0.6613,0.7169,0.7772,0.8147,0.8935,0.9622,0.9951,1.0433,1.0855,1.1142,1.1169,1.1396,1.1984,1.2198,1.2305,1.2305,1.2305,1.2305,1.2305,1.2305,1.2305,1.2305,1.2305,1.2305,1.2305,1.2305,1.2258,1.2171,1.2,1.1812,1.1638,1.139,1.1142,1.0868,1.0868,1.078,1.0593,1.0593,1.0593,1.0593,1.0593,1.0593,1.0593,1.0593,1.0593,1.0593,1.0593,1.0593,1.0593,1.0593,1.0593,1.0593,1.0593,1.0593,1.0593,1.0593,1.0466,1.0285,1.004,0.9524,0.8895,0.8199,0.8023,0.7883,0.7369,0.7262,0.7182,0.6966,0.6912,0.6691,0.595,0.5814,0.5655,0.5199,0.5117,0.5117,0.5117,0.4924,0.4787,0.4787,0.4625,0.4491,0.4491,0.4491,0.4491,0.4491,0.4491,0.4267,0.3735,0.3456,0.3065,0.2538,0.2313,0.1952,0.1424,0.1424,0.1034,0.0336,0.0336,0.0196,1.0512,1.0593,1.0593,1.0593,1.0341,0.9857,0.9005,0.8332,0.7652,0.6774,0.6706,0.6753,0.6631,0.737,0.8194,0.8784,0.9613,1.0297,1.063,1.0931,1.0961,1.0654,1.06,1.0827,1.1342,1.1964,1.2305,1.2305,1.2305,1.2305,1.2305,1.2305,1.2305,1.2305,1.2305,1.2305,1.2305,1.2305,1.2158,1.1906,1.1906,1.1598,1.1002,1.1002,1.0868,1.0593,1.0593,1.0593,1.0593,1.0593,1.0593,1.0593,1.0593,1.0593,1.0593,1.0593,1.0593,1.0593,1.0593,1.0593,1.0593,1.0593,1.0593,1.0593,1.0593,1.0593,1.0593,1.0593,1.0171,0.9722,0.9715,0.9252,0.8811,0.8778,0.8778,0.8778,0.8785,0.8778,0.8566,0.783,0.7696,0.7456,0.6723,0.6588,0.6588,0.6588,0.6588,0.6588,0.6588,0.5955,0.5487,0.5487,0.4893,0.4491,0.4491,0.4491,0.4491,0.4491,0.4491,0.4491,0.4491,0.3732,0.3287,0.3287,0.2565,0.2202,0.2202,0.2202,0.1814,0.109,0.109,0.0699,1.0392,1.0333,0.999,0.999,0.9733,0.9416,0.9134,0.8353,0.761,0.7341,0.7058,0.6857,0.6809,0.7229,0.7993,0.9235,0.9678,1.0172,1.1116,1.1235,1.1255,1.1277,1.1559,1.1824,1.2004,1.2191,1.2305,1.2305,1.2305,1.2305,1.2305,1.2305,1.2305,1.2305,1.2305,1.2305,1.2305,1.2305,1.2158,1.1899,1.1663,1.1363,1.0982,1.0821,1.068,1.0593,1.0593,1.0593,1.0593,1.0593,1.0593,1.0593,1.0593,1.0593,1.0593,1.0593,1.0593,1.0593,1.0593,1.0593,1.0593,1.0593,1.0593,1.0593,1.0593,1.0593,1.0593,1.0593,1.0311,0.9933,0.9733,0.9392,0.9024,0.8851,0.8804,0.8804,0.8804,0.8804,0.8725,0.8507,0.8454,0.8209,0.7477,0.7343,0.7182,0.6669,0.6588,0.6588,0.6588,0.6394,0.6253,0.6253,0.6068,0.5741,0.5218,0.5191,0.5191,0.5191,0.5191,0.4976,0.4515,0.4267,0.4125,0.4125,0.3901,0.3511,0.2954,0.2954,0.2565,0.1842,0.134,0.0966,1.0408,1.0675,1.0408,1.0264,0.9991,0.9611,0.9189,0.8406,0.7678,0.7387,0.7148,0.6963,0.6909,0.7374,0.8189,0.9419,0.9926,1.0565,1.1722,1.1619,1.1404,1.1238,1.1655,1.2114,1.25,1.271,1.2989,1.3375,1.3375,1.3237,1.2842,1.2842,1.2659,1.2305,1.2198,1.2138,1.2138,1.2031,1.1824,1.1571,1.1349,1.1109,1.0854,1.0673,1.0593,1.0593,1.0593,1.0593,0.0,1.0593,1.0593,1.0593,1.0593,1.0593,1.0593,1.0593,1.0593,1.0593,1.0593,1.0593,1.0593,1.0593,1.0807,1.1045,1.1045,1.0832,1.0593,1.0593,1.0298,0.9913,0.9733,0.9385,0.9004,0.8851,0.8804,0.8804,0.8804,0.8804,0.8804,0.8804,0.8804,0.8646,0.8182,0.8103,0.7969,0.7503,0.7423,0.7423,0.7423,0.7182,0.702,0.702,0.6777,0.6529,0.6357,0.6086,0.5923,0.5923,0.5923,0.5601,0.4893,0.4869,0.4759,0.4519,0.4491,0.4267,0.3763,0.3456,0.3046,0.2518,0.1781,0.14,0.0,1.1212,1.138,1.1027,1.068,1.0156,0.9105,0.8411,0.0,0.7148,0.708,0.7124,0.7065,0.7757,0.8646,0.9518,1.034,1.1305,1.2445,1.2226,1.1686,1.1013,1.1356,1.2025,1.2983,1.3492,1.4207,1.5128,1.5199,1.4772,1.3854,1.3818,1.3382,1.2445,1.2177,1.2021,1.1906,1.1646,1.1344,1.1087,1.1153,1.0997,1.0688,1.0688,1.0649,1.0593,1.0593,1.0593,1.0593,1.0593,1.0593,1.0593,1.0593,1.0593,1.0593,1.0593,1.0593,1.0593,1.0593,1.0656,1.0681,1.0744,1.1288,1.1888,1.1888,1.132,1.0681,1.0661,1.0208,0.9762,0.9666,0.9265,0.8858,0.8818,0.8804,0.8804,0.8804,0.8804,0.8804,0.8804,0.8804,0.8804,0.8804,0.8804,0.8804,0.8804,0.8804,0.8804,0.8804,0.8209,0.7777,0.7777,0.7155,0.7047,0.7723,0.7101,0.6669,0.6669,0.6669,0.634,0.5597,0.5569,0.5273,0.4598,0.4515,0.4491,0.4491,0.3763,0.3316,0.3158,0.2416,0.2002,0.9799,0.0,0.915,0.9356,0.9118,0.8813,0.0,0.8321,0.8,0.8038,0.778,0.7759,0.8394,0.8153,0.8574,1.0744,1.1002,1.1565,1.3458,1.4152,1.4382,1.4159,1.4217,1.4417,1.4636,1.4782,1.495,1.5163,1.5199,1.5092,1.4843,1.4843,1.4378,1.3382,1.3523,1.3032,1.1906,1.2226,1.2243,1.1942,1.2548,1.2379,1.1531,1.1531,1.1163,1.0593,1.0593,1.0593,1.0593,1.0593,1.0593,1.0593,1.0593,1.0593,1.0593,1.0593,1.0593,1.0593,1.0593,1.0982,1.1624,1.2243,1.2543,1.2734,1.2734,1.2174,1.1441,1.1201,1.0758,1.0231,0.9491,0.9412,0.9365,0.8911,0.8804,0.8804,0.8804,0.8804,0.8804,0.8804,0.8804,0.8804,0.8804,0.8804,0.8804,0.8804,0.8804,0.8804,0.8804,0.8646,0.8533,0.8533,0.8401,0.8348,0.8533,0.7857,0.745,0.745,0.745,0.7101,0.6367,0.634,0.6009,0.5273,0.4759,0.4491,0.4491,0.4322,0.4114,0.3931,0.3184,0.2769,0.8987,0.9421,0.9818,0.9823,0.9652,0.9414,0.9132,0.86,0.8159,0.8087,0.7876,0.7915,0.8594,0.8636,0.9104,1.0733,1.1633,1.2696,1.442,1.5186,1.5472,1.5238,1.5199,1.5376,1.579,1.5825,1.6009,1.6446,1.6472,1.6298,1.5869,1.5825,1.5292,1.4116,1.4109,1.3514,1.229,1.2663,1.2741,1.257,1.3017,1.2912,1.2358,1.2358,1.212,1.1694,1.1694,1.1694,1.1663,1.1288,1.1382,1.1632,1.0902,1.0839,1.1108,1.0744,1.0832,1.1132,1.1132,1.1686,1.242,1.2856,1.3252,1.3545,1.3545,1.3235,1.2799,1.2243,1.1653,1.1086,1.0581,1.0324,1.0046,0.942,0.9263,0.9185,0.8857,0.8804,0.8804,0.8804,0.8804,0.891,0.9211,0.9008,0.891,0.9211,0.9008,0.8804,0.8804,0.8804,0.8804,0.8804,0.8804,0.8804,0.8804,0.8427,0.8209,0.8209,0.8209,0.7883,0.7128,0.7101,0.6745,0.6009,0.5304,0.4948,0.4948,0.4555,0.4287,0.409,0.3638,0.3353,0.834,0.996,1.133,1.0684,1.0566,1.0371,0.9513,0.8789,0.8189,0.7773,0.7754,0.8002,0.8659,0.9221,0.9864,1.0674,1.248,1.4198,1.5364,1.5915,1.6086,1.5659,1.5623,1.5939,1.6749,1.6819,1.7139,1.794,1.8008,1.7647,1.6853,1.6819,1.618,1.4763,1.4571,1.4032,1.3032,1.3128,1.3191,1.3191,1.3312,1.3312,1.3191,1.3191,1.313,1.3009,1.3009,1.3009,1.2948,1.2266,1.2389,1.2856,1.1514,1.1382,1.1896,1.1233,1.1382,1.2012,1.2135,1.2604,1.3191,1.3342,1.3825,1.4392,1.4392,1.4392,1.4243,1.3545,1.2689,1.196,1.1864,1.1358,1.0734,1.0105,0.9961,0.9788,0.9237,0.9035,0.8956,0.8956,0.8956,0.9133,0.9718,0.9413,0.9283,0.9865,0.9465,0.9113,0.9113,0.9008,0.8982,0.908,0.9008,0.8982,0.9113,0.9008,0.8956,0.8956,0.8857,0.8507,0.7883,0.775,0.7396,0.6777,0.6036,0.5624,0.5487,0.4737,0.4297,0.414,0.4006,0.3852,0.8691,0.9932,1.0645,0.9158,0.9033,0.9055,0.8182,0.789,0.7783,0.7715,0.8027,0.8757,1.0244,1.001,1.0351,1.2646,1.4199,1.543,1.6353,1.7162,1.7648,1.7579,1.7579,1.7613,1.7759,1.7794,1.7828,1.7974,1.8008,1.794,1.7794,1.7794,1.7132,1.5746,1.6109,1.5705,1.4397,1.4135,1.4025,1.4025,1.4717,1.4658,1.4025,1.4025,1.3636,1.3009,1.3009,1.3009,1.2978,1.2856,1.2887,1.2978,1.2734,1.2704,1.2787,1.2673,1.2704,1.2909,1.3606,1.3906,1.4124,1.4805,1.5108,1.5235,1.5235,1.5235,1.5196,1.5079,1.3705,1.2212,1.1687,1.1384,1.1122,1.0742,1.0644,1.0618,1.0517,1.0038,0.964,0.964,0.964,0.9692,0.9788,1.0192,1.0542,1.0636,1.0568,1.0491,1.0491,0.9987,0.9865,1.044,0.9987,0.9891,1.044,0.9961,0.964,0.964,0.9106,0.8752,0.8646,0.8023,0.7643,0.7536,0.6799,0.6118,0.5487,0.5259,0.5008,0.4755,0.4621,0.4461,0.8129,0.9065,0.9746,0.9199,1.0088,1.0996,1.0596,1.0137,0.9727,0.9474,0.9609,1.0059,1.1095,1.1328,1.2236,1.4806,1.5342,1.5889,1.7204,1.7568,1.7754,1.7978,1.8008,1.8008,1.8008,1.8008,1.8008,1.8008,1.8008,1.8008,1.8008,1.7793,1.7263,1.6355,1.6362,1.5969,1.5097,1.4938,1.4844,1.4835,1.5235,1.5206,1.4844,1.4844,1.4658,1.4302,1.4302,1.4302,1.4273,1.3825,1.3906,1.4204,1.3342,1.3282,1.3644,1.3644,1.3644,1.3756,1.4569,1.4844,1.4903,1.5294,1.541,1.541,1.541,1.541,1.541,1.541,1.4581,1.3631,1.336,1.2886,1.2365,1.1843,1.1531,1.1241,1.0889,1.0568,1.0338,1.0338,1.0338,1.0466,1.0813,1.0838,1.0914,1.1291,1.104,1.0788,1.0788,1.0542,1.0466,1.0771,1.0517,1.0466,1.0762,1.0517,1.0038,0.9316,0.8982,0.8804,0.8804,0.848,0.8295,0.8295,0.7563,0.6956,0.6482,0.5933,0.5524,0.5225,0.5088,0.4985,0.7866,0.8558,0.9289,0.9903,1.1113,1.222,1.2524,1.1839,1.1115,1.1064,1.1143,1.1348,1.1809,1.269,1.3975,1.5957,1.5967,1.6221,1.7656,1.7666,1.7646,1.7969,1.8008,1.8008,1.8008,1.8008,1.8008,1.8008,1.8008,1.7969,1.7871,1.7559,1.7139,1.6592,1.6271,1.588,1.5391,1.541,1.541,1.541,1.541,1.541,1.541,1.541,1.541,1.541,1.541,1.541,1.5352,1.4746,1.4844,1.5294,1.4025,1.3936,1.4481,1.4481,1.4481,1.4569,1.5206,1.541,1.541,1.541,1.541,1.541,1.541,1.541,1.541,1.541,1.5176,1.4883,1.4687,1.4072,1.3349,1.2733,1.2319,1.1931,1.14,1.1174,1.104,1.104,1.104,1.1191,1.1715,1.1525,1.1475,1.1972,1.1625,1.1275,1.1275,1.1141,1.1091,1.1275,1.1149,1.104,1.104,1.104,1.0542,0.9335,0.9106,0.9113,0.9263,0.9106,0.9035,0.9035,0.8488,0.7939,0.7378,0.6632,0.6099,0.5805,0.5611,0.5502,0.8675,0.9221,0.9864,1.1134,1.0635,1.0157,1.1408,1.0674,1.0079,1.1291,1.1846,1.2242,1.2729,1.3835,1.4707,1.4921,1.5889,1.6794,1.7353,1.7734,1.7978,1.8008,1.8008,1.8008,1.8008,1.8008,1.8008,1.8008,1.8008,1.7842,1.7451,1.7435,1.7024,1.6163,1.6114,1.588,1.5391,1.541,1.541,1.541,1.541,1.541,1.541,1.541,1.541,1.541,1.541,1.541,1.541,1.5352,1.5352,1.5381,1.5255,1.5264,1.5323,1.5323,1.5323,1.5323,1.5381,1.541,1.541,1.541,1.541,1.541,1.541,1.541,1.541,1.541,1.5391,1.5157,1.4358,1.3821,1.3383,1.2968,1.2852,1.2808,1.2749,1.2212,1.174,1.174,1.174,1.174,1.1789,1.232,1.2774,1.2798,1.2774,1.2749,1.2749,1.2163,1.1981,1.2666,1.2138,1.174,1.174,1.174,1.1416,1.0686,1.0064,1.002,1.0636,1.0064,0.9744,0.9744,0.9684,0.8993,0.7667,0.7244,0.6906,0.6698,0.6313,0.6136,0.7656,0.85,0.9474,1.0528,1.0821,1.1261,1.2803,1.2998,1.2978,1.3492,1.3701,1.3789,1.3682,1.4492,1.5176,1.5176,1.5811,1.6475,1.6882,1.7353,1.7627,1.7627,1.7852,1.8008,1.8008,1.7773,1.7627,1.7627,1.7373,1.7116,1.695,1.675,1.6437,1.6105,1.5831,1.5576,1.541,1.541,1.541,1.541,1.541,1.541,1.541,1.541,1.541,1.541,1.541,1.541,1.541,1.541,1.541,1.541,1.541,1.541,1.541,1.541,1.541,1.541,1.541,1.541,1.541,1.541,1.541,1.541,1.541,1.541,1.541,1.541,1.541,1.5283,1.4697,1.4219,1.3763,1.3369,1.3066,1.2905,1.2905,1.2691,1.2476,1.2476,1.2476,1.2476,1.2476,1.2725,1.2905,1.2905,1.2905,1.2905,1.2905,1.2666,1.2584,1.2881,1.2642,1.2476,1.2476,1.2476,1.2378,1.2123,1.1057,1.0542,1.0788,1.0568,1.0415,1.0415,1.0415,0.988,0.8751,0.8404,0.7889,0.722,0.6861,0.6704,0.7656,0.8535,0.9648,1.0645,1.1359,1.221,1.3743,1.416,1.4363,1.4873,1.4766,1.4531,1.4338,1.4679,1.5049,1.5186,1.5723,1.6202,1.6475,1.6894,1.7227,1.7363,1.7637,1.7861,1.7998,1.7627,1.7383,1.7383,1.6982,1.6638,1.6523,1.6261,1.6026,1.5889,1.5566,1.541,1.541,1.541,1.541,1.541,1.541,1.541,1.541,1.541,1.541,1.541,1.541,1.541,1.541,1.541,1.541,1.541,1.541,1.541,1.541,1.541,1.541,1.541,1.541,1.541,1.541,1.541,1.541,1.541,1.541,1.541,1.541,1.541,1.541,1.5283,1.4727,1.4328,1.3968,1.3437,1.3096,1.2905,1.2905,1.2905,1.2905,1.2905,1.2905,1.2905,1.2905,1.2905,1.2905,1.2905,1.2905,1.2905,1.2905,1.2905,1.2905,1.2905,1.2905,1.2905,1.2905,1.2905,1.2905,1.2905,1.1999,1.1459,1.1459,1.125,1.1116,1.1116,1.1116,1.0698,0.985,0.9368,0.8738,0.7929,0.7488,0.7189,0.9075,0.9619,1.0596,1.1862,1.2213,1.2564,1.3821,1.3496,1.3404,1.5068,1.4708,1.425,1.4707,1.4406,1.426,1.4745,1.5527,1.6085,1.6085,1.6445,1.6853,1.7314,1.7406,1.7539,1.7959,1.7617,1.7406,1.7406,1.6963,1.6523,1.6105,1.6085,1.5889,1.542,1.541,1.541,1.541,1.541,1.541,1.541,1.541,1.541,1.541,1.541,1.541,1.541,1.541,1.541,1.541,1.541,1.541,1.541,1.541,1.541,1.541,1.541,1.541,1.541,1.541,1.541,1.541,1.541,1.541,1.541,1.541,1.541,1.541,1.541,1.541,1.5215,1.4328,1.4114,1.3899,1.3076,1.2905,1.2905,1.2905,1.2905,1.2905,1.2905,1.2905,1.2905,1.2905,1.2905,1.2905,1.2905,1.2905,1.2905,1.2905,1.2905,1.2905,1.2905,1.2905,1.2905,1.2905,1.2905,1.2905,1.2905,1.2905,1.2905,1.2905,1.2187,1.1814,1.1814,1.1814,1.1491,1.0813,1.0071,0.9451,0.8889,0.822,0.76,0.7369,0.8701,1.0391,1.0762,1.2451,1.4131,1.4502,1.4404,1.4453,1.5244,1.5176,1.498,1.4814,1.4922,1.498,1.4814,1.5244,1.5605,1.5605,1.5986,1.6339,1.6476,1.6738,1.6941,1.7067,1.6709,1.6486,1.6486,1.6055,1.5712,1.5615,1.5605,1.5547,1.5391,1.541,1.541,1.541,1.541,1.541,1.541,1.541,1.541,1.541,1.541,1.541,1.541,1.541,1.541,1.541,1.541,1.541,1.541,1.541,1.541,1.541,1.541,1.541,1.541,1.541,1.541,1.541,1.541,1.541,1.541,1.541,1.541,1.541,1.541,1.541,1.5283,1.4736,1.4338,1.3899,1.3076,1.2905,1.2905,1.2905,1.2905,1.2905,1.2905,1.2905,1.2905,1.2905,1.2905,1.3041,1.3467,1.3529,1.3529,1.3529,1.3529,1.3372,1.2954,1.2905,1.2905,1.2905,1.2905,1.2905,1.2905,1.2905,1.2905,1.2905,1.2691,1.2559,1.2559,1.2559,1.2221,1.1491,1.1087,1.0406,0.9458,0.9074,0.844,0.8984,1.0361,1.1895,1.2236,1.3428,1.4619,1.4951,1.5039,1.5107,1.5361,1.5283,1.5137,1.5049,1.5107,1.5127,1.5049,1.5244,1.541,1.541,1.5635,1.5899,1.6075,1.6565,1.6959,1.7129,1.7032,1.6955,1.6955,1.6531,1.6273,1.6273,1.6273,1.6273,1.6273,1.6273,1.614,1.5835,1.5835,1.5835,1.5835,1.5835,1.5997,1.6244,1.5661,1.5555,1.5835,1.5835,1.5997,1.6244,1.5968,1.5997,1.6273,1.6273,1.6273,1.6273,1.6273,1.6273,1.6273,1.6273,1.6273,1.6273,1.6273,1.6273,1.6273,1.6273,1.6273,1.6273,1.6273,1.6273,1.6128,1.5508,1.5136,1.4625,1.3406,1.3023,1.2905,1.2905,1.3079,1.3262,1.3262,1.3443,1.3539,1.331,1.3262,1.3372,1.3755,1.4003,1.4167,1.4167,1.4167,1.392,1.3324,1.3478,1.3525,1.3286,1.3478,1.3515,1.3262,1.3467,1.3501,1.3262,1.3041,1.2905,1.2905,1.2905,1.2691,1.2236,1.1883,1.1269,1.0355,0.9852,0.9202,1.2191,1.3232,1.4192,1.5011,1.4708,1.4426,1.5234,1.541,1.541,1.541,1.5107,1.4961,1.5342,1.5098,1.4971,1.5352,1.5468,1.5497,1.5497,1.5546,1.5752,1.6188,1.6824,1.7366,1.7746,1.805,1.8259,1.8259,1.7835,1.7605,1.7605,1.7605,1.7605,1.7605,1.7605,1.7274,1.6595,1.6595,1.6595,1.6595,1.6595,1.695,1.755,1.6216,1.5979,1.6595,1.6595,1.6978,1.755,1.6877,1.7006,1.7605,1.7605,1.7605,1.7605,1.7605,1.7605,1.7605,1.7605,1.7605,1.7605,1.7605,1.7605,1.7605,1.7605,1.7605,1.7605,1.7605,1.7605,1.7404,1.6546,1.6255,1.5799,1.4155,1.3402,1.3065,1.3065,1.3491,1.3886,1.3886,1.4329,1.4525,1.398,1.3886,1.3909,1.3956,1.4491,1.4835,1.4789,1.4766,1.456,1.3956,1.4376,1.4468,1.3933,1.4376,1.4468,1.3909,1.4399,1.4445,1.3909,1.3358,1.3041,1.2968,1.2968,1.2954,1.2905,1.2457,1.1991,1.1453,1.066,0.9975,0.9471,1.1211,1.3271,1.3789,1.4531,1.5157,1.5371,1.541,1.541,1.541,1.5342,1.5303,1.5391,1.5342,1.5312,1.54,1.5892,1.6265,1.6265,1.6754,1.7168,1.7277,1.7428,1.7556,1.7627,1.7718,1.7734,1.7734,1.7661,1.7605,1.7605,1.7605,1.7605,1.7605,1.7605,1.7523,1.7357,1.7357,1.7357,1.7357,1.7357,1.744,1.7578,1.7263,1.7219,1.7357,1.7357,1.744,1.7578,1.744,1.7468,1.7605,1.7605,1.7605,1.7605,1.7605,1.7605,1.7605,1.7605,1.7605,1.7605,1.7605,1.7605,1.7605,1.7605,1.7605,1.7605,1.7605,1.7605,1.755,1.7348,1.6759,1.6104,1.5716,1.4939,1.4317,1.4317,1.4399,1.4514,1.4514,1.4606,1.4663,1.4537,1.4514,1.4675,1.5141,1.5732,1.5942,1.5477,1.541,1.5186,1.456,1.4629,1.4663,1.4514,1.4629,1.4629,1.4514,1.4629,1.4629,1.4514,1.4387,1.4084,1.3613,1.3624,1.3372,1.2905,1.2807,1.2487,1.2022,1.1849,1.1301,1.0902,1.258,1.4247,1.5211,1.5966,1.6433,1.6433,1.6433,1.6433,1.6433,1.6169,1.5921,1.5921,1.6226,1.6433,1.6433,1.6782,1.7034,1.7034,1.7357,1.7605,1.7605,1.7895,1.8124,1.8124,1.8447,1.8661,1.8661,1.8661,1.8661,1.8661,1.8661,1.8661,1.8661,1.8661,1.8474,1.814,1.8124,1.8124,1.8124,1.8124,1.8301,1.8635,1.8286,1.8124,1.8124,1.8124,1.834,1.8635,1.8274,1.834,1.8661,1.8661,1.8661,1.8661,1.8661,1.8661,1.8661,1.8661,1.8661,1.8661,1.8661,1.8661,1.8661,1.8661,1.8661,1.8661,1.8661,1.8661,1.8576,1.8351,1.7914,1.7418,1.6883,1.5706,1.4698,1.4698,1.4926,1.5118,1.5118,1.5354,1.5466,1.5186,1.5118,1.5231,1.5543,1.6117,1.638,1.6073,1.603,1.5798,1.5197,1.5399,1.5444,1.5175,1.5399,1.5444,1.5141,1.5399,1.5421,1.5141,1.5399,1.5152,1.426,1.4236,1.392,1.3324,1.3324,1.3056,1.2539,1.2301,1.1939,1.2551,1.4146,1.5452,1.716,1.7605,1.7605,1.7605,1.7605,1.7605,1.7605,1.7107,1.668,1.668,1.7202,1.7605,1.7605,1.7715,1.7797,1.7797,1.7895,1.7977,1.7977,1.8528,1.8874,1.8874,1.9449,1.9798,1.9798,1.9798,1.9798,1.9798,1.9798,1.9798,1.9798,1.9798,1.9501,1.8912,1.8874,1.8874,1.8874,1.8874,1.9202,1.9773,1.9176,1.8874,1.8874,1.8874,1.9228,1.9747,1.915,1.9254,1.9798,1.9798,1.9798,1.9798,1.9798,1.9798,1.9798,1.9798,1.9798,1.9798,1.9798,1.9798,1.9798,1.9798,1.9798,1.9798,1.9798,1.9798,1.9685,1.9146,1.8933,1.8607,1.7614,1.6175,1.4994,1.4994,1.5399,1.5754,1.5754,1.6173,1.6337,1.5842,1.5754,1.5754,1.5754,1.6194,1.65,1.65,1.65,1.6315,1.582,1.6194,1.6303,1.5798,1.6216,1.6281,1.5798,1.6216,1.6281,1.5776,1.6238,1.6042,1.5017,1.4903,1.456,1.3956,1.3839,1.36,1.319,1.2712,1.2533,0.9152,1.1782,1.4926,1.7071,1.7605,1.7605,1.7605,1.7605,1.7605,1.7605,1.7523,1.744,1.744,1.7523,1.7605,1.7605,1.8151,1.8555,1.8555,1.9097,1.9501,1.9501,1.9579,1.9643,1.9643,1.9747,1.9798,1.9798,1.9798,1.9798,1.9798,1.9798,1.9798,1.9798,1.9798,1.9747,1.9643,1.9643,1.9643,1.9643,1.9643,1.9695,1.9798,1.9695,1.9643,1.9643,1.9643,1.9721,1.9798,1.9695,1.9721,1.9798,1.9798,1.9798,1.9798,1.9798,1.9798,1.9798,1.9798,1.9798,1.9798,1.9798,1.9798,1.9798,1.9798,1.9798,1.9798,1.9798,1.9798,1.9685,1.9146,1.8657,1.8154,1.7549,1.6826,1.6272,1.6272,1.6315,1.638,1.638,1.6445,1.6466,1.6402,1.638,1.638,1.638,1.6445,1.65,1.65,1.65,1.6466,1.6402,1.6445,1.6466,1.638,1.6445,1.6466,1.638,1.6457,1.6466,1.638,1.6457,1.6423,1.6272,1.5754,1.5186,1.4583,1.405,1.4027,1.4456,1.3856,1.3871,1.0942,1.3543,1.6064,1.8269,1.8821,1.8821,1.8821,1.8821,1.8821,1.8821,1.8821,1.8715,1.8286,1.8555,1.8821,1.8821,1.9097,1.9307,1.9307,1.9618,1.9798,1.9798,1.9798,1.9798,1.9798,1.9798,1.9798,1.9798,1.9798,1.9798,1.9798,1.9798,1.9798,1.9798,1.9798,1.9798,1.9798,1.9798,1.9798,1.9798,1.9798,1.9798,1.9798,1.9798,1.9798,1.9798,1.9798,1.9798,1.9798,1.9798,1.9798,1.9798,1.9798,1.9798,1.9798,1.9798,1.9798,1.9798,1.9798,1.9798,1.9798,1.9798,1.9798,1.9798,1.9798,1.9798,1.9798,1.9798,1.9798,1.9748,1.9522,1.9284,1.8894,1.8041,1.7652,1.7287,1.6638,1.65,1.65,1.65,1.65,1.65,1.65,1.65,1.65,1.65,1.65,1.65,1.65,1.65,1.65,1.65,1.65,1.65,1.65,1.65,1.65,1.65,1.65,1.65,1.65,1.65,1.65,1.65,1.6238,1.581,1.5208,1.4937,1.4778,1.4698,1.4422,1.4445,1.1769,1.3903,1.566,1.8304,1.9083,1.9296,1.971,1.9798,1.9798,1.9798,1.9798,1.9631,1.9097,1.9423,1.9798,1.9798,1.9798,1.9798,1.9798,1.9798,1.9798,1.9798,1.9798,1.9798,1.9798,1.9798,1.9798,1.9798,1.9798,1.9798,1.9798,1.9798,1.9798,1.9798,1.9798,1.9798,1.9798,1.9798,1.9798,1.9798,1.9798,1.9798,1.9798,1.9798,1.9798,1.9798,1.9798,1.9798,1.9798,1.9798,1.9798,1.9798,1.9798,1.9798,1.9798,1.9798,1.9798,1.9798,1.9798,1.9798,1.9798,1.9798,1.9798,1.9798,1.9798,1.9798,1.9798,1.9798,1.9798,1.9773,1.9635,1.961,1.9334,1.8254,1.8003,1.7727,1.6713,1.65,1.65,1.65,1.65,1.65,1.65,1.65,1.65,1.65,1.65,1.65,1.65,1.65,1.65,1.65,1.65,1.65,1.65,1.65,1.65,1.65,1.65,1.65,1.65,1.65,1.65,1.65,1.65,1.6281,1.582,1.5676,1.5454,1.5152,1.4994,1.5017,0.8735,1.0157,0.0,1.5723,1.7099,1.7926,1.9447,1.9798,1.9798,1.9798,1.9798,1.9798,1.9747,1.9773,1.9798,1.9798,1.9798,1.9798,1.9798,1.9798,1.9798,1.9798,1.9798,1.9798,1.9798,1.9798,1.9798,1.9798,1.9798,1.9798,1.9798,1.9798,1.9798,1.9798,1.9798,1.9798,1.9798,1.9798,1.9798,1.9798,1.9798,1.9798,1.9798,1.9798,1.9798,1.9798,1.9798,1.9798,1.9798,1.9798,1.9798,1.9798,1.9798,1.9798,1.9798,1.9798,1.9798,1.9798,1.9798,1.9798,1.9798,1.9798,1.9798,1.9798,1.9798,1.9798,1.9798,1.9798,1.9798,1.9685,1.9171,1.9045,1.877,1.7712,1.7448,1.7262,1.6647,1.65,1.65,1.65,1.65,1.65,1.65,1.65,1.65,1.65,1.65,1.65,1.65,1.65,1.65,1.65,1.65,1.65,1.65,1.65,1.65,1.65,1.65,1.65,1.65,1.65,1.65,1.65,1.65,1.6466,1.6445,1.5886,1.5886,1.638,1.582,1.5864,0.8083,0.0,0.0,1.3253,1.5367,1.6974,1.7541,1.8794,1.9798,1.9798,1.9798,1.9798,1.9798,1.9798,1.9798,1.9798,1.9798,1.9798,1.9798,1.9798,1.9798,1.9798,1.9798,1.9798,1.9798,1.9798,1.9798,1.9798,1.9798,1.9798,1.9798,1.9798,1.9798,1.9798,1.9798,1.9798,1.9798,1.9798,1.9798,1.9798,1.9798,1.9798,1.9798,1.9798,1.9798,1.9798,1.9798,1.9798,1.9798,1.9798,1.9798,1.9798,1.9798,1.9798,1.9798,1.9798,1.9798,1.9798,1.9798,1.9798,1.9798,1.9798,1.9798,1.9798,1.9798,1.9798,1.9798,1.9798,1.9798,1.9761,1.9572,1.9259,1.8719,1.7674,1.7099,1.6773,1.6538,1.65,1.65,1.65,1.65,1.65,1.65,1.65,1.65,1.65,1.65,1.65,1.65,1.65,1.65,1.65,1.65,1.65,1.65,1.65,1.65,1.65,1.65,1.65,1.65,1.65,1.65,1.65,1.65,1.65,1.65,1.6281,1.6281,1.6488,1.6281,1.6281,0.6641,0.7811,0.0,1.1322,1.3065,1.477,1.6638,1.7904,1.8907,1.9648,1.9798,1.9798,1.9798,1.9798,1.9798,1.9798,1.9798,1.9798,1.9798,1.9798,1.9798,1.9798,1.9798,1.9798,1.9798,1.9798,1.9798,1.9798,1.9798,1.9798,1.9798,1.9798,1.9798,1.9798,1.9798,1.9798,1.9798,1.9798,1.9798,1.9798,1.9798,1.9798,1.9798,1.9798,1.9798,1.9798,1.9798,1.9798,1.9798,1.9798,1.9798,1.9798,1.9798,1.9798,1.9798,1.9798,1.9798,1.9798,1.9798,1.9798,1.9798,1.9798,1.9798,1.9798,1.9798,1.9798,1.9798,1.9798,1.9798,1.9798,1.9798,1.9284,1.8544,1.784,1.7074,1.65,1.65,1.65,1.65,1.65,1.65,1.65,1.65,1.65,1.65,1.65,1.65,1.65,1.65,1.65,1.65,1.65,1.65,1.65,1.65,1.65,1.65,1.65,1.65,1.65,1.65,1.65,1.65,1.65,1.65,1.65,1.65,1.65,1.65,1.65,1.65,1.65,0.0,0.0,0.0,0.988,1.0193,1.1274,1.671,1.7102,1.6989,1.9246,1.9698,1.971,1.9786,1.9798,1.9798,1.9798,1.9798,1.9798,1.9798,1.9798,1.9798,1.9798,1.9798,1.9798,1.9798,1.9798,1.9798,1.9798,1.9798,1.9798,1.9798,1.9798,1.9798,1.9798,1.9798,1.9798,1.9798,1.9798,1.9798,1.9798,1.9798,1.9798,1.9798,1.9798,1.9798,1.9798,1.9798,1.9798,1.9798,1.9798,1.9798,1.9798,1.9798,1.9798,1.9798,1.9798,1.9798,1.9798,1.9798,1.9798,1.9798,1.9798,1.9798,1.9798,1.9798,1.9798,1.9798,1.9798,1.9798,1.9798,1.9786,1.8995,1.8204,1.8191,1.7325,1.65,1.65,1.65,1.65,1.65,1.65,1.65,1.65,1.65,1.65,1.65,1.65,1.65,1.65,1.65,1.65,1.65,1.65,1.6522,1.6522,1.6522,1.6522,1.6522,1.6522,1.65,1.65,1.65,1.65,1.65,1.65,1.65,1.65,1.65,1.65,1.65,1.65,1.65,0.4269,0.0,0.0,0.0,0.0,0.0,1.1175,1.2319,1.3797,1.681,1.7099,1.7438,1.9434,1.9798,1.9798,1.9798,1.9798,1.9798,1.9798,1.9798,1.9798,1.9798,1.9798,1.9798,1.9798,1.9798,1.9798,1.9798,1.9798,1.9798,1.9798,1.9798,1.9798,1.9798,1.9798,1.9798,1.9798,1.9798,1.9798,1.9798,1.9798,1.9798,1.9798,1.9798,1.9798,1.9798,1.9798,1.9798,1.9798,1.9798,1.9798,1.9798,1.9798,1.9798,1.9798,1.9798,1.9798,1.9798,1.9798,1.9798,1.9798,1.9798,1.9798,1.9798,1.9798,1.9798,1.9798,1.9798,1.9798,1.971,1.9309,1.8707,1.8103,1.7702,1.7049,1.65,1.65,1.65,1.65,1.65,1.65,1.65,1.65,1.65,1.65,1.65,1.65,1.65,1.65,1.65,1.65,1.65,1.65,1.6659,1.7055,1.671,1.668,1.7055,1.671,1.65,1.65,1.65,1.65,1.65,1.65,1.65,1.65,1.65,1.65,1.65,1.65,1.65,0.4689,0.5129,0.5833,0.5963,0.0,0.0,1.0825,1.1741,1.3057,1.7061,1.7639,1.7903,1.951,1.9798,1.9798,1.9798,1.9798,1.9798,1.9798,1.9798,1.9798,1.9798,1.9798,1.9798,1.9798,1.9798,1.9798,1.9798,1.9798,1.9798,1.9798,1.9798,1.9798,1.9798,1.9798,1.9798,1.9798,1.9798,1.9798,1.9798,1.9798,1.9798,1.9798,1.9798,1.9798,1.9798,1.9798,1.9798,1.9798,1.9798,1.9798,1.9798,1.9798,1.9798,1.9798,1.9798,1.9798,1.9798,1.9798,1.9798,1.9798,1.9798,1.9798,1.9798,1.9798,1.9798,1.9798,1.9798,1.9798,1.9736,1.9409,1.8933,1.8405,1.7852,1.7287,1.681,1.655,1.65,1.65,1.65,1.65,1.65,1.65,1.65,1.65,1.65,1.65,1.65,1.65,1.65,1.65,1.65,1.65,1.671,1.725,1.6816,1.6731,1.7271,1.6795,1.65,1.65,1.671,1.6837,1.6837,1.6837,1.671,1.65,1.65,1.65,1.65,1.65,1.65,0.5501,0.5576,0.6194,0.7091,0.6282,0.0,1.2499,1.268,1.2981,1.7576,1.853,1.8618,1.8932,1.9032,1.907,1.907,1.9271,1.9522,1.9773,1.9798,1.9798,1.9798,1.9798,1.9798,1.9798,1.9798,1.9798,1.9798,1.9798,1.9798,1.9798,1.9798,1.9798,1.9798,1.9798,1.9798,1.9798,1.9798,1.9798,1.9798,1.9798,1.9798,1.9798,1.9798,1.9798,1.9798,1.9798,1.9798,1.9798,1.9798,1.9798,1.9798,1.9798,1.9798,1.9798,1.9798,1.9798,1.9798,1.9798,1.9798,1.9798,1.9798,1.9798,1.9798,1.9798,1.9798,1.9798,1.9798,1.9798,1.9798,1.9798,1.9384,1.8882,1.8405,1.7827,1.7237,1.6722,1.6538,1.65,1.65,1.65,1.65,1.65,1.65,1.65,1.65,1.65,1.65,1.65,1.65,1.65,1.65,1.65,1.671,1.725,1.6858,1.6816,1.7353,1.69,1.6595,1.6595,1.7055,1.7312,1.7312,1.7312,1.7076,1.6595,1.6543,1.65,1.65,1.65,1.65,0.0,0.0,0.0,0.0,0.684,0.0,0.6935,0.7011,0.7746,1.0069,1.0546,1.1224,1.3446,1.4206,1.4494,1.4494,1.5986,1.7777,1.9547,1.9798,1.9798,1.9798,1.9798,1.9798,1.9798,1.9798,1.9798,1.9798,1.9798,1.9798,1.9798,1.9798,1.9798,1.9798,1.9798,1.9798,1.9798,1.9798,1.9798,1.9798,1.9798,1.9798,1.9798,1.9798,1.9798,1.9798,1.9798,1.9798,1.9798,1.9798,1.9798,1.9798,1.9798,1.9798,1.9798,1.9798,1.9798,1.9798,1.9798,1.9798,1.9798,1.9798,1.9798,1.9798,1.9798,1.9798,1.9798,1.9798,1.9798,1.9798,1.9798,1.9384,1.897,1.887,1.8103,1.7373,1.726,1.6848,1.65,1.65,1.65,1.65,1.65,1.65,1.65,1.65,1.65,1.65,1.65,1.65,1.65,1.65,1.65,1.671,1.725,1.7188,1.7374,1.7907,1.7442,1.7126,1.7126,1.7229,1.7312,1.7312,1.7312,1.725,1.7126,1.671,1.65,1.65,1.65,1.65,0.0,0.0,0.0,0.7003,0.0,0.0,0.0,0.7503,0.787,1.0258,1.0334,1.0501,1.2197,1.2797,1.3053,1.3053,1.5114,1.6693,1.6667,1.8476,1.9798,1.9798,1.9798,1.9798,1.9798,1.9798,1.9798,1.9798,1.9798,1.9798,1.9798,1.9798,1.9798,1.9798,1.9798,1.9798,1.9798,1.9798,1.9798,1.9798,1.9798,1.9798,1.9798,1.9798,1.9798,1.9798,1.9798,1.9798,1.9798,1.9798,1.9798,1.9798,1.9798,1.9798,1.9798,1.9798,1.9798,1.9798,1.9798,1.9798,1.9798,1.9798,1.9798,1.9798,1.9798,1.9798,1.9798,1.9798,1.9798,1.9798,1.9798,1.961,1.9321,1.9058,1.8368,1.7714,1.7461,1.6923,1.65,1.65,1.65,1.65,1.65,1.65,1.65,1.65,1.6731,1.6888,1.6888,1.7126,1.7188,1.693,1.6888,1.7105,1.7646,1.7442,1.7646,1.8458,1.8007,1.7585,1.7312,1.7565,1.7706,1.7706,1.7967,1.7967,1.7706,1.7146,1.6888,1.69,1.6616,1.6637,0.0,0.0,0.0,0.0,0.0,0.7679,0.0,0.0,0.0,1.1267,1.1066,1.0675,1.1294,1.1524,1.1636,1.1636,1.3804,1.4797,1.2832,1.5972,1.8489,1.8518,1.9284,1.9635,1.9208,1.907,1.9233,1.9761,1.9309,1.9246,1.9773,1.9798,1.9798,1.9798,1.9798,1.9798,1.9798,1.9798,1.9798,1.9798,1.9798,1.9798,1.9798,1.9798,1.9798,1.9798,1.9798,1.9798,1.9798,1.9798,1.9798,1.9798,1.9798,1.9798,1.9798,1.9798,1.9798,1.9824,1.9952,2.0003,2.0003,2.0003,1.9901,1.9824,1.9952,1.9901,1.9798,1.9798,1.9798,1.9798,1.9798,1.9798,1.9698,1.9259,1.8681,1.8078,1.7662,1.6999,1.6543,1.6637,1.6659,1.6616,1.6522,1.65,1.6531,1.6637,1.7013,1.7353,1.7442,1.7827,1.7927,1.7504,1.7442,1.7626,1.8066,1.7807,1.7987,1.8855,1.8496,1.8066,1.7626,1.8027,1.8263,1.8263,1.8669,1.8688,1.8263,1.7605,1.7353,1.7442,1.6888,1.693,0.0,0.0,0.0,0.0,1.0224,1.0482,0.7555,0.0,0.7112,0.6579,0.0,0.6323,0.698,0.0,0.0,0.7042,0.8954,1.0137,0.9277,1.1771,1.3754,1.3941,1.7403,1.9032,1.7064,1.6446,1.7174,1.9623,1.7539,1.7225,1.9673,1.9798,1.9798,1.9798,1.9798,1.9798,1.9798,1.9798,1.9798,1.9798,1.9798,1.9798,1.9798,1.9798,1.9798,1.9798,1.9798,1.9798,1.9798,1.9798,1.9798,1.9798,1.9798,1.9798,1.9798,1.9798,1.9798,1.9875,2.0472,2.0696,2.0696,2.0696,2.027,1.9901,2.0497,2.0283,1.9798,1.9798,1.9798,1.9798,1.9798,1.9798,1.9786,1.9723,1.8945,1.8191,1.8129,1.7275,1.6637,1.7105,1.7209,1.7055,1.6573,1.65,1.6659,1.7126,1.725,1.7463,1.7947,1.8066,1.8086,1.8027,1.8007,1.8027,1.8086,1.8477,1.8765,1.8893,1.8836,1.8779,1.8708,1.8779,1.8817,1.8817,1.8874,1.8874,1.8817,1.7787,1.7544,1.8007,1.7463,1.7504,0.0,0.0,0.0,0.9143,1.0039,1.0715,0.7052,0.6284,0.6279,0.6053,0.0,0.0,0.0,0.0,0.0,0.0,0.7824,0.8641,0.7077,1.0004,1.2504,1.2961,1.4323,1.545,1.6098,1.5959,1.6914,1.9597,1.733,1.6977,1.966,1.9798,1.9798,1.9798,1.9798,1.9798,1.9798,1.9798,1.9798,1.9798,1.9798,1.9798,1.9798,1.9798,1.9798,1.9798,1.9798,1.9798,1.9824,2.022,2.0371,2.0421,2.0756,2.0695,2.0421,2.0781,2.0695,2.0472,2.1099,2.0843,2.022,2.022,2.0521,2.083,2.0358,2.0295,2.0295,1.9901,1.9798,1.9798,1.9798,1.9798,1.9798,1.9798,1.8982,1.8204,1.8204,1.7546,1.7034,1.725,1.7544,1.7686,1.7463,1.7167,1.7034,1.7271,1.7565,1.7967,1.8496,1.8836,1.8912,1.8593,1.8554,1.8438,1.8145,1.8593,1.8893,1.8893,1.8893,1.8893,1.8893,1.8893,1.8893,1.8893,1.9207,1.9369,1.9369,1.8593,1.8496,1.9006,1.7847,1.7747,1.2165,1.2802,1.3381,0.9098,0.9516,1.0161,0.7032,0.6492,0.6669,0.6729,0.6845,0.0,0.0,0.0,0.0,0.0,0.0,0.7389,0.0,0.7923,0.0,0.0,0.0,1.228,1.4832,1.4221,1.5088,1.8478,1.6258,1.6233,1.961,1.9798,1.9798,1.9798,1.9798,1.9798,1.9798,1.9798,1.9798,1.9798,1.9798,1.9798,1.9798,1.9798,1.9901,2.0055,1.9875,1.9901,2.0105,2.0597,2.0795,2.087,2.1677,2.17,2.1345,2.1615,2.1424,2.1137,2.1771,2.1366,2.062,2.0781,2.1232,2.1554,2.0805,2.0794,2.0906,2.0245,2.0067,2.0029,1.985,1.9798,1.985,2.0029,1.9105,1.8298,1.8588,1.7961,1.7394,1.7686,1.8046,1.8322,1.8322,1.7867,1.7565,1.7727,1.8066,1.8516,1.9043,1.946,1.9548,1.9169,1.9132,1.8968,1.8574,1.8893,1.9132,1.9132,1.9132,1.9043,1.8912,1.9043,1.9043,1.8893,1.9424,1.9708,1.9708,1.9169,1.9188,1.9672,1.8361,1.8243,1.6375,1.593,1.5473,1.0417,0.9404,0.9171,0.7293,0.787,0.8627,0.7975,0.0,0.0,0.0,0.0,0.0,0.0,0.0,0.0,0.0,0.0,0.0,0.0,0.0,0.0,0.0,1.001,1.0276,1.5622,1.3429,1.4176,1.951,1.9798,1.9798,1.9798,1.9798,1.9798,1.9798,1.9798,1.9798,1.9798,1.9798,1.9798,1.9798,1.9798,2.0144,2.0721,2.008,2.0182,2.0771,2.0795,2.0795,2.0919,2.2175,2.2649,2.2558,2.1922,2.1697,2.1781,2.2452,2.2626,2.2694,2.3297,2.2674,2.1805,2.2429,2.217,2.1544,2.093,2.0771,2.0622,1.9978,1.9798,1.9952,2.0597,1.9458,1.8508,1.9609,1.8502,1.7605,1.865,1.8855,1.8874,1.8874,1.8438,1.8263,1.8765,1.8855,1.9062,1.9603,1.969,1.969,1.969,1.9672,1.9672,1.9639,1.9657,1.9672,1.9672,1.9672,1.9442,1.893,1.9406,1.9424,1.8912,1.9424,1.9708,1.9708,1.9169,1.9188,1.969,1.9114,1.9151,1.8865,2.0036,2.001,1.3524,1.3113,1.2998,0.8027,0.8281,0.912,0.7556,0.8969,0.0,0.0,0.0,0.0,0.0,0.0,0.0,0.0,0.0,0.0,0.0,0.0,0.0,0.0,0.0,1.1757,1.4752,1.4657,1.6043,1.961,1.9798,2.0003,2.0459,2.0029,2.0003,2.0446,2.0029,1.9798,1.9798,1.9798,1.9798,1.9837,2.0258,2.0346,2.0169,2.0781,2.0966,2.087,2.1704,2.2058,2.2128,2.2965,2.3312,2.3275,2.3039,2.2711,2.2323,2.21,2.2597,2.3187,2.256,2.2628,2.2831,2.2239,2.2193,2.223,2.1582,2.1113,2.0759,2.0522,2.0131,1.985,2.0067,1.9434,1.8842,1.9212,1.881,1.8477,1.8836,1.9188,1.9424,1.9424,1.9281,1.9114,1.893,1.8893,1.9095,1.9621,1.9708,1.9708,1.9708,1.9708,1.9566,1.9207,1.9169,1.9332,1.969,1.9708,1.9621,1.9442,1.9603,1.9603,1.9424,1.9603,1.9708,1.9708,1.953,1.953,1.9708,1.9512,1.953,2.0854,2.2149,2.2285,1.6343,1.5905,1.5447,0.9907,1.0204,1.1142,0.9366,0.9955,0.0,0.0,0.0,0.0,0.0,0.0,0.0,0.0,0.0,0.0,0.0,0.0,0.0,0.0,0.0,0.0,0.0,0.0,0.0,0.0,2.0496,2.0584,2.0795,2.0584,2.057,2.0795,2.057,2.0496,2.0496,2.0496,2.0496,2.0496,2.0917,2.1015,2.0868,2.1448,2.1615,2.1537,2.236,2.2694,2.2762,2.3377,2.3595,2.3595,2.3595,2.3341,2.2965,2.2538,2.2913,2.345,2.2651,2.2935,2.345,2.2628,2.2688,2.2854,2.1948,2.1582,2.1363,2.0919,2.0489,2.022,2.0421,1.9577,1.8875,1.9481,1.9086,1.8727,1.9114,1.946,1.9708,1.9708,1.9708,1.9584,1.9244,1.9188,1.9314,1.9657,1.9708,1.9708,1.9708,1.9708,1.9566,1.9207,1.9188,1.9332,1.969,1.9708,1.9708,1.9708,1.9708,1.9708,1.9708,1.9708,1.9708,1.9708,1.9708,1.9708,1.9708,1.9708,1.9708]}]]